[[{"header":{"parameterUnit":"m.s-1","parameterCategory":1,"la1":31.0,"la2":29.5877,"lo1":-88.7671,"lo2":-86.6584,"dy":0.0162,"dx":0.0185,"nx":115,"ny":88,"refTime":"2026-03-05T00:00:00:Z","depth":0,"parameterNumber":2,"parameterNumberName":"U-component_of_WINDS"},"data":[0.0,0.0,0.0,0.0,0.0,0.0,0.0,0.0,0.0,0.0,0.0,0.0,0.0,0.0,0.0,0.0,0.0,0.0,0.0,0.0,0.0,0.0,0.0,0.0,0.0,0.0,0.0,0.0,0.0,0.0,0.0,0.0,0.0,0.0,0.0,0.0,0.0,0.0,0.0,0.0,0.0,0.0,0.0,0.0,0.0,0.0,0.0,0.0,0.0,0.0,0.0,0.0,0.0,0.0,0.0,0.0,0.0,0.0,0.0,0.0,0.0,0.0,0.0,0.0,0.0,0.0,0.0,0.0,0.0,0.0,0.0,0.0,0.0,0.0,0.0,0.0,0.0,0.0,0.0,0.0,0.0,0.0,0.0,0.0,0.0,0.0,0.0,0.0,0.0,0.0,0.0,0.0,0.0,0.0,0.0,0.0,0.0,0.0,0.0,0.0,0.0,0.0,0.0,0.0,0.0,0.0,0.0,0.0,0.0,0.0,0.0,0.0,0.0,0.0,0.0,0.0,0.0,0.0,0.0,0.0,0.0,0.0,0.0,0.0,0.0,0.0,0.0,0.0,0.0,0.0,0.0,0.0,0.0,0.0,0.0,0.0,0.0,0.0,0.0,0.0,0.0,0.0,0.0,0.0,0.0,0.0,0.0,0.0,0.0,0.0,0.0,0.0,0.0,0.0,0.0,0.0,0.0,0.0,0.0,0.0,0.0,0.0,0.0,0.0,0.0,0.0,0.0,0.0,0.0,0.0,0.0,0.0,0.0,0.0,0.0,0.0,0.0,0.0,0.0,0.0,0.0,0.0,0.0,0.0,0.0,0.0,0.0,0.0,0.0,0.0,0.0,0.0,0.0,0.0,0.0,0.0,0.0,0.0,0.0,0.0,0.0,0.0,0.0,0.0,0.0,0.0,0.0,0.0,0.0,0.0,0.0,0.0,0.0,0.0,0.0,0.0,0.0,0.0,0.0,0.0,0.0,0.0,0.0,0.0,0.0,0.0,0.0,0.0,0.0,0.0,0.0,0.0,0.0,0.0,0.0,0.0,0.0,0.0,0.0,0.0,0.0,0.0,0.0,0.0,0.0,0.0,0.0,0.0,0.0,0.0,0.0,0.0,0.0,0.0,0.0,0.0,0.0,0.0,0.0,0.0,0.0,0.0,0.0,0.0,0.0,0.0,0.0,0.0,0.0,0.0,0.0,0.0,0.0,0.0,0.0,0.0,0.0,0.0,0.0,0.0,0.0,0.0,0.0,0.0,0.0,0.0,0.0,0.0,0.0,0.0,0.0,0.0,0.0,0.0,0.0,0.0,0.0,0.0,0.0,0.0,0.0,0.0,0.0,0.0,0.0,0.0,0.0,0.0,0.0,0.0,0.0,0.0,0.0,0.0,0.0,0.0,0.0,0.0,0.0,0.0,0.0,0.0,0.0,0.0,0.0,0.0,0.0,0.0,0.0,0.0,0.0,0.0,0.0,0.0,0.0,0.0,0.0,0.0,0.0,0.0,0.0,0.0,0.0,0.0,0.0,0.0,0.0,0.0,0.0,0.0,0.0,0.0,0.0,0.0,0.0,0.0,0.0,0.0,0.0,0.0,0.0,0.0,0.0,0.0,0.0,0.0,0.0,0.0,0.0,0.0,0.0,0.0,0.0,0.0,0.0,0.0,0.0,0.0,0.0,0.0,0.0,0.0,0.0,0.0,0.0,0.0,0.0,0.0,0.0,0.0,0.0,0.0,0.0,0.0,0.0,0.0,0.0,0.0,0.0,0.0,0.0,0.0,0.0,0.0,0.0,0.0,0.0,0.0,0.0,0.0,0.0,0.0,0.0,0.0,0.0,0.0,0.0,0.0,0.0,0.0,0.0,0.0,0.0,0.0,0.0,0.0,0.0,0.0,0.0,0.0,0.0,0.0,0.0,0.0,0.0,0.0,0.0,0.0,0.0,0.0,0.0,0.0,0.0,0.0,0.0,0.0,0.0,0.0,0.0,0.0,0.0,0.0,0.0,0.0,0.0,0.0,0.0,0.0,0.0,0.0,0.0,0.0,0.0,0.0,0.0,0.0,0.0,0.0,0.0,0.0,0.0,0.0,0.0,0.0,0.0,0.0,0.0,0.0,0.0,0.0,0.0,0.0,0.0,0.0,0.0,0.0,0.0,0.0,0.0,0.0,0.0,0.0,0.0,0.0,0.0,0.0,0.0,0.0,0.0,0.0,0.0,0.0,0.0,0.0,0.0,0.0,0.0,0.0,0.0,0.0,0.0,0.0,0.0,0.0,0.0,0.0,0.0,0.0,0.0,0.0,0.0,0.0,0.0,0.0,0.0,0.0,0.0,0.0,0.0,0.0,0.0,0.0,0.0,0.0,0.0,0.0,0.0,0.0,0.0,0.0,0.0,0.0,0.0,0.0,0.0,0.0,0.0,0.0,0.0,0.0,0.0,0.0,0.0,0.0,0.0,0.0,0.0,0.0,0.0,0.0,0.0,0.0,0.0,0.0,0.0,0.0,0.0,0.0,0.0,0.0,0.0,0.0,0.0,0.0,0.0,0.0,0.0,0.0,0.0,0.0,0.0,0.0,0.0,0.0,0.0,0.0,0.0,0.0,0.0,0.0,0.0,0.0,0.0,0.0,0.0,0.0,0.0,0.0,0.0,0.0,0.0,0.0,0.0,0.0,0.0,0.0,0.0,0.0,0.0,0.0,0.0,0.0,0.0,0.0,0.0,0.0,0.0,0.0,0.0,0.0,0.0,0.0,0.0,0.0,0.0,0.0,0.0,0.0,0.0,0.0,0.0,0.0,0.0,0.0,0.0,0.0,0.0,0.0,0.0,0.0,0.0,0.0,0.0,0.0,0.0,0.0,0.0,0.0,0.0,0.0,0.0,0.0,0.0,0.0,0.0,0.0,0.0,0.0,0.0,0.0,0.0,0.0,0.0,0.0,0.0,0.0,0.0,0.0,0.0,0.0,0.0,0.0,0.0,0.0,0.0,0.0,0.0,0.0,0.0,0.0,0.0,0.0,0.0,0.0,0.0,0.0,0.0,0.0,0.0,0.0,0.0,0.0,0.0,0.0,0.0,0.0,0.0,0.0,0.0,0.0,0.0,0.0,0.0,0.0,0.0,0.0,0.0,0.0,0.0,0.0,0.0,0.0,0.0,0.0,0.0,0.0,0.0,0.0,0.0,0.0,0.0,0.0,0.0,0.0,0.0,0.0,0.0,0.0,0.0,0.0,0.0,0.0,0.0,0.0,0.0,0.0,0.0,0.0,0.0,0.0,0.0,0.0,0.0,0.0,0.0,0.0,0.0,0.0,0.0,0.0,0.0,0.0,0.0,0.0,0.0,0.0,0.0,0.0,0.0,0.0,0.0,0.0,0.0,0.0,0.0,0.0,0.0,0.0,0.0,0.0,0.0,0.0,0.0,0.0,0.0,0.0,0.0,0.0,0.0,0.0,0.0,0.0,0.0,0.0,0.0,0.0,0.0,0.0,0.0,0.0,0.0,0.0,0.0,0.0,0.0,0.0,0.0,0.0,0.0,0.0,0.0,0.0,0.0,0.0,0.0,0.0,0.0,0.0,0.0,0.0,0.0,0.0,0.0,0.0,0.0,0.0,0.0,0.0,0.0,0.0,0.0,0.0,0.0,0.0,0.0,0.0,0.0,0.0,0.0,0.0,0.0,0.0,0.0,0.0,0.0,0.0,0.0,0.0,0.0,0.0,0.0,0.0,0.0,0.0,0.0,0.0,0.0,0.0,0.0,0.0,0.0,0.0,0.0,0.0,0.0,0.0,0.0,0.0,0.0,0.0,0.0,0.0,0.0,0.0,0.0,0.0,0.0,0.0,0.0,0.0,0.0,0.0,0.0,0.0,0.0,0.0,0.0,0.0,0.0,0.0,0.0,0.0,0.0,0.0,0.0,0.0,0.0,0.0,0.0,0.0,0.0,0.0,0.0,0.0,0.0,0.0,0.0,0.0,0.0,0.0,0.0,0.0,0.0,0.0,0.0,0.0,0.0,0.0,0.0,0.0,0.0,0.0,0.0,0.0,0.0,0.0,0.0,0.0,0.0,0.0,0.0,0.0,0.0,0.0,0.0,0.0,0.0,0.0,0.0,0.0,0.0,0.0,0.0,0.0,0.0,0.0,0.0,0.0,0.0,0.0,0.0,0.0,0.0,0.0,0.0,0.0,0.0,0.0,0.0,0.0,0.0,0.0,0.0,0.0,0.0,0.0,0.0,0.0,0.0,0.0,0.0,0.0,0.0,0.0,0.0,0.0,-2.3697,0.0,0.0,0.0,0.0,0.0,0.0,0.0,0.0,0.0,0.0,0.0,0.0,0.0,0.0,0.0,0.0,0.0,0.0,0.0,0.0,0.0,0.0,0.0,0.0,0.0,0.0,0.0,0.0,0.0,0.0,0.0,0.0,0.0,0.0,0.0,0.0,0.0,0.0,0.0,0.0,0.0,0.0,0.0,0.0,0.0,0.0,0.0,0.0,0.0,0.0,0.0,0.0,0.0,0.0,0.0,0.0,0.0,0.0,0.0,0.0,0.0,0.0,0.0,0.0,0.0,0.0,0.0,0.0,0.0,0.0,0.0,0.0,0.0,0.0,0.0,0.0,0.0,0.0,0.0,0.0,0.0,0.0,0.0,0.0,0.0,0.0,0.0,0.0,0.0,0.0,0.0,0.0,0.0,0.0,0.0,0.0,0.0,0.0,0.0,0.0,0.0,0.0,0.0,0.0,0.0,0.0,0.0,0.0,0.0,0.0,-2.5338,-2.5549,-2.5091,-2.4474,-2.3693,0.0,0.0,0.0,0.0,0.0,0.0,0.0,0.0,0.0,0.0,0.0,0.0,0.0,0.0,0.0,0.0,0.0,0.0,0.0,0.0,0.0,0.0,0.0,0.0,0.0,0.0,0.0,0.0,0.0,0.0,0.0,0.0,0.0,0.0,0.0,0.0,0.0,0.0,0.0,0.0,0.0,0.0,0.0,0.0,0.0,0.0,0.0,0.0,0.0,0.0,0.0,0.0,0.0,0.0,0.0,0.0,0.0,0.0,0.0,0.0,0.0,0.0,0.0,0.0,0.0,0.0,0.0,0.0,0.0,0.0,0.0,0.0,0.0,0.0,0.0,0.0,0.0,0.0,0.0,0.0,0.0,0.0,0.0,0.0,0.0,0.0,0.0,0.0,0.0,0.0,0.0,0.0,0.0,0.0,0.0,0.0,0.0,0.0,0.0,0.0,0.0,0.0,0.0,0.0,0.0,0.0,0.0,0.0,0.0,0.0,0.0,0.0,-2.5029,-2.4457,-2.3341,0.0,0.0,0.0,0.0,0.0,0.0,0.0,0.0,0.0,0.0,0.0,0.0,0.0,0.0,0.0,0.0,0.0,0.0,0.0,0.0,0.0,0.0,0.0,0.0,0.0,0.0,0.0,0.0,0.0,0.0,0.0,0.0,0.0,0.0,0.0,0.0,0.0,0.0,0.0,0.0,0.0,0.0,0.0,0.0,0.0,0.0,0.0,0.0,0.0,0.0,0.0,0.0,0.0,0.0,0.0,0.0,0.0,0.0,0.0,0.0,0.0,0.0,0.0,0.0,0.0,0.0,0.0,0.0,0.0,0.0,0.0,0.0,0.0,0.0,0.0,0.0,0.0,0.0,0.0,0.0,0.0,0.0,0.0,0.0,0.0,0.0,0.0,0.0,0.0,0.0,0.0,0.0,0.0,0.0,0.0,0.0,0.0,0.0,0.0,0.0,0.0,0.0,0.0,0.0,0.0,0.0,0.0,0.0,0.0,0.0,-2.4966,-2.4842,-2.4661,0.0,-2.2899,0.0,0.0,0.0,0.0,0.0,0.0,0.0,0.0,0.0,0.0,0.0,0.0,0.0,0.0,0.0,0.0,0.0,0.0,0.0,0.0,0.0,0.0,0.0,0.0,0.0,0.0,0.0,0.0,0.0,0.0,0.0,0.0,0.0,0.0,0.0,0.0,0.0,0.0,0.0,0.0,0.0,0.0,0.0,0.0,0.0,0.0,0.0,0.0,0.0,0.0,0.0,0.0,0.0,0.0,0.0,0.0,0.0,0.0,0.0,0.0,0.0,0.0,0.0,0.0,0.0,0.0,0.0,0.0,0.0,0.0,0.0,0.0,0.0,0.0,0.0,0.0,0.0,0.0,0.0,0.0,0.0,0.0,0.0,0.0,0.0,0.0,0.0,0.0,0.0,0.0,0.0,0.0,0.0,0.0,0.0,0.0,0.0,0.0,0.0,0.0,0.0,0.0,0.0,0.0,0.0,0.0,0.0,0.0,0.0,0.0,0.0,-2.4385,-2.4177,-2.369,0.0,0.0,0.0,0.0,0.0,0.0,0.0,0.0,0.0,0.0,0.0,0.0,0.0,0.0,0.0,0.0,0.0,0.0,0.0,0.0,0.0,0.0,0.0,0.0,0.0,0.0,0.0,0.0,0.0,0.0,0.0,0.0,0.0,0.0,0.0,0.0,0.0,0.0,0.0,0.0,0.0,0.0,0.0,0.0,0.0,0.0,0.0,0.0,0.0,0.0,0.0,0.0,0.0,0.0,0.0,0.0,0.0,0.0,0.0,0.0,0.0,0.0,0.0,0.0,0.0,0.0,0.0,0.0,0.0,0.0,0.0,0.0,0.0,0.0,0.0,0.0,0.0,0.0,0.0,0.0,0.0,0.0,0.0,0.0,0.0,0.0,0.0,0.0,0.0,0.0,0.0,0.0,0.0,0.0,0.0,0.0,0.0,0.0,0.0,0.0,0.0,0.0,0.0,0.0,0.0,0.0,0.0,0.0,0.0,0.0,-2.4073,0.0,-2.4015,-2.3882,-2.3534,-2.3047,0.0,0.0,0.0,0.0,0.0,0.0,0.0,0.0,0.0,0.0,0.0,0.0,0.0,0.0,0.0,0.0,0.0,0.0,0.0,0.0,0.0,0.0,0.0,0.0,0.0,0.0,0.0,0.0,0.0,0.0,0.0,0.0,0.0,0.0,0.0,0.0,0.0,0.0,0.0,0.0,0.0,0.0,0.0,0.0,0.0,0.0,0.0,0.0,0.0,0.0,0.0,0.0,0.0,0.0,0.0,0.0,0.0,0.0,0.0,0.0,0.0,0.0,0.0,0.0,0.0,0.0,0.0,0.0,0.0,0.0,0.0,0.0,0.0,0.0,0.0,0.0,0.0,0.0,0.0,0.0,0.0,0.0,0.0,0.0,0.0,0.0,0.0,0.0,0.0,0.0,0.0,0.0,0.0,0.0,0.0,0.0,0.0,0.0,0.0,0.0,0.0,0.0,0.0,0.0,0.0,0.0,0.0,0.0,0.0,-2.3925,-2.3925,-2.3818,-2.3818,-2.3724,0.0,0.0,0.0,0.0,0.0,0.0,0.0,0.0,0.0,0.0,0.0,0.0,0.0,0.0,0.0,0.0,0.0,0.0,0.0,0.0,0.0,0.0,0.0,0.0,0.0,0.0,0.0,0.0,0.0,0.0,0.0,0.0,0.0,0.0,0.0,0.0,0.0,0.0,0.0,0.0,0.0,0.0,0.0,0.0,0.0,0.0,0.0,0.0,0.0,0.0,0.0,0.0,0.0,0.0,0.0,0.0,0.0,0.0,0.0,0.0,0.0,0.0,0.0,0.0,0.0,0.0,0.0,0.0,0.0,0.0,0.0,0.0,0.0,0.0,0.0,0.0,0.0,0.0,0.0,0.0,0.0,0.0,0.0,0.0,0.0,0.0,0.0,0.0,0.0,0.0,0.0,0.0,0.0,0.0,0.0,0.0,0.0,0.0,0.0,0.0,0.0,0.0,0.0,0.0,0.0,0.0,0.0,0.0,0.0,-2.3618,-2.3581,-2.3538,-2.3494,-2.348,-2.3458,0.0,0.0,0.0,0.0,0.0,0.0,0.0,0.0,0.0,0.0,0.0,0.0,0.0,0.0,0.0,0.0,0.0,0.0,0.0,0.0,0.0,0.0,0.0,0.0,0.0,0.0,0.0,0.0,0.0,0.0,0.0,0.0,0.0,0.0,0.0,0.0,0.0,0.0,0.0,0.0,0.0,0.0,0.0,0.0,0.0,0.0,0.0,0.0,0.0,0.0,0.0,0.0,0.0,0.0,0.0,0.0,0.0,0.0,0.0,0.0,0.0,0.0,0.0,0.0,0.0,0.0,0.0,0.0,0.0,0.0,0.0,0.0,0.0,0.0,0.0,0.0,0.0,0.0,0.0,0.0,0.0,0.0,0.0,0.0,0.0,0.0,0.0,0.0,0.0,0.0,0.0,0.0,0.0,0.0,0.0,0.0,0.0,0.0,0.0,0.0,0.0,0.0,0.0,0.0,0.0,0.0,0.0,0.0,0.0,-2.3024,0.0,-2.3113,0.0,-2.3098,-2.3231,0.0,0.0,0.0,0.0,0.0,0.0,0.0,0.0,0.0,0.0,0.0,0.0,0.0,0.0,0.0,0.0,0.0,0.0,0.0,0.0,0.0,0.0,0.0,0.0,0.0,0.0,0.0,0.0,0.0,0.0,0.0,0.0,0.0,0.0,0.0,0.0,0.0,0.0,0.0,0.0,0.0,0.0,0.0,0.0,0.0,0.0,0.0,0.0,0.0,0.0,0.0,0.0,0.0,0.0,0.0,0.0,0.0,0.0,0.0,0.0,0.0,0.0,0.0,0.0,0.0,0.0,0.0,0.0,0.0,0.0,0.0,0.0,0.0,0.0,0.0,0.0,0.0,0.0,0.0,0.0,0.0,0.0,0.0,0.0,0.0,0.0,0.0,0.0,0.0,0.0,0.0,0.0,0.0,0.0,0.0,0.0,0.0,0.0,0.0,0.0,0.0,0.0,0.0,0.0,0.0,0.0,0.0,0.0,-2.2732,-2.2083,-2.2688,-2.2666,-2.2033,-2.2666,-2.2987,0.0,0.0,0.0,0.0,0.0,0.0,0.0,0.0,0.0,0.0,0.0,0.0,0.0,0.0,0.0,0.0,0.0,0.0,0.0,0.0,0.0,0.0,0.0,0.0,0.0,0.0,0.0,0.0,0.0,0.0,0.0,0.0,0.0,0.0,0.0,0.0,0.0,0.0,0.0,0.0,0.0,0.0,0.0,0.0,0.0,0.0,0.0,0.0,0.0,0.0,0.0,0.0,0.0,0.0,0.0,0.0,0.0,0.0,0.0,0.0,0.0,0.0,0.0,0.0,0.0,0.0,0.0,0.0,0.0,0.0,0.0,0.0,0.0,0.0,0.0,0.0,0.0,0.0,0.0,0.0,0.0,0.0,0.0,0.0,0.0,0.0,0.0,0.0,0.0,0.0,0.0,0.0,0.0,0.0,0.0,0.0,0.0,0.0,0.0,0.0,0.0,0.0,0.0,0.0,0.0,0.0,0.0,0.0,0.0,-2.1516,-2.134,-2.1326,-2.151,-2.1664,-2.1954,0.0,0.0,0.0,0.0,0.0,0.0,0.0,0.0,0.0,0.0,0.0,0.0,0.0,0.0,0.0,0.0,0.0,0.0,0.0,0.0,0.0,0.0,0.0,0.0,0.0,0.0,0.0,0.0,0.0,0.0,0.0,0.0,0.0,0.0,0.0,0.0,0.0,0.0,0.0,0.0,0.0,0.0,0.0,0.0,0.0,0.0,0.0,0.0,0.0,0.0,0.0,0.0,0.0,0.0,0.0,0.0,0.0,0.0,0.0,0.0,0.0,0.0,0.0,0.0,0.0,0.0,0.0,0.0,0.0,0.0,0.0,0.0,0.0,0.0,0.0,0.0,0.0,0.0,0.0,0.0,0.0,0.0,0.0,0.0,0.0,0.0,0.0,0.0,0.0,0.0,0.0,0.0,0.0,0.0,0.0,0.0,0.0,0.0,0.0,0.0,0.0,0.0,0.0,0.0,0.0,0.0,0.0,0.0,0.0,-2.0338,-2.048,-2.058,-2.0685,-2.0927,-2.1299,-2.1775,0.0,0.0,0.0,0.0,0.0,0.0,0.0,0.0,0.0,0.0,0.0,0.0,0.0,0.0,0.0,0.0,0.0,0.0,0.0,0.0,0.0,0.0,0.0,0.0,0.0,0.0,0.0,0.0,0.0,0.0,0.0,0.0,0.0,0.0,0.0,0.0,0.0,0.0,0.0,0.0,0.0,0.0,0.0,0.0,0.0,0.0,0.0,0.0,0.0,0.0,0.0,0.0,0.0,0.0,0.0,0.0,0.0,0.0,0.0,0.0,0.0,0.0,0.0,0.0,0.0,0.0,0.0,0.0,0.0,0.0,0.0,0.0,0.0,0.0,0.0,0.0,0.0,0.0,0.0,0.0,0.0,0.0,0.0,0.0,0.0,0.0,0.0,0.0,0.0,0.0,0.0,0.0,0.0,0.0,0.0,0.0,0.0,0.0,0.0,0.0,0.0,0.0,0.0,0.0,0.0,0.0,0.0,0.0,-1.8647,-1.9937,-2.0284,-1.9714,-2.0452,-2.0991,0.0,0.0,0.0,0.0,0.0,0.0,0.0,0.0,0.0,0.0,0.0,0.0,0.0,0.0,0.0,0.0,0.0,0.0,0.0,0.0,0.0,0.0,0.0,0.0,0.0,0.0,0.0,0.0,0.0,0.0,0.0,0.0,0.0,0.0,0.0,0.0,0.0,0.0,0.0,0.0,0.0,0.0,0.0,0.0,0.0,0.0,0.0,0.0,0.0,0.0,0.0,0.0,0.0,0.0,0.0,0.0,0.0,0.0,0.0,0.0,0.0,0.0,0.0,0.0,0.0,0.0,0.0,0.0,0.0,0.0,0.0,0.0,0.0,0.0,0.0,0.0,0.0,0.0,0.0,0.0,0.0,0.0,0.0,0.0,0.0,0.0,0.0,0.0,0.0,0.0,0.0,0.0,0.0,0.0,0.0,0.0,0.0,0.0,0.0,0.0,0.0,0.0,0.0,0.0,0.0,0.0,0.0,0.0,0.0,-1.8005,-1.8335,-1.8712,-1.9106,-1.9429,-1.9957,0.0,0.0,0.0,0.0,0.0,0.0,0.0,0.0,0.0,0.0,0.0,0.0,0.0,0.0,0.0,0.0,0.0,0.0,0.0,0.0,0.0,0.0,0.0,0.0,0.0,0.0,0.0,0.0,0.0,0.0,0.0,0.0,0.0,0.0,0.0,0.0,0.0,0.0,0.0,0.0,0.0,0.0,0.0,0.0,0.0,0.0,0.0,0.0,0.0,0.0,0.0,0.0,0.0,0.0,0.0,0.0,0.0,0.0,0.0,0.0,0.0,0.0,0.0,0.0,0.0,0.0,0.0,0.0,0.0,0.0,0.0,0.0,0.0,0.0,0.0,0.0,0.0,0.0,0.0,0.0,0.0,0.0,0.0,0.0,0.0,0.0,0.0,0.0,0.0,0.0,0.0,0.0,0.0,0.0,0.0,0.0,0.0,0.0,0.0,0.0,0.0,0.0,0.0,0.0,0.0,0.0,0.0,0.0,-1.8125,-1.7727,-1.7654,-1.7947,-1.8616,-1.8813,-1.9269,0.0,0.0,0.0,0.0,0.0,0.0,0.0,0.0,0.0,0.0,0.0,0.0,0.0,0.0,0.0,0.0,0.0,0.0,0.0,0.0,0.0,0.0,0.0,0.0,0.0,0.0,0.0,0.0,0.0,0.0,0.0,0.0,0.0,0.0,0.0,0.0,0.0,0.0,0.0,0.0,0.0,0.0,0.0,0.0,0.0,0.0,0.0,0.0,0.0,0.0,0.0,0.0,0.0,0.0,0.0,0.0,0.0,0.0,0.0,0.0,0.0,0.0,0.0,0.0,0.0,0.0,0.0,0.0,0.0,0.0,0.0,0.0,0.0,0.0,0.0,0.0,0.0,0.0,0.0,0.0,0.0,0.0,0.0,0.0,0.0,0.0,0.0,0.0,0.0,0.0,0.0,0.0,0.0,0.0,0.0,0.0,0.0,0.0,0.0,0.0,0.0,0.0,0.0,0.0,0.0,0.0,0.0,0.0,-1.7688,-1.7624,-1.7533,-1.7686,-1.8198,-1.8464,-1.8857,0.0,0.0,0.0,0.0,0.0,0.0,0.0,0.0,0.0,0.0,0.0,0.0,0.0,0.0,0.0,0.0,0.0,0.0,0.0,0.0,0.0,0.0,0.0,0.0,0.0,0.0,0.0,0.0,0.0,0.0,0.0,0.0,0.0,0.0,0.0,0.0,0.0,0.0,0.0,0.0,0.0,0.0,0.0,0.0,0.0,0.0,0.0,0.0,0.0,0.0,0.0,0.0,0.0,0.0,0.0,0.0,0.0,0.0,0.0,0.0,0.0,0.0,0.0,0.0,0.0,0.0,0.0,0.0,0.0,0.0,0.0,0.0,0.0,0.0,0.0,0.0,0.0,0.0,0.0,0.0,0.0,0.0,0.0,0.0,0.0,0.0,0.0,0.0,0.0,0.0,0.0,0.0,0.0,0.0,0.0,0.0,0.0,0.0,0.0,0.0,0.0,0.0,0.0,0.0,0.0,0.0,0.0,0.0,-1.7636,-1.7155,-1.7205,-1.7317,-1.743,-1.8302,-1.8941,0.0,0.0,0.0,0.0,0.0,0.0,0.0,0.0,0.0,0.0,0.0,0.0,0.0,0.0,0.0,0.0,0.0,0.0,0.0,0.0,0.0,0.0,0.0,0.0,0.0,0.0,0.0,0.0,0.0,0.0,0.0,0.0,0.0,0.0,0.0,0.0,0.0,0.0,0.0,0.0,0.0,0.0,0.0,0.0,0.0,0.0,0.0,0.0,-2.1895,0.0,0.0,0.0,0.0,0.0,0.0,0.0,0.0,0.0,0.0,0.0,0.0,0.0,0.0,0.0,0.0,0.0,0.0,0.0,0.0,0.0,0.0,0.0,0.0,0.0,0.0,0.0,0.0,0.0,0.0,0.0,0.0,0.0,0.0,0.0,0.0,0.0,0.0,0.0,0.0,0.0,0.0,0.0,0.0,0.0,0.0,0.0,0.0,0.0,0.0,0.0,0.0,0.0,0.0,0.0,0.0,0.0,0.0,0.0,-1.7671,-1.7503,-1.7444,-1.7506,-1.7708,-1.8199,-1.863,0.0,0.0,0.0,0.0,0.0,0.0,0.0,0.0,0.0,0.0,0.0,0.0,0.0,0.0,0.0,0.0,0.0,0.0,0.0,0.0,0.0,0.0,0.0,0.0,0.0,0.0,0.0,0.0,0.0,0.0,0.0,0.0,0.0,0.0,0.0,0.0,0.0,0.0,0.0,0.0,0.0,0.0,0.0,0.0,0.0,0.0,0.0,0.0,0.0,0.0,0.0,0.0,0.0,0.0,0.0,0.0,0.0,0.0,0.0,0.0,0.0,0.0,0.0,0.0,0.0,0.0,0.0,0.0,0.0,0.0,0.0,0.0,0.0,0.0,0.0,0.0,0.0,0.0,0.0,0.0,0.0,0.0,0.0,0.0,0.0,0.0,0.0,0.0,0.0,0.0,0.0,0.0,0.0,0.0,0.0,0.0,0.0,0.0,0.0,0.0,0.0,0.0,0.0,0.0,0.0,0.0,0.0,-1.801,-1.7786,-1.8083,-1.7805,-1.786,-1.8283,-1.8121,-1.818,-1.8558,0.0,0.0,0.0,0.0,0.0,0.0,0.0,0.0,0.0,0.0,0.0,0.0,0.0,0.0,0.0,0.0,0.0,0.0,0.0,0.0,0.0,0.0,0.0,0.0,0.0,0.0,0.0,0.0,0.0,0.0,0.0,0.0,0.0,0.0,0.0,0.0,0.0,0.0,-1.6701,-1.8226,0.0,0.0,0.0,0.0,0.0,0.0,0.0,0.0,-2.1494,0.0,0.0,0.0,0.0,0.0,0.0,0.0,0.0,0.0,0.0,0.0,0.0,0.0,0.0,0.0,0.0,0.0,0.0,0.0,0.0,0.0,0.0,0.0,0.0,0.0,0.0,0.0,0.0,0.0,0.0,0.0,0.0,0.0,0.0,0.0,0.0,0.0,0.0,0.0,0.0,0.0,0.0,0.0,0.0,0.0,0.0,0.0,0.0,0.0,0.0,0.0,0.0,0.0,0.0,0.0,0.0,-1.844,-1.8051,-1.7947,-1.8092,-1.7972,-1.8031,-1.8283,-1.7898,-1.7995,-1.8703,0.0,0.0,0.0,0.0,0.0,0.0,0.0,0.0,0.0,0.0,0.0,0.0,0.0,0.0,0.0,0.0,0.0,0.0,0.0,0.0,0.0,0.0,0.0,0.0,0.0,0.0,0.0,0.0,0.0,0.0,0.0,0.0,0.0,0.0,0.0,0.0,0.0,0.0,0.0,-1.803,-1.8763,0.0,0.0,0.0,0.0,0.0,0.0,0.0,0.0,-2.2029,0.0,0.0,0.0,0.0,0.0,0.0,0.0,0.0,0.0,0.0,0.0,0.0,0.0,0.0,0.0,0.0,0.0,0.0,0.0,0.0,0.0,0.0,0.0,0.0,0.0,0.0,0.0,0.0,0.0,0.0,0.0,0.0,0.0,0.0,0.0,0.0,0.0,0.0,0.0,0.0,0.0,0.0,0.0,0.0,0.0,0.0,0.0,0.0,0.0,0.0,0.0,0.0,0.0,0.0,0.0,-1.8334,-1.7962,-1.7882,-1.8197,-1.8069,-1.8076,-1.8283,-1.7834,-1.7986,0.0,0.0,0.0,0.0,0.0,0.0,0.0,0.0,0.0,0.0,0.0,0.0,0.0,0.0,0.0,0.0,0.0,0.0,0.0,0.0,0.0,0.0,0.0,0.0,0.0,0.0,0.0,0.0,0.0,0.0,0.0,0.0,0.0,0.0,0.0,0.0,0.0,0.0,0.0,0.0,-1.8122,-1.8666,-1.9168,0.0,0.0,0.0,0.0,0.0,0.0,-2.1392,-2.1687,0.0,0.0,0.0,0.0,0.0,0.0,0.0,0.0,0.0,0.0,0.0,0.0,0.0,0.0,0.0,0.0,0.0,0.0,0.0,0.0,0.0,0.0,0.0,0.0,0.0,0.0,0.0,0.0,0.0,0.0,0.0,0.0,0.0,0.0,0.0,0.0,0.0,0.0,0.0,0.0,0.0,0.0,0.0,0.0,0.0,0.0,0.0,0.0,0.0,0.0,0.0,0.0,0.0,0.0,0.0,-1.8239,-1.776,-1.7762,-1.8254,-1.811,-1.807,-1.8198,-1.7816,-1.7934,0.0,0.0,0.0,0.0,0.0,0.0,0.0,0.0,0.0,0.0,0.0,0.0,0.0,0.0,0.0,0.0,0.0,0.0,0.0,0.0,0.0,0.0,0.0,0.0,0.0,0.0,0.0,0.0,0.0,0.0,0.0,0.0,0.0,0.0,0.0,0.0,0.0,0.0,0.0,0.0,0.0,-1.8611,-1.8935,-1.9154,0.0,0.0,0.0,0.0,-2.0864,-2.1094,0.0,0.0,0.0,0.0,0.0,0.0,0.0,0.0,0.0,0.0,0.0,0.0,0.0,0.0,0.0,0.0,0.0,0.0,0.0,0.0,0.0,0.0,0.0,0.0,0.0,0.0,0.0,0.0,0.0,0.0,0.0,0.0,0.0,0.0,0.0,0.0,0.0,0.0,0.0,0.0,0.0,0.0,0.0,0.0,0.0,0.0,0.0,0.0,0.0,0.0,0.0,0.0,0.0,0.0,0.0,0.0,-1.8097,-1.7564,-1.76,-1.8254,-1.811,-1.7967,-1.7953,-1.7726,-1.7776,0.0,0.0,0.0,0.0,0.0,0.0,0.0,0.0,0.0,0.0,0.0,0.0,0.0,0.0,0.0,0.0,0.0,0.0,0.0,0.0,0.0,0.0,0.0,0.0,0.0,0.0,0.0,0.0,0.0,0.0,0.0,0.0,0.0,0.0,0.0,0.0,0.0,0.0,0.0,0.0,0.0,-1.8128,-1.8359,-1.8571,-1.8718,0.0,0.0,-1.9443,-2.0042,-2.0582,0.0,0.0,0.0,0.0,0.0,0.0,0.0,0.0,0.0,0.0,0.0,0.0,0.0,0.0,0.0,0.0,0.0,0.0,0.0,0.0,0.0,0.0,0.0,0.0,0.0,0.0,0.0,0.0,0.0,0.0,0.0,0.0,0.0,0.0,0.0,0.0,0.0,0.0,0.0,0.0,0.0,0.0,0.0,0.0,0.0,0.0,0.0,0.0,0.0,0.0,0.0,0.0,0.0,0.0,0.0,-1.7485,-1.7791,-1.7346,-1.7439,-1.8094,-1.8042,-1.7904,-1.7733,-1.7569,-1.7623,0.0,0.0,0.0,0.0,0.0,0.0,0.0,0.0,0.0,0.0,0.0,0.0,0.0,0.0,0.0,0.0,0.0,0.0,0.0,0.0,0.0,0.0,0.0,0.0,0.0,0.0,0.0,0.0,0.0,0.0,0.0,0.0,0.0,0.0,0.0,0.0,0.0,0.0,0.0,0.0,0.0,0.0,-1.8175,-1.8068,0.0,0.0,0.0,-1.938,-2.043,0.0,0.0,0.0,0.0,0.0,0.0,0.0,0.0,0.0,0.0,0.0,0.0,0.0,0.0,0.0,0.0,0.0,0.0,0.0,0.0,0.0,0.0,0.0,0.0,0.0,0.0,0.0,0.0,0.0,0.0,0.0,0.0,0.0,0.0,0.0,0.0,0.0,0.0,0.0,0.0,0.0,0.0,0.0,0.0,0.0,0.0,0.0,0.0,0.0,0.0,0.0,0.0,0.0,0.0,0.0,0.0,0.0,-1.7554,-1.7118,-1.7278,-1.7969,-1.8008,-1.7821,-1.7466,-1.7414,0.0,0.0,0.0,0.0,0.0,0.0,0.0,0.0,0.0,0.0,0.0,0.0,0.0,0.0,0.0,0.0,0.0,0.0,0.0,0.0,0.0,0.0,0.0,0.0,0.0,0.0,0.0,-1.56,0.0,0.0,0.0,0.0,0.0,0.0,0.0,0.0,0.0,0.0,0.0,0.0,0.0,0.0,-1.7086,-1.7738,-1.7516,-1.7597,0.0,0.0,-1.9226,-2.056,-2.0709,-2.075,0.0,0.0,0.0,0.0,0.0,0.0,0.0,0.0,0.0,0.0,0.0,0.0,0.0,0.0,0.0,0.0,0.0,0.0,0.0,0.0,0.0,0.0,0.0,0.0,0.0,0.0,0.0,0.0,0.0,0.0,0.0,0.0,0.0,0.0,0.0,0.0,0.0,0.0,0.0,0.0,0.0,0.0,0.0,0.0,0.0,0.0,0.0,0.0,0.0,0.0,0.0,0.0,0.0,0.0,0.0,-1.7379,-1.6971,-1.7158,-1.7969,-1.8008,-1.7707,-1.7082,-1.7284,-1.7224,0.0,0.0,0.0,0.0,0.0,0.0,0.0,0.0,0.0,0.0,0.0,0.0,0.0,0.0,0.0,0.0,0.0,0.0,0.0,0.0,0.0,0.0,0.0,0.0,0.0,0.0,0.0,0.0,0.0,0.0,0.0,0.0,0.0,0.0,0.0,0.0,0.0,0.0,0.0,0.0,0.0,-1.6332,-1.6849,-1.6946,-1.7052,0.0,0.0,-1.8734,-1.9664,-2.0209,-2.0648,-2.1012,0.0,0.0,0.0,0.0,0.0,0.0,0.0,0.0,0.0,0.0,0.0,0.0,0.0,0.0,0.0,0.0,0.0,0.0,0.0,0.0,0.0,0.0,0.0,0.0,0.0,0.0,0.0,0.0,0.0,0.0,0.0,0.0,0.0,0.0,0.0,0.0,0.0,0.0,0.0,0.0,0.0,0.0,0.0,0.0,0.0,0.0,0.0,0.0,0.0,0.0,0.0,0.0,0.0,-1.7156,-1.7409,-1.7206,-1.7412,-1.7978,-1.8008,-1.7758,-1.7278,-1.7173,-1.7083,0.0,0.0,0.0,0.0,0.0,0.0,0.0,0.0,0.0,0.0,0.0,0.0,0.0,0.0,0.0,0.0,0.0,0.0,0.0,0.0,0.0,0.0,0.0,0.0,0.0,0.0,0.0,0.0,-1.5089,-1.4647,-1.4142,0.0,0.0,0.0,0.0,0.0,0.0,0.0,0.0,0.0,0.0,-1.5786,-1.6227,-1.6331,0.0,0.0,-1.7739,-1.8523,-1.9654,-1.9824,-1.9961,-2.0457,-2.0227,0.0,0.0,0.0,0.0,0.0,0.0,0.0,0.0,0.0,0.0,0.0,0.0,0.0,0.0,0.0,0.0,0.0,0.0,0.0,0.0,0.0,0.0,0.0,0.0,0.0,0.0,0.0,0.0,0.0,0.0,0.0,0.0,0.0,0.0,0.0,0.0,0.0,0.0,0.0,0.0,0.0,0.0,0.0,0.0,0.0,0.0,0.0,0.0,0.0,0.0,0.0,0.0,-1.7183,-1.7264,-1.7342,-1.7611,-1.8008,-1.8008,-1.7812,-1.7393,-1.7145,-1.6959,0.0,0.0,0.0,0.0,0.0,0.0,0.0,0.0,0.0,0.0,0.0,0.0,0.0,0.0,0.0,0.0,0.0,0.0,0.0,0.0,0.0,0.0,0.0,0.0,0.0,0.0,0.0,0.0,-1.4371,-1.3773,-1.3268,0.0,0.0,0.0,0.0,0.0,0.0,0.0,0.0,0.0,0.0,-1.5148,-1.5714,-1.5843,-1.6137,-1.6987,-1.7466,-1.8177,-1.9368,-1.9462,-1.9556,-2.0069,0.0,0.0,0.0,0.0,0.0,0.0,0.0,0.0,0.0,0.0,0.0,0.0,0.0,0.0,0.0,0.0,0.0,0.0,0.0,0.0,0.0,0.0,0.0,0.0,0.0,0.0,0.0,-1.8139,0.0,0.0,-1.8226,0.0,0.0,0.0,0.0,0.0,0.0,0.0,0.0,0.0,0.0,0.0,0.0,0.0,0.0,0.0,0.0,0.0,0.0,0.0,0.0,0.0,0.0,-1.6992,-1.7034,-1.7265,-1.7598,-1.7998,-1.8008,-1.7812,-1.7402,-1.7155,-1.6835,-1.6538,0.0,0.0,0.0,0.0,0.0,0.0,0.0,0.0,0.0,0.0,0.0,0.0,0.0,0.0,0.0,0.0,0.0,0.0,0.0,0.0,0.0,0.0,0.0,0.0,0.0,0.0,-1.4249,-1.339,-1.2773,0.0,0.0,0.0,0.0,0.0,0.0,0.0,0.0,0.0,0.0,-1.4037,-1.44,-1.5192,-1.5431,-1.5792,-1.6534,-1.7044,-1.7645,-1.8681,-1.9097,-1.948,0.0,0.0,0.0,0.0,0.0,0.0,0.0,0.0,0.0,0.0,0.0,0.0,0.0,0.0,0.0,0.0,0.0,0.0,0.0,0.0,0.0,0.0,0.0,0.0,0.0,0.0,0.0,-1.9889,-1.9547,0.0,0.0,0.0,0.0,0.0,0.0,0.0,0.0,0.0,0.0,0.0,-1.5228,-1.5372,0.0,0.0,0.0,0.0,0.0,0.0,0.0,0.0,0.0,0.0,0.0,0.0,-1.7081,-1.7032,-1.753,-1.7871,-1.7998,-1.8008,-1.7949,-1.7793,-1.7448,-1.6975,-1.6397,0.0,0.0,0.0,0.0,0.0,0.0,0.0,0.0,0.0,0.0,0.0,0.0,0.0,0.0,0.0,0.0,0.0,0.0,0.0,0.0,0.0,0.0,0.0,0.0,0.0,-1.4031,0.0,0.0,0.0,0.0,0.0,0.0,0.0,0.0,0.0,0.0,0.0,-1.3035,-1.3496,-1.3909,-1.4392,-1.5009,-1.5363,-1.573,0.0,0.0,0.0,0.0,0.0,0.0,0.0,0.0,0.0,0.0,0.0,0.0,0.0,0.0,-1.8727,-1.98,-1.9806,-1.965,-1.9689,0.0,0.0,0.0,0.0,0.0,0.0,0.0,0.0,0.0,0.0,0.0,0.0,0.0,0.0,-2.0419,0.0,-1.9605,0.0,0.0,0.0,0.0,0.0,0.0,0.0,0.0,-1.4564,-1.4572,-1.5002,-1.5263,-1.5689,0.0,-1.6732,-1.6968,0.0,0.0,0.0,0.0,0.0,0.0,0.0,0.0,-1.7075,-1.6957,-1.7644,-1.8008,-1.8008,-1.8008,-1.8008,-1.8008,-1.7607,-1.6958,-1.6029,-1.6097,-1.6032,0.0,0.0,0.0,0.0,0.0,0.0,0.0,0.0,0.0,0.0,0.0,0.0,0.0,0.0,0.0,0.0,0.0,0.0,0.0,0.0,0.0,0.0,0.0,-1.3186,0.0,0.0,0.0,0.0,0.0,0.0,0.0,0.0,0.0,-1.1694,-1.2309,-1.2819,-1.3133,-1.3631,-1.4191,-1.4799,0.0,0.0,0.0,0.0,0.0,0.0,0.0,-1.7842,-1.8256,-1.8056,-1.7842,-1.8032,-1.7988,-1.7952,-1.8236,0.0,0.0,-1.9198,-1.9186,-1.9059,-1.9042,-1.9401,-1.9698,-1.9855,-2.0103,-2.0319,0.0,0.0,0.0,0.0,0.0,0.0,0.0,0.0,-2.0807,-2.0625,0.0,-1.9651,0.0,0.0,0.0,0.0,0.0,-1.5162,0.0,0.0,-1.4198,-1.4387,-1.4998,-1.5422,-1.5704,-1.5979,-1.6516,-1.6773,-1.6768,-1.6931,0.0,0.0,0.0,0.0,0.0,0.0,-1.6896,-1.6787,-1.7588,-1.8008,-1.8008,-1.8008,-1.8008,-1.7998,-1.7607,-1.6797,-1.5586,-1.6019,-1.5891,-1.5117,-1.5607,0.0,0.0,0.0,0.0,0.0,0.0,0.0,0.0,0.0,0.0,0.0,0.0,0.0,0.0,0.0,0.0,0.0,0.0,0.0,0.0,-1.2875,0.0,0.0,0.0,0.0,0.0,0.0,0.0,0.0,0.0,0.0,-1.1324,-1.1896,-1.24,-1.2672,0.0,0.0,0.0,0.0,-1.579,-1.6579,-1.6683,-1.6884,-1.7362,-1.7403,-1.7493,-1.7727,0.0,0.0,-1.8143,-1.815,-1.8245,-1.8564,-1.86,-1.8489,-1.7953,-1.8086,-1.8172,-1.8164,-1.8519,-1.8726,-1.8716,-1.901,-1.9151,-1.6779,0.0,0.0,0.0,0.0,-2.0275,-2.0639,-2.034,-2.0988,-2.0828,-2.0068,-1.9493,0.0,0.0,0.0,0.0,0.0,0.0,-1.5189,-1.4835,-1.4615,-1.4668,-1.5027,-1.5411,-1.6017,-1.6762,-1.7397,-1.76,-1.7432,-1.7619,-1.7274,-1.6446,0.0,0.0,0.0,0.0,-1.6917,-1.7217,-1.7734,-1.8008,-1.8008,-1.8008,-1.8008,-1.8008,-1.7607,-1.7207,-1.6836,-1.64,-1.6038,-1.5802,-1.5635,0.0,0.0,0.0,0.0,0.0,0.0,0.0,0.0,0.0,0.0,0.0,0.0,0.0,0.0,0.0,0.0,0.0,0.0,0.0,-1.3043,-1.2615,-1.22,0.0,0.0,0.0,0.0,0.0,0.0,0.0,0.0,0.0,-1.0081,-1.0965,-1.185,0.0,0.0,-1.3567,-1.4555,-1.5173,-1.579,-1.6585,-1.6854,0.0,-1.7422,-1.7478,-1.7471,-1.757,-1.7499,-1.7432,-1.7489,-1.7479,-1.7575,-1.7863,-1.7918,-1.7829,-1.7756,-1.8153,-1.8432,-1.8296,-1.8466,-1.8688,-1.8711,-1.9106,-1.9534,-1.6372,-1.6782,-1.7581,-1.8108,-1.8551,-2.0003,-2.0463,-2.0213,-2.0749,-2.0564,-1.982,-1.9145,-1.8647,-1.8198,-1.7389,0.0,0.0,0.0,-1.5257,-1.5059,-1.5074,-1.5142,-1.5295,-1.5723,-1.6273,-1.6992,-1.762,-1.7944,-1.7988,-1.8062,-1.7813,-1.7219,0.0,0.0,-1.6471,-1.6966,-1.733,-1.7646,-1.8144,-1.8385,-1.8411,-1.8186,-1.7977,-1.7813,-1.7562,-1.7392,-1.7274,-1.677,-1.6385,-1.6114,-1.584,-1.5556,0.0,0.0,0.0,0.0,0.0,0.0,0.0,0.0,0.0,0.0,0.0,-1.4201,-1.3881,0.0,0.0,0.0,-1.2911,-1.2656,-1.2419,-1.216,0.0,0.0,0.0,0.0,0.0,0.0,0.0,-0.9187,-0.9332,-0.9469,-0.9572,-1.0491,-1.1461,-1.2337,-1.2919,-1.3631,-1.4567,0.0,-1.6008,-1.6608,-1.695,-1.7191,-1.7335,-1.7385,-1.742,-1.7544,-1.7418,-1.7319,-1.7333,-1.7373,-1.744,-1.7535,-1.7589,-1.7589,-1.7589,-1.795,-1.8196,-1.8006,-1.8112,-1.829,-1.8407,-1.8815,-1.9309,-1.6349,-1.6411,-1.7372,-1.7935,-1.8238,-1.9736,-2.0235,-2.0056,-2.0268,-2.0018,-1.9333,-1.8702,-1.8032,-1.7285,-1.6116,0.0,-1.5709,-1.5334,-1.5274,-1.5433,-1.5658,-1.5795,-1.5812,-1.6226,-1.6571,-1.6832,-1.7431,-1.7929,-1.8369,-1.837,-1.8349,-1.8318,-1.7354,-1.6828,-1.6828,-1.7566,-1.8008,-1.8012,-1.86,-1.8894,-1.8894,-1.833,-1.7861,-1.7492,-1.7455,-1.7315,-1.7134,-1.7077,-1.679,-1.6221,-1.6133,-1.5837,-1.5263,0.0,0.0,0.0,0.0,0.0,0.0,0.0,0.0,0.0,0.0,0.0,0.0,0.0,0.0,0.0,-1.2183,0.0,-1.1915,-1.1675,0.0,0.0,0.0,-1.0404,-0.9725,-0.9363,-0.915,-0.9056,0.0,0.0,-0.962,-1.0423,-1.1178,-1.195,-1.2888,-1.3806,-1.4586,-1.5571,-1.638,-1.664,-1.6907,-1.7159,-1.7156,-1.7163,-1.7257,-1.7467,-1.7549,-1.7568,-1.7555,-1.7569,-1.7582,-1.7582,-1.7589,-1.7589,-1.7589,-1.7628,-1.7589,-1.7615,-1.7621,-1.7733,-1.7996,-1.8318,-1.8788,-1.6254,-1.6325,-1.7308,-1.7877,-1.8194,-1.9583,-1.9843,-1.9393,-1.9869,-1.9428,-1.8316,-1.7953,-1.7539,-1.7064,-1.6629,-1.6548,-1.6726,-1.6641,-1.685,-1.7235,-1.7328,-1.7132,-1.6691,-1.6791,-1.682,-1.6774,-1.7364,-1.7926,-1.8348,-1.8816,-1.8909,-1.8615,-1.8347,-1.7963,-1.7511,-1.7654,-1.7872,-1.7999,-1.8156,-1.8175,-1.7999,-1.7633,-1.7351,-1.7215,-1.6941,-1.6904,-1.7154,-1.682,-1.6722,-1.6847,-1.6431,-1.5973,-1.5524,-1.509,0.0,0.0,0.0,0.0,0.0,0.0,0.0,0.0,0.0,-1.3128,-1.2444,0.0,-1.2649,0.0,-1.2246,-1.2348,-1.2141,-1.2205,0.0,0.0,-1.0745,-1.0209,-0.9357,-0.9056,-0.8817,-0.86,-0.8814,-0.9119,-0.9436,-1.0439,-1.1429,-1.2198,-1.3028,-1.3806,-1.4604,-1.5454,-1.6078,-1.6357,-1.6633,-1.6807,-1.682,-1.6807,-1.6921,-1.7253,-1.73,-1.738,-1.7549,-1.7589,-1.7589,-1.7589,-1.7589,-1.7589,-1.7589,-1.7589,-1.7589,-1.7589,-1.7589,-1.7687,-1.7964,-1.837,-1.9034,-1.6272,-1.6454,-1.72,-1.7689,-1.7995,-1.9203,-1.9491,-1.9146,-1.9239,-1.8759,-1.7773,-1.7169,-1.68,-1.6683,-1.647,-1.6639,-1.7115,-1.7334,-1.7692,-1.8178,-1.8308,-1.8021,-1.7333,-1.6978,-1.678,-1.6685,-1.6966,-1.747,-1.8189,-1.8816,-1.9025,-1.8851,-1.8813,-1.8464,-1.7727,-1.7867,-1.796,-1.8017,-1.7997,-1.7767,-1.7324,-1.7095,-1.6828,-1.6491,-1.6383,-1.644,-1.6647,-1.6508,-1.6511,-1.6736,-1.6431,-1.5993,-1.5409,-1.4939,-1.4397,0.0,0.0,0.0,0.0,0.0,0.0,0.0,0.0,0.0,0.0,0.0,-1.2427,-1.2116,-1.2356,-1.2408,-1.2203,-1.208,-1.1677,-1.0778,-1.0386,-0.9828,-0.8991,-0.8811,-0.8724,-0.8672,-0.9092,-0.9529,-0.9999,-1.1118,-1.2116,-1.2786,-1.3661,-1.4346,-1.4856,-1.5548,-1.612,-1.6279,-1.652,-1.6707,-1.6707,-1.6707,-1.676,-1.6907,-1.6998,-1.7099,-1.7387,-1.744,-1.7481,-1.7555,-1.7589,-1.7589,-1.7589,-1.7589,-1.7589,-1.7635,-1.7687,-1.7852,-1.8115,-1.8736,-1.9509,-1.6353,-1.6636,-1.7099,-1.7473,-1.7768,-1.8589,-1.8958,-1.8958,-1.8527,-1.7995,-1.7349,-1.6398,-1.6135,-1.6343,-1.6186,-1.6543,-1.7245,-1.7774,-1.8256,-1.87,-1.8918,-1.8624,-1.7914,-1.7094,-1.6659,-1.6498,-1.6403,-1.6836,-1.7804,-1.8505,-1.8834,-1.8834,-1.8834,-1.8474,-1.7683,-1.7935,-1.7965,-1.7752,-1.7746,-1.7403,-1.6667,-1.661,-1.6276,-1.5671,-1.5745,-1.5839,-1.5859,-1.6017,-1.6148,-1.6245,-1.6184,-1.5826,-1.5096,-1.4726,-1.4173,0.0,-1.3083,0.0,0.0,0.0,0.0,0.0,0.0,0.0,0.0,-1.2061,-1.2213,-1.2637,-1.2618,-1.2484,-1.2327,-1.1863,-1.1185,-1.0311,-0.9946,-0.9451,-0.8744,-0.8741,-0.8855,-0.908,-0.9629,-1.0272,-1.0965,-1.2122,-1.3039,-1.3613,-1.449,-1.5077,-1.5191,-1.5757,-1.6192,-1.6268,-1.642,-1.652,-1.6533,-1.656,-1.6573,-1.6627,-1.6653,-1.6754,-1.7092,-1.7186,-1.7286,-1.7507,-1.7555,-1.7582,-1.7589,-1.7589,-1.7589,-1.7589,-1.7799,-1.8069,-1.8422,-1.9153,-2.0101,-1.6353,-1.6636,-1.7091,-1.7426,-1.7721,-1.766,-1.7807,-1.7955,-1.7878,-1.7336,-1.6458,-1.602,-1.608,-1.6546,-1.6747,-1.7211,-1.7934,-1.8621,-1.9167,-1.9627,-1.9673,-1.9281,-1.8511,-1.7772,-1.6926,-1.6078,-1.6167,-1.6415,-1.6706,-1.7529,-1.7942,-1.7934,-1.8112,-1.787,-1.7212,0.0,0.0,0.0,-1.6462,-1.6265,-1.5924,-1.5617,-1.5362,-1.5127,-1.4924,0.0,-1.5106,-1.5152,-1.5411,-1.5843,-1.5598,0.0,0.0,0.0,0.0,0.0,0.0,0.0,0.0,0.0,0.0,0.0,-1.3307,-1.3002,-1.2219,-1.2437,-1.2759,-1.3052,-1.3318,-1.3307,-1.289,-1.2595,-1.1968,-1.0895,-1.0374,-0.9786,-0.9045,-0.914,-0.942,-0.9796,-1.0449,-1.1293,-1.2209,-1.3136,-1.3859,-1.4388,-1.5022,-1.5397,-1.5404,-1.5695,-1.5912,-1.5919,-1.6005,-1.6012,-1.5999,-1.6019,-1.6132,-1.6273,-1.6353,-1.6466,-1.6734,-1.7045,-1.7192,-1.73,-1.7481,-1.7589,-1.7589,-1.7589,-1.7589,-1.7589,-1.7852,-1.8174,-1.8624,-1.9406,-2.0517,-1.6272,0.0,-1.6824,-1.7052,0.0,-1.7005,-1.6965,-1.6972,-1.6958,-1.6581,-1.5981,-1.5879,-1.6021,-1.6454,-1.6838,-1.734,-1.7932,-1.8681,-1.9196,-1.9554,-1.9409,-1.9045,-1.836,-1.7515,-1.6682,-1.6006,-1.5936,-1.595,-1.6148,-1.6885,-1.7178,-1.7041,-1.7253,-1.7057,-1.6394,-1.5726,-1.5484,-1.5616,-1.5616,-1.5484,-1.5228,-1.5034,-1.4764,-1.4411,-1.4359,0.0,0.0,0.0,0.0,0.0,0.0,0.0,0.0,0.0,0.0,-1.3028,-1.2904,-1.2908,-1.303,-1.3064,-1.3178,-1.3534,-1.3797,-1.3649,-1.2907,-1.3232,-1.3534,-1.3834,-1.3906,-1.3798,-1.3461,-1.2916,-1.2117,-1.1143,-1.0579,-1.0018,-0.947,-0.9636,-1.0059,-1.0583,-1.1389,-1.2268,-1.319,-1.401,-1.4634,-1.5016,-1.5404,-1.5635,-1.5642,-1.5737,-1.5825,-1.5825,-1.5825,-1.5825,-1.5825,-1.5825,-1.5865,-1.6025,-1.6052,-1.6172,-1.644,-1.6734,-1.7025,-1.7179,-1.744,-1.7635,-1.7589,-1.7589,-1.7635,-1.7799,-1.8108,-1.8624,-1.9294,-2.0019,-2.0988,-1.6177,-1.6218,-1.6447,-1.6534,-1.6588,-1.6534,-1.64,-1.6123,0.0,0.0,0.0,-1.5825,-1.5927,-1.6224,-1.669,-1.7153,-1.7606,-1.8311,-1.8727,-1.8912,-1.8703,-1.8388,-1.7932,-1.6963,-1.6352,-1.6021,-1.5725,-1.5662,-1.5749,-1.6344,-1.6557,-1.638,-1.6477,-1.6208,-1.5484,-1.4776,-1.4573,-1.4922,-1.4922,-1.4831,-1.4615,-1.4615,-1.4351,-1.3836,-1.3987,-1.3913,-1.3578,-1.3719,-1.3903,-1.4086,-1.405,-1.3976,-1.3873,-1.3819,-1.3706,-1.3369,-1.3404,-1.3438,-1.3353,-1.336,-1.3514,-1.3806,-1.4322,-1.4396,-1.3866,-1.4102,-1.4342,-1.4583,-1.4449,-1.4243,-1.4022,-1.3246,-1.2352,-1.1592,-1.1036,-1.0507,-1.0113,-1.0408,-1.0895,-1.1487,-1.2316,-1.3184,-1.3908,-1.4682,-1.5261,-1.5499,-1.5683,-1.5825,-1.5825,-1.5778,-1.5825,-1.5825,-1.5825,-1.5825,-1.5825,-1.5825,-1.5825,-1.5845,-1.5845,-1.5919,-1.6159,-1.6473,-1.678,-1.7001,-1.7341,-1.7549,-1.7589,-1.7589,-1.7694,-1.7964,-1.8422,-1.9086,-1.9975,-2.0739,-2.1696,-1.5981,-1.6224,-1.6224,-1.64,-1.6588,-1.6359,-1.613,-1.5879,-1.5879,-1.5832,-1.5825,-1.5825,-1.5927,-1.6224,-1.6501,-1.6824,-1.7113,-1.766,-1.7878,-1.7924,-1.787,-1.7692,-1.7372,-1.6868,-1.6339,-1.5879,-1.5725,-1.5593,-1.5459,-1.5874,-1.6066,-1.6031,-1.595,-1.5545,-1.488,-1.4524,-1.4363,-1.4257,-1.425,-1.4208,-1.4208,-1.4215,-1.4088,-1.3886,-1.3906,-1.3902,-1.3783,-1.38,-1.3885,-1.4079,-1.3924,-1.3917,-1.404,-1.3758,-1.3519,-1.3473,-1.3338,-1.3467,-1.3921,-1.3961,-1.4202,-1.476,-1.4901,-1.4908,-1.4834,-1.4861,-1.4901,-1.491,-1.4884,-1.4765,-1.4501,-1.3974,-1.3448,-1.2866,-1.2183,-1.1731,-1.1634,-1.1731,-1.1975,-1.2516,-1.3232,-1.3956,-1.449,-1.5112,-1.5493,-1.5689,-1.5784,-1.5825,-1.5825,-1.5825,-1.5825,-1.5825,-1.5825,-1.5825,-1.5825,-1.5825,-1.5825,-1.5825,-1.5825,-1.5845,-1.5912,-1.6339,-1.668,-1.6767,-1.7208,-1.7522,-1.7582,-1.7589,-1.7747,-1.7957,-1.8468,-1.919,-2.0285,-2.1428,-2.2732,-1.5879,-1.5974,-1.5974,-1.6069,-1.6163,-1.6021,-1.5933,-1.5825,-1.5825,-1.5825,-1.5825,-1.5825,-1.5879,-1.6028,-1.6258,-1.6454,-1.6602,-1.6958,-1.7091,-1.7091,-1.6951,-1.6817,-1.6683,-1.6353,-1.6048,-1.5825,-1.5779,-1.5624,-1.5406,-1.5697,-1.5749,-1.5634,-1.5562,-1.5341,-1.5042,-1.481,-1.4556,-1.4322,-1.4168,-1.4088,-1.4088,-1.4088,-1.399,-1.3736,-1.3729,-1.3669,-1.349,-1.3476,-1.3516,-1.3601,-1.3516,-1.3516,-1.3601,-1.3586,-1.3622,-1.3831,-1.3869,-1.4108,-1.4536,-1.471,-1.491,-1.5177,-1.5344,-1.5431,-1.5431,-1.5291,-1.5264,-1.5418,-1.5325,-1.5243,-1.5102,-1.4655,-1.4196,-1.3806,-1.3323,-1.299,-1.284,-1.2937,-1.3184,-1.3624,-1.416,-1.4688,-1.5064,-1.5452,-1.5689,-1.5778,-1.5825,-1.5825,-1.5825,-1.5825,-1.5825,-1.5825,-1.5825,-1.5825,-1.5825,-1.5825,-1.5825,-1.5825,-1.5825,-1.5825,-1.5845,-1.6213,-1.6493,-1.6693,-1.7074,-1.7375,-1.7542,-1.7589,-1.7793,-1.816,-1.8788,-1.9665,-2.0822,-2.2664,-2.4494,-1.5825,-1.5825,-1.5825,-1.5825,-1.5825,-1.5825,-1.5825,-1.5825,-1.5825,-1.5825,-1.5825,-1.5825,-1.5825,-1.5825,-1.6028,-1.613,-1.6123,-1.6305,-1.644,-1.6393,-1.6218,-1.6123,-1.6076,-1.5886,-1.5825,-1.5825,-1.5825,-1.5712,-1.5518,-1.5637,-1.5581,-1.5361,-1.5289,-1.53,-1.5232,-1.5098,-1.485,-1.4616,-1.4402,-1.4264,-1.4088,-1.4088,-1.3968,-1.3726,-1.3706,-1.3593,-1.342,-1.3414,-1.3407,-1.3407,-1.3407,-1.3434,-1.3507,-1.3673,-1.3933,-1.4262,-1.4496,-1.475,-1.5089,-1.5331,-1.5498,-1.5498,-1.5698,-1.5825,-1.5812,-1.5625,-1.5585,-1.5738,-1.5669,-1.5581,-1.548,-1.5153,-1.4777,-1.4586,-1.4244,-1.401,-1.3902,-1.3998,-1.4202,-1.449,-1.4927,-1.5267,-1.5452,-1.5689,-1.5784,-1.5778,-1.5825,-1.5825,-1.5825,-1.5825,-1.5825,-1.5825,-1.5825,-1.5825,-1.5825,-1.5825,-1.5825,-1.5825,-1.5825,-1.5825,-1.5838,-1.6119,-1.642,-1.67,-1.7072,-1.738,-1.7542,-1.7694,-1.7898,-1.8422,-1.9153,-2.0189,-2.1742,-2.3923,-2.5849,-1.5825,-1.5825,-1.5825,-1.5825,-1.5825,-1.5825,-1.5825,-1.5825,-1.5825,-1.5825,-1.5825,-1.5825,-1.5825,-1.5825,-1.5832,-1.5832,-1.5879,-1.5872,-1.5872,-1.592,-1.5825,-1.5832,-1.5832,-1.5825,-1.5825,-1.5825,-1.5825,-1.5812,-1.5765,-1.5772,-1.5638,-1.5437,-1.541,-1.5276,-1.5055,-1.5028,-1.5001,-1.4968,-1.4941,-1.4616,-1.4122,-1.4088,-1.4075,-1.4048,-1.4041,-1.4041,-1.3988,-1.4008,-1.4008,-1.4008,-1.4008,-1.4122,-1.4312,-1.4429,-1.4563,-1.485,-1.4955,-1.505,-1.5337,-1.5631,-1.5772,-1.5744,-1.5758,-1.5825,-1.5825,-1.5798,-1.5792,-1.5784,-1.5784,-1.5784,-1.5784,-1.554,-1.5397,-1.5309,-1.4927,-1.4694,-1.4838,-1.4736,-1.4742,-1.4981,-1.5267,-1.5493,-1.554,-1.5689,-1.5778,-1.5825,-1.5825,-1.5825,-1.5825,-1.5825,-1.5825,-1.5825,-1.5825,-1.5825,-1.5825,-1.5825,-1.5825,-1.5825,-1.5825,-1.5825,-1.5919,-1.6246,-1.668,-1.6714,-1.7128,-1.7514,-1.7601,-1.7799,-1.8115,-1.8677,-1.9606,-2.0798,-2.2957,-2.4877,-2.6148,-1.5825,-1.5825,-1.5825,-1.5825,-1.5825,-1.5825,-1.5825,-1.5825,-1.5825,-1.5825,-1.5825,-1.5825,-1.5825,-1.5825,-1.5825,-1.5825,-1.5825,-1.5825,-1.5825,-1.5825,-1.5825,-1.5825,-1.5825,-1.5825,-1.5825,-1.5825,-1.5825,-1.5825,-1.5825,-1.5825,-1.5765,-1.5665,-1.5651,-1.5591,-1.5478,-1.5478,-1.5391,-1.5276,-1.5224,-1.5023,-1.4687,-1.4436,-1.4262,-1.4102,-1.4088,-1.4175,-1.4322,-1.4342,-1.4422,-1.4626,-1.4609,-1.47,-1.4776,-1.4783,-1.491,-1.5197,-1.5384,-1.5524,-1.5598,-1.5765,-1.5825,-1.5825,-1.5825,-1.5825,-1.5825,-1.5825,-1.5825,-1.5825,-1.5825,-1.5825,-1.5778,-1.573,-1.5689,-1.5635,-1.5452,-1.5404,-1.5499,-1.5404,-1.5404,-1.5499,-1.5594,-1.5683,-1.5683,-1.573,-1.5778,-1.5825,-1.5825,-1.5825,-1.5825,-1.5825,-1.5825,-1.5825,-1.5825,-1.5825,-1.5825,-1.5825,-1.5825,-1.5825,-1.5825,-1.5825,-1.5899,-1.6146,-1.6486,-1.668,-1.7094,-1.7474,-1.7555,-1.7845,-1.8167,-1.8938,-2.0526,-2.2064,-2.3827,-2.5393,-2.6385,-1.5825,-1.5825,-1.5825,-1.5825,-1.5825,-1.5825,-1.5825,-1.5825,-1.5825,-1.5825,-1.5825,-1.5825,-1.5825,-1.5825,-1.5825,-1.5825,-1.5825,-1.5825,-1.5825,-1.5825,-1.5825,-1.5825,-1.5825,-1.5825,-1.5825,-1.5825,-1.5825,-1.5825,-1.5825,-1.5825,-1.5825,-1.5825,-1.5825,-1.5825,-1.5825,-1.5825,-1.5732,-1.5538,-1.5511,-1.5378,-1.5135,-1.4877,-1.4623,-1.4362,-1.4329,-1.4429,-1.4629,-1.4643,-1.4736,-1.4995,-1.5015,-1.5048,-1.5122,-1.5129,-1.5256,-1.5491,-1.5705,-1.5825,-1.5825,-1.5825,-1.5825,-1.5825,-1.5825,-1.5825,-1.5825,-1.5825,-1.5825,-1.5825,-1.5825,-1.5825,-1.5825,-1.5825,-1.5825,-1.5825,-1.5825,-1.5825,-1.5778,-1.5825,-1.5778,-1.5825,-1.5784,-1.5825,-1.5825,-1.5825,-1.5825,-1.5825,-1.5825,-1.5825,-1.5825,-1.5825,-1.5825,-1.5825,-1.5825,-1.5825,-1.5825,-1.5825,-1.5825,-1.5825,-1.5832,-1.5858,-1.5939,-1.6213,-1.6549,-1.6867,-1.7146,-1.7398,-1.7725,-1.8003,-1.8736,-1.9709,-2.1242,-2.302,-2.4174,-2.5632,-2.6538,-1.5825,-1.5825,-1.5825,-1.5825,-1.5825,-1.5825,-1.5825,-1.5825,-1.5825,-1.5825,-1.5825,-1.5825,-1.5825,-1.5825,-1.5825,-1.5825,-1.5825,-1.5825,-1.5825,-1.5825,-1.5825,-1.5825,-1.5825,-1.5825,-1.5825,-1.5825,-1.5825,-1.5825,-1.5825,-1.5825,-1.5825,-1.5825,-1.5825,-1.5825,-1.5825,-1.5825,-1.5818,-1.5778,-1.5778,-1.5658,-1.5418,-1.5364,-1.5204,-1.5001,-1.4955,-1.4948,-1.4988,-1.4988,-1.4963,-1.5022,-1.5048,-1.5149,-1.5337,-1.5384,-1.5504,-1.5711,-1.5812,-1.5825,-1.5825,-1.5825,-1.5825,-1.5825,-1.5825,-1.5825,-1.5825,-1.5825,-1.5825,-1.5825,-1.5825,-1.5825,-1.5825,-1.5825,-1.5825,-1.5825,-1.5825,-1.5825,-1.5825,-1.5825,-1.5825,-1.5825,-1.5825,-1.5825,-1.5825,-1.5825,-1.5825,-1.5825,-1.5825,-1.5825,-1.5825,-1.5825,-1.5825,-1.5825,-1.5825,-1.5825,-1.5825,-1.5825,-1.5825,-1.5825,-1.5845,-1.5871,-1.6213,-1.6493,-1.6824,-1.7105,-1.7418,-1.7691,-1.7975,-1.8677,-1.9761,-2.0834,-2.2106,-2.3578,-2.4529,-2.5683,-2.6538,-1.5825,-1.5825,-1.5825,-1.5825,-1.5825,-1.5825,-1.5825,-1.5825,-1.5825,-1.5825,-1.5825,-1.5825,-1.5825,-1.5825,-1.5825,-1.5825,-1.5825,-1.5825,-1.5825,-1.5825,-1.5825,-1.5825,-1.5825,-1.5825,-1.5825,-1.5825,-1.5825,-1.5825,-1.5825,-1.5825,-1.5825,-1.5825,-1.5825,-1.5825,-1.5825,-1.5825,-1.5825,-1.5825,-1.5825,-1.5724,-1.5678,-1.5678,-1.5618,-1.5504,-1.515,-1.5095,-1.5231,-1.5237,-1.5317,-1.5511,-1.5518,-1.5558,-1.5611,-1.5671,-1.5712,-1.5812,-1.5825,-1.5825,-1.5825,-1.5825,-1.5825,-1.5825,-1.5825,-1.5825,-1.5825,-1.5825,-1.5825,-1.5825,-1.5825,-1.5825,-1.5825,-1.5825,-1.5825,-1.5825,-1.5825,-1.5825,-1.5825,-1.5825,-1.5825,-1.5825,-1.5825,-1.5825,-1.5825,-1.5825,-1.5825,-1.5825,-1.5825,-1.5825,-1.5825,-1.5825,-1.5825,-1.5825,-1.5825,-1.5825,-1.5825,-1.5825,-1.5825,-1.5825,-1.5858,-1.5999,-1.6233,-1.6563,-1.6881,-1.748,-1.7741,-1.8133,-1.8527,-1.9657,-2.0731,-2.1954,-2.3229,-2.4035,-2.4833,-2.5944,-2.6643,-1.5825,-1.5825,-1.5825,-1.5825,-1.5825,-1.5825,-1.5825,-1.5825,-1.5825,-1.5825,-1.5825,-1.5825,-1.5825,-1.5825,-1.5825,-1.5825,-1.5825,-1.5825,-1.5825,-1.5825,-1.5825,-1.5825,-1.5825,-1.5825,-1.5825,-1.5825,-1.5825,-1.5825,-1.5825,-1.5825,-1.5825,-1.5825,-1.5825,-1.5825,-1.5825,-1.5825,-1.5825,-1.5825,-1.5825,-1.5825,-1.5825,-1.5825,-1.5825,-1.5772,-1.5444,-1.5331,-1.5531,-1.5538,-1.5618,-1.5751,-1.5825,-1.5825,-1.5825,-1.5825,-1.5825,-1.5825,-1.5825,-1.5825,-1.5825,-1.5825,-1.5825,-1.5825,-1.5825,-1.5825,-1.5825,-1.5825,-1.5825,-1.5825,-1.5825,-1.5825,-1.5825,-1.5825,-1.5825,-1.5825,-1.5825,-1.5825,-1.5825,-1.5825,-1.5825,-1.5825,-1.5825,-1.5825,-1.5825,-1.5825,-1.5825,-1.5825,-1.5825,-1.5825,-1.5825,-1.5825,-1.5825,-1.5825,-1.5825,-1.5879,-1.5927,-1.5974,-1.5886,-1.5886,-1.6069,-1.6176,-1.6495,-1.6765,-1.7257,-1.7804,-1.8278,-1.8724,-1.9502,-2.0577,-2.1751,-2.292,-2.3777,-2.4529,-2.5355,-2.6185,-2.6695,-1.5825,-1.5832,-1.5791,-1.5858,-1.5824,-1.5905,-1.5865,-1.5851,-1.5844,-1.5925,-1.5945,-1.5872,-1.5879,-1.5852,-1.5845,-1.5825,-1.5825,-1.5825,-1.5825,-1.5825,-1.5825,-1.5825,-1.5832,-1.5825,-1.5825,-1.5825,-1.5825,-1.5825,-1.5825,-1.5825,-1.5825,-1.5825,-1.5825,-1.5825,-1.5825,-1.5825,-1.5825,-1.5825,-1.5825,-1.5825,-1.5825,-1.5825,-1.5825,-1.5825,-1.5778,-1.5765,-1.5758,-1.5805,-1.5758,-1.5818,-1.5825,-1.5825,-1.5825,-1.5825,-1.5825,-1.5825,-1.5825,-1.5825,-1.5825,-1.5825,-1.5825,-1.5825,-1.5825,-1.5825,-1.5825,-1.5825,-1.5825,-1.5825,-1.5825,-1.5825,-1.5825,-1.5825,-1.5825,-1.5825,-1.5825,-1.5825,-1.5825,-1.5825,-1.5825,-1.5825,-1.5825,-1.5825,-1.5825,-1.5825,-1.5825,-1.5825,-1.5825,-1.5825,-1.5825,-1.5825,-1.5825,-1.5825,-1.5825,-1.5879,-1.6028,-1.6177,-1.6082,-1.6001,-1.63,-1.6525,-1.7029,-1.7398,-1.8087,-1.862,-1.9273,-1.9761,-2.0731,-2.1802,-2.256,-2.3628,-2.4381,-2.4951,-2.5543,-2.6188,-2.6736,-1.5825,-1.5852,-1.6052,-1.6132,-1.6166,-1.6346,-1.6433,-1.6433,-1.6433,-1.6426,-1.64,-1.6219,-1.6132,-1.6079,-1.5925,-1.5832,-1.5825,-1.5825,-1.5825,-1.5838,-1.5832,-1.5879,-1.5981,-1.5879,-1.5825,-1.5825,-1.5825,-1.5825,-1.5825,-1.5825,-1.5825,-1.5825,-1.5825,-1.5825,-1.5825,-1.5825,-1.5825,-1.5825,-1.5825,-1.5825,-1.5825,-1.5825,-1.5825,-1.5825,-1.5825,-1.5825,-1.5825,-1.5825,-1.5825,-1.5825,-1.5825,-1.5825,-1.5825,-1.5825,-1.5825,-1.5825,-1.5825,-1.5825,-1.5825,-1.5825,-1.5825,-1.5825,-1.5825,-1.5825,-1.5825,-1.5825,-1.5825,-1.5825,-1.5825,-1.5825,-1.5825,-1.5825,-1.5825,-1.5825,-1.5825,-1.5825,-1.5825,-1.5825,-1.5825,-1.5825,-1.5825,-1.5825,-1.5825,-1.5825,-1.5825,-1.5825,-1.5825,-1.5825,-1.5825,-1.5825,-1.5825,-1.5825,-1.5825,-1.6014,-1.6388,-1.6804,-1.6963,-1.6963,-1.7141,-1.738,-1.7837,-1.8339,-1.8948,-1.9653,-2.0259,-2.1038,-2.2013,-2.282,-2.3578,-2.4174,-2.4833,-2.5273,-2.5586,-2.6121,-2.6746,-1.5992,-1.6025,-1.6313,-1.6433,-1.6453,-1.6633,-1.6707,-1.6707,-1.6707,-1.6707,-1.666,-1.6513,-1.6433,-1.64,-1.6233,-1.6111,-1.6111,-1.6152,-1.6092,-1.5985,-1.5811,-1.5886,-1.6035,-1.5879,-1.5879,-1.5879,-1.5832,-1.5872,-1.5927,-1.5832,-1.5825,-1.5825,-1.5825,-1.5825,-1.5825,-1.5825,-1.5825,-1.5825,-1.5825,-1.5825,-1.5825,-1.5825,-1.5825,-1.5825,-1.5825,-1.5825,-1.5825,-1.5825,-1.5825,-1.5825,-1.5825,-1.5825,-1.5825,-1.5825,-1.5825,-1.5825,-1.5825,-1.5825,-1.5825,-1.5825,-1.5825,-1.5825,-1.5825,-1.5825,-1.5825,-1.5825,-1.5825,-1.5825,-1.5825,-1.5825,-1.5825,-1.5825,-1.5825,-1.5825,-1.5825,-1.5825,-1.5825,-1.5825,-1.5825,-1.5825,-1.5825,-1.5825,-1.5825,-1.5825,-1.5825,-1.5825,-1.5825,-1.5879,-1.5879,-1.5927,-1.5987,-1.613,-1.6307,-1.658,-1.6839,-1.7328,-1.7801,-1.8023,-1.8182,-1.8559,-1.8946,-1.9441,-2.0012,-2.0956,-2.1658,-2.2207,-2.312,-2.3678,-2.439,-2.4883,-2.5254,-2.5575,-2.5927,-2.6464,-2.7031,-1.6335,-1.6382,-1.6663,-1.6777,-1.679,-1.6837,-1.6871,-1.6787,-1.6794,-1.6814,-1.68,-1.676,-1.6734,-1.6727,-1.6647,-1.6607,-1.6687,-1.6627,-1.65,-1.6273,-1.6072,-1.5939,-1.5845,-1.592,-1.6021,-1.6123,-1.5981,-1.5974,-1.6123,-1.5974,-1.5825,-1.5825,-1.5825,-1.5825,-1.5825,-1.5825,-1.5825,-1.5825,-1.5825,-1.5825,-1.5825,-1.5825,-1.5825,-1.5825,-1.5825,-1.5825,-1.5825,-1.5825,-1.5825,-1.5825,-1.5825,-1.5825,-1.5825,-1.5825,-1.5825,-1.5825,-1.5825,-1.5825,-1.5825,-1.5825,-1.5825,-1.5825,-1.5825,-1.5825,-1.5825,-1.5825,-1.5825,-1.5825,-1.5825,-1.5825,-1.5825,-1.5825,-1.5838,-1.5811,-1.5811,-1.5832,-1.5825,-1.5825,-1.5804,-1.5872,-1.5858,-1.5879,-1.5945,-1.5952,-1.5952,-1.6,-1.602,-1.6143,-1.643,-1.656,-1.6504,-1.6744,-1.7084,-1.7368,-1.7763,-1.8256,-1.8842,-1.966,-1.9757,-2.0021,-2.0318,-2.0751,-2.1371,-2.2281,-2.2878,-2.3479,-2.4035,-2.4489,-2.4892,-2.5235,-2.5576,-2.5888,-2.6328,-2.6777,-2.7207,-1.6498,-1.6925,-1.7225,-1.7347,-1.7388,-1.7571,-1.7556,-1.7348,-1.7341,-1.7308,-1.7301,-1.7172,-1.7079,-1.7014,-1.6807,-1.6707,-1.674,-1.6734,-1.6687,-1.66,-1.6526,-1.6206,-1.6001,-1.6218,-1.6326,-1.6252,-1.6347,-1.6305,-1.6218,-1.613,-1.5981,-1.5825,-1.5825,-1.5825,-1.5825,-1.5825,-1.5825,-1.5825,-1.5825,-1.5825,-1.5825,-1.5825,-1.5825,-1.5825,-1.5825,-1.5825,-1.5825,-1.5825,-1.5825,-1.5825,-1.5825,-1.5825,-1.5825,-1.5825,-1.5825,-1.5825,-1.5825,-1.5825,-1.5825,-1.5825,-1.5825,-1.5825,-1.5852,-1.5825,-1.5825,-1.5832,-1.5832,-1.5825,-1.5825,-1.5852,-1.5838,-1.5852,-1.5939,-1.6086,-1.6053,-1.5879,-1.5865,-1.5832,-1.5905,-1.6106,-1.6159,-1.6246,-1.6366,-1.642,-1.6525,-1.6679,-1.677,-1.6911,-1.7239,-1.7496,-1.7543,-1.7819,-1.8111,-1.8412,-1.8784,-1.9262,-2.0021,-2.1177,-2.1569,-2.1773,-2.1996,-2.2315,-2.3026,-2.3877,-2.3827,-2.4282,-2.4686,-2.5088,-2.5382,-2.5586,-2.5907,-2.624,-2.6533,-2.6924,-2.7363,-1.7098,-1.7535,-1.7935,-1.8105,-1.8133,-1.815,-1.801,-1.7799,-1.7635,-1.7589,-1.7542,-1.7467,-1.7387,-1.7308,-1.7154,-1.7074,-1.7074,-1.7074,-1.7007,-1.6874,-1.6747,-1.6506,-1.6357,-1.6635,-1.6787,-1.6767,-1.6793,-1.6703,-1.6573,-1.634,-1.6035,-1.5832,-1.5825,-1.5825,-1.5825,-1.5825,-1.5825,-1.5825,-1.5825,-1.5825,-1.5825,-1.5825,-1.5825,-1.5825,-1.5825,-1.5825,-1.5825,-1.5825,-1.5825,-1.5825,-1.5825,-1.5825,-1.5825,-1.5825,-1.5825,-1.5825,-1.5825,-1.5825,-1.5825,-1.5825,-1.5825,-1.5858,-1.5919,-1.6005,-1.6052,-1.6106,-1.6192,-1.6219,-1.6199,-1.6199,-1.6199,-1.6248,-1.6426,-1.6603,-1.6599,-1.6442,-1.6241,-1.6219,-1.6279,-1.6406,-1.6466,-1.6556,-1.6857,-1.687,-1.712,-1.7342,-1.7449,-1.7853,-1.8297,-1.8454,-1.8731,-1.9079,-1.9418,-1.9738,-2.0245,-2.081,-2.1352,-2.2467,-2.3229,-2.3434,-2.3448,-2.37,-2.411,-2.4655,-2.4745,-2.497,-2.5331,-2.5575,-2.5683,-2.5907,-2.625,-2.6582,-2.6914,-2.7229,-2.7598,-1.7791,-1.8133,-1.8667,-1.8878,-1.8864,-1.8632,-1.8377,-1.8016,-1.7747,-1.7641,-1.7582,-1.7582,-1.7542,-1.7589,-1.7488,-1.7601,-1.7608,-1.7541,-1.7388,-1.7188,-1.6994,-1.682,-1.6857,-1.6939,-1.7167,-1.733,-1.7246,-1.7169,-1.7009,-1.6608,-1.6252,-1.6129,-1.6048,-1.5933,-1.6001,-1.5913,-1.5825,-1.5825,-1.5825,-1.5825,-1.5825,-1.5825,-1.5825,-1.5825,-1.5825,-1.5825,-1.5825,-1.5825,-1.5825,-1.5825,-1.5825,-1.5825,-1.5825,-1.5825,-1.5825,-1.5825,-1.5825,-1.5825,-1.5825,-1.5825,-1.5858,-1.5925,-1.6132,-1.6348,-1.6339,-1.6493,-1.66,-1.6593,-1.6693,-1.6627,-1.674,-1.7,-1.7234,-1.7419,-1.7611,-1.756,-1.7189,-1.6897,-1.6814,-1.6854,-1.6854,-1.6961,-1.7152,-1.736,-1.7588,-1.8499,-1.8613,-1.9115,-1.9572,-1.9836,-2.021,-2.0606,-2.0933,-2.123,-2.1785,-2.241,-2.3017,-2.3786,-2.4606,-2.4939,-2.4705,-2.4829,-2.5047,-2.5272,-2.5455,-2.565,-2.5866,-2.6024,-2.6113,-2.6357,-2.6689,-2.7051,-2.7402,-2.7598,-2.793,-1.8011,-1.8688,-1.928,-1.9517,-1.9517,-1.9413,-1.9004,-1.8325,-1.801,-1.7799,-1.7635,-1.7582,-1.7589,-1.7589,-1.7641,-1.7694,-1.7859,-1.7687,-1.7588,-1.7502,-1.7442,-1.7395,-1.7333,-1.7235,-1.7248,-1.742,-1.7456,-1.7407,-1.7323,-1.7218,-1.7056,-1.6818,-1.6746,-1.6711,-1.6504,-1.6334,-1.5981,-1.5832,-1.5838,-1.5838,-1.5825,-1.5825,-1.5825,-1.5825,-1.5825,-1.5825,-1.5825,-1.5825,-1.5825,-1.5825,-1.5825,-1.5825,-1.5825,-1.5825,-1.5825,-1.5825,-1.5825,-1.5825,-1.5832,-1.5852,-1.5932,-1.6132,-1.6273,-1.6422,-1.66,-1.6687,-1.6727,-1.6707,-1.6707,-1.6867,-1.7102,-1.77,-1.8138,-1.8448,-1.8906,-1.9257,-1.9118,-1.8203,-1.7637,-1.7705,-1.7724,-1.7895,-1.837,-1.862,-1.8994,-1.9543,-2.003,-2.0503,-2.0875,-2.1186,-2.162,-2.203,-2.2223,-2.2518,-2.2985,-2.3583,-2.4167,-2.4712,-2.5509,-2.6042,-2.5794,-2.5727,-2.5817,-2.5974,-2.616,-2.6298,-2.6395,-2.6551,-2.668,-2.6904,-2.7109,-2.7402,-2.7738,-2.7939,-2.8086,-1.8535,-1.945,-1.9887,-2.0248,-2.0403,-2.0189,-1.9672,-1.8997,-1.8429,-1.801,-1.7793,-1.7687,-1.7589,-1.7589,-1.7589,-1.7694,-1.774,-1.7687,-1.7582,-1.7575,-1.7575,-1.7582,-1.7608,-1.747,-1.748,-1.7657,-1.7728,-1.7729,-1.7694,-1.7589,-1.7477,-1.7512,-1.7534,-1.7415,-1.7316,-1.7092,-1.6822,-1.6505,-1.6279,-1.6177,-1.6001,-1.5879,-1.5825,-1.5825,-1.5825,-1.5825,-1.5825,-1.5825,-1.5825,-1.5825,-1.5832,-1.5832,-1.5825,-1.5825,-1.5825,-1.5825,-1.5825,-1.5825,-1.5838,-1.5965,-1.6112,-1.6273,-1.6556,-1.6784,-1.6921,-1.7021,-1.7114,-1.7114,-1.7179,-1.7282,-1.7691,-1.8512,-1.9089,-1.9623,-2.0118,-2.0542,-2.0531,-1.9504,-1.86,-1.8708,-1.87,-1.8912,-1.9302,-1.9761,-2.0225,-2.0672,-2.1273,-2.1745,-2.2206,-2.2531,-2.2956,-2.3336,-2.3489,-2.375,-2.4143,-2.4669,-2.5164,-2.5703,-2.6214,-2.6501,-2.6509,-2.6412,-2.6425,-2.6572,-2.6689,-2.6728,-2.6836,-2.7002,-2.7178,-2.7324,-2.7552,-2.7767,-2.7963,-2.8105,-2.8203,-1.9153,-2.0138,-2.0506,-2.0968,-2.1318,-2.0952,-2.0439,-1.9768,-1.8945,-1.8475,-1.8122,-1.7799,-1.7694,-1.7687,-1.7641,-1.7589,-1.7635,-1.7687,-1.7694,-1.7589,-1.7589,-1.7589,-1.7615,-1.7581,-1.7652,-1.7923,-1.7853,-1.789,-1.796,-1.7893,-1.8067,-1.8217,-1.8337,-1.8421,-1.8364,-1.8185,-1.7871,-1.7433,-1.712,-1.685,-1.6567,-1.6279,-1.6087,-1.6039,-1.5952,-1.5945,-1.5925,-1.5879,-1.5825,-1.5791,-1.5865,-1.5844,-1.5838,-1.5791,-1.5825,-1.5825,-1.5825,-1.5872,-1.5972,-1.6126,-1.6286,-1.6429,-1.6864,-1.7237,-1.7345,-1.7479,-1.7619,-1.7777,-1.7809,-1.813,-1.8572,-1.9413,-2.0143,-2.0775,-2.1302,-2.1725,-2.1768,-2.0995,-2.0495,-1.9996,-1.9951,-2.0128,-2.0451,-2.0842,-2.131,-2.1818,-2.2426,-2.2937,-2.3338,-2.3746,-2.4053,-2.4282,-2.4381,-2.4756,-2.5138,-2.5521,-2.6095,-2.635,-2.6836,-2.7002,-2.7148,-2.7236,-2.7187,-2.707,-2.7129,-2.7178,-2.7275,-2.7461,-2.7617,-2.7777,-2.7875,-2.7978,-2.8125,-2.8271,-2.8301,-1.9517,-2.0189,-2.1113,-2.1674,-2.1928,-2.1878,-2.1404,-2.0637,-1.982,-1.9153,-1.8624,-1.8167,-1.7964,-1.7911,-1.7687,-1.7635,-1.7687,-1.7747,-1.7747,-1.7641,-1.7589,-1.7589,-1.7589,-1.7589,-1.7635,-1.7628,-1.7705,-1.7893,-1.8258,-1.849,-1.8774,-1.9316,-1.9585,-1.9664,-1.9621,-1.9296,-1.8984,-1.8584,-1.8169,-1.7858,-1.7583,-1.712,-1.6726,-1.6502,-1.6342,-1.6213,-1.6139,-1.5972,-1.5825,-1.5852,-1.6072,-1.6179,-1.6159,-1.5992,-1.5905,-1.5905,-1.5919,-1.6012,-1.6186,-1.6315,-1.661,-1.6924,-1.7217,-1.7495,-1.7762,-1.7923,-1.8108,-1.837,-1.8684,-1.9108,-1.9465,-2.0395,-2.131,-2.2013,-2.2568,-2.3088,-2.3379,-2.307,-2.2367,-2.1717,-2.1471,-2.1369,-2.1658,-2.2005,-2.2417,-2.2929,-2.3479,-2.3836,-2.4134,-2.4517,-2.485,-2.5019,-2.5128,-2.5583,-2.6032,-2.6429,-2.6822,-2.6919,-2.7226,-2.7471,-2.7656,-2.793,-2.7949,-2.7676,-2.7598,-2.7666,-2.7793,-2.791,-2.7978,-2.8027,-2.8125,-2.8193,-2.8242,-2.8301,-2.8301,-2.0138,-2.0747,-2.142,-2.203,-2.2493,-2.2535,-2.2173,-2.1454,-2.0688,-1.9923,-1.925,-1.8684,-1.8318,-1.8213,-1.8108,-1.795,-1.7852,-1.7747,-1.7747,-1.7589,-1.7589,-1.7589,-1.7589,-1.7589,-1.7589,-1.7582,-1.7635,-1.7898,-1.8415,-1.8833,-1.9465,-2.0254,-2.0675,-2.0966,-2.1085,-2.0905,-2.0381,-1.9938,-1.9479,-1.9048,-1.8624,-1.7967,-1.742,-1.6973,-1.6806,-1.6662,-1.6473,-1.6393,-1.6293,-1.6326,-1.6426,-1.6486,-1.6453,-1.6393,-1.6231,-1.6279,-1.6266,-1.6319,-1.6563,-1.672,-1.714,-1.7408,-1.7733,-1.8144,-1.838,-1.8586,-1.875,-1.8952,-1.9361,-1.9879,-2.0277,-2.131,-2.2224,-2.2979,-2.3596,-2.4102,-2.4399,-2.4399,-2.394,-2.33,-2.2939,-2.278,-2.287,-2.322,-2.3578,-2.4035,-2.4557,-2.4782,-2.4977,-2.5288,-2.561,-2.5777,-2.5875,-2.6226,-2.6719,-2.7051,-2.7344,-2.7441,-2.7578,-2.7822,-2.7969,-2.8164,-2.8193,-2.8047,-2.8066,-2.8037,-2.8096,-2.8135,-2.8232,-2.8301,-2.8271,-2.8252,-2.8271,-2.8301,-2.8301,-2.0704,-2.1318,-2.1623,-2.2232,-2.2837,-2.2987,-2.2728,-2.2165,-2.1446,-2.079,-2.0034,-1.9406,-1.8938,-1.8684,-1.8475,-1.8213,-1.7971,-1.7799,-1.7694,-1.7589,-1.7589,-1.7589,-1.7589,-1.7582,-1.7635,-1.7747,-1.7747,-1.795,-1.8422,-1.8952,-1.9894,-2.0798,-2.1514,-2.2072,-2.2274,-2.2315,-2.1895,-2.1487,-2.1022,-2.0462,-1.9544,-1.8788,-1.8089,-1.7472,-1.7394,-1.7253,-1.7045,-1.683,-1.6746,-1.6773,-1.679,-1.6794,-1.68,-1.6847,-1.6881,-1.6867,-1.6831,-1.679,-1.6999,-1.7417,-1.7837,-1.807,-1.8594,-1.8954,-1.9242,-1.9465,-1.9687,-1.9783,-2.0138,-2.0747,-2.1404,-2.2165,-2.314,-2.3981,-2.4548,-2.4963,-2.5303,-2.5419,-2.5457,-2.4902,-2.4363,-2.4145,-2.424,-2.4381,-2.4746,-2.5101,-2.5591,-2.5722,-2.592,-2.6106,-2.6373,-2.653,-2.6717,-2.6941,-2.7256,-2.751,-2.7725,-2.7822,-2.793,-2.8105,-2.8184,-2.8271,-2.8252,-2.8213,-2.8232,-2.8203,-2.8281,-2.8301,-2.8301,-2.8301,-2.8301,-2.8301,-2.8301,-2.8301,-2.8301,-2.1216,-2.1326,-2.1827,-2.2283,-2.2627,-2.3088,-2.3138,-2.2728,-2.2173,-2.1768,-2.1259,-2.038,-1.982,-1.9406,-1.8736,-1.8325,-1.8069,-1.7964,-1.7799,-1.7641,-1.7668,-1.7688,-1.7661,-1.7589,-1.7913,-1.8032,-1.8051,-1.8115,-1.8579,-1.9116,-2.005,-2.1173,-2.2021,-2.2719,-2.3329,-2.3429,-2.3361,-2.295,-2.2482,-2.1593,-2.0523,-1.999,-1.9383,-1.8751,-1.8403,-1.8158,-1.7833,-1.7491,-1.7216,-1.7159,-1.714,-1.7139,-1.7186,-1.7414,-1.7455,-1.7439,-1.7292,-1.7186,-1.752,-1.8039,-1.8621,-1.9,-1.9443,-1.982,-2.0233,-2.0593,-2.0865,-2.1062,-2.1369,-2.1902,-2.2578,-2.3214,-2.4126,-2.4889,-2.554,-2.6033,-2.6439,-2.6193,-2.6232,-2.628,-2.568,-2.5541,-2.5541,-2.5714,-2.5925,-2.6266,-2.6531,-2.6594,-2.6705,-2.6865,-2.706,-2.7187,-2.7295,-2.7519,-2.7607,-2.7891,-2.7988,-2.8115,-2.8193,-2.8301,-2.8301,-2.8301,-2.8291,-2.8281,-2.8301,-2.8301,-2.8301,-2.8301,-2.8301,-2.8301,-2.8301,-2.8301,-2.8301,-2.8301,-2.8301,-2.2173,-2.1768,-2.203,-2.2173,-2.2375,-2.3029,-2.3188,-2.2929,-2.2828,-2.2476,-2.1869,-2.131,-2.0652,-1.9946,-1.9212,-1.8698,-1.8279,-1.809,-1.7859,-1.7828,-1.7962,-1.8103,-1.8217,-1.8467,-1.8676,-1.8695,-1.8766,-1.8931,-1.924,-1.9643,-2.0403,-2.1471,-2.2485,-2.3329,-2.4075,-2.4282,-2.4183,-2.3818,-2.327,-2.2518,-2.1759,-2.12,-2.0585,-1.9805,-1.9508,-1.925,-1.8891,-1.8379,-1.8075,-1.7993,-1.7881,-1.7655,-1.763,-1.762,-1.7575,-1.7608,-1.7791,-1.7915,-1.8109,-1.8736,-1.9383,-2.0017,-2.049,-2.1054,-2.1564,-2.1869,-2.203,-2.2173,-2.2577,-2.3175,-2.3865,-2.4473,-2.5176,-2.5907,-2.6374,-2.6652,-2.6961,-2.6922,-2.6873,-2.6982,-2.7041,-2.6817,-2.6615,-2.6618,-2.664,-2.6778,-2.6936,-2.6939,-2.7058,-2.7226,-2.748,-2.7793,-2.7891,-2.8008,-2.8037,-2.8154,-2.8144,-2.8223,-2.8223,-2.8301,-2.8301,-2.8301,-2.8301,-2.8301,-2.8301,-2.8301,-2.8301,-2.8301,-2.8301,-2.8301,-2.8301,-2.8301,-2.8301,-2.8301,-2.8301,-2.3079,-2.2384,-2.2123,-2.1979,-2.1979,-2.2828,-2.3079,-2.2979,-2.332,-2.3129,-2.2526,-2.1979,-2.1307,-2.0571,-1.9941,-1.9424,-1.8901,-1.8607,-1.8289,-1.8324,-1.8548,-1.8827,-1.9059,-1.9377,-1.9729,-1.9789,-2.0117,-2.0279,-2.0512,-2.0823,-2.1414,-2.1843,-2.2828,-2.3728,-2.448,-2.4883,-2.4932,-2.4627,-2.3985,-2.3338,-2.2778,-2.2325,-2.1607,-2.0995,-2.0593,-2.0344,-1.9983,-1.9435,-1.9109,-1.9005,-1.8478,-1.8224,-1.8192,-1.7989,-1.7898,-1.7996,-1.8286,-1.871,-1.905,-1.9576,-2.0292,-2.1003,-2.1751,-2.2467,-2.2778,-2.3079,-2.3368,-2.3497,-2.3776,-2.4427,-2.5071,-2.5616,-2.6098,-2.6634,-2.7023,-2.7185,-2.7305,-2.7383,-2.7471,-2.7568,-2.7627,-2.7617,-2.7454,-2.7409,-2.7402,-2.7363,-2.7334,-2.7305,-2.7432,-2.7598,-2.7793,-2.8086,-2.8125,-2.8203,-2.8232,-2.8271,-2.8291,-2.8301,-2.8301,-2.8301,-2.8301,-2.8301,-2.8301,-2.8301,-2.8301,-2.8301,-2.8301,-2.8301,-2.8301,-2.8301,-2.8301,-2.8301,-2.8301,-2.8301,-2.8301,-2.3728,-2.312,-2.2173,-2.1623,-2.1471,-2.2476,-2.2929,-2.302,-2.3728,-2.3854,-2.35,-2.2645,-2.2049,-2.1547,-2.0899,-2.0392,-2.0081,-1.983,-1.9424,-1.9384,-1.9647,-1.9811,-2.0128,-2.0478,-2.0914,-2.121,-2.1518,-2.1939,-2.2327,-2.2639,-2.2557,-2.2384,-2.3483,-2.4167,-2.4829,-2.5455,-2.5594,-2.5328,-2.4815,-2.4235,-2.3759,-2.3282,-2.2712,-2.1869,-2.1564,-2.1318,-2.0814,-2.0336,-2.0078,-2.0027,-1.9346,-1.8833,-1.8833,-1.8579,-1.8422,-1.8422,-1.8848,-1.9309,-1.9776,-2.0395,-2.1318,-2.2274,-2.3129,-2.3728,-2.3827,-2.3945,-2.4299,-2.4803,-2.4991,-2.5515,-2.6126,-2.6593,-2.6869,-2.7295,-2.7584,-2.7725,-2.7822,-2.7959,-2.8057,-2.8164,-2.8144,-2.8027,-2.8008,-2.7871,-2.7842,-2.7803,-2.7832,-2.7803,-2.7891,-2.8037,-2.8096,-2.8242,-2.8252,-2.8281,-2.8281,-2.8301,-2.8301,-2.8301,-2.8301,-2.8301,-2.8301,-2.8301,-2.8301,-2.8301,-2.8301,-2.8301,-2.8301,-2.8301,-2.8301,-2.8301,-2.8301,-2.8301,-2.8301,-2.8301,-2.8301,-2.4183,-2.347,-2.2728,-2.208,-2.1623,-2.2333,-2.2828,-2.3229,-2.3985,-2.4389,-2.4359,-2.3838,-2.3201,-2.2523,-2.1919,-2.1125,-2.0456,-2.0401,-2.0088,-2.0146,-2.0439,-2.0991,-2.1437,-2.1962,-2.2537,-2.2844,-2.3212,-2.3392,-2.3587,-2.4157,-2.4297,-2.4316,-2.4612,-2.5029,-2.5699,-2.6126,-2.6305,-2.6274,-2.5944,-2.5484,-2.493,-2.4382,-2.3779,-2.3038,-2.2526,-2.2375,-2.2072,-2.1615,-2.1302,-2.0952,-2.0439,-2.0027,-1.9657,-1.9406,-1.9101,-1.89,-1.9383,-1.991,-2.0454,-2.107,-2.1971,-2.3279,-2.4134,-2.4597,-2.4702,-2.4961,-2.5289,-2.5676,-2.6075,-2.6586,-2.7056,-2.7276,-2.7464,-2.79,-2.8076,-2.8135,-2.8193,-2.8271,-2.8291,-2.8252,-2.8262,-2.8223,-2.8232,-2.8242,-2.8242,-2.8242,-2.8281,-2.8301,-2.8301,-2.8301,-2.8301,-2.8301,-2.8301,-2.8301,-2.8301,-2.8301,-2.8301,-2.8301,-2.8301,-2.8301,-2.8301,-2.8301,-2.8301,-2.8301,-2.8301,-2.8301,-2.8301,-2.8301,-2.8301,-2.8301,-2.8301,-2.8301,-2.8301,-2.831,-2.8369,-2.4637,-2.4035,-2.3388,-2.2677,-2.2021,-2.2426,-2.2998,-2.3698,-2.4526,-2.4989,-2.5229,-2.4984,-2.4386,-2.3634,-2.298,-2.2274,-2.1547,-2.1349,-2.1106,-2.1347,-2.1857,-2.2442,-2.2982,-2.3546,-2.4162,-2.4502,-2.4839,-2.5085,-2.5147,-2.55,-2.572,-2.5931,-2.6095,-2.6333,-2.6228,-2.6756,-2.7021,-2.6961,-2.6768,-2.6487,-2.5866,-2.5524,-2.5053,-2.4413,-2.4009,-2.3805,-2.362,-2.3271,-2.2903,-2.2469,-2.1984,-2.1356,-2.0889,-2.0388,-1.9983,-1.991,-2.0066,-2.0587,-2.119,-2.2004,-2.2987,-2.4134,-2.4973,-2.5279,-2.5522,-2.592,-2.6259,-2.6531,-2.6987,-2.7373,-2.7783,-2.7871,-2.79,-2.8164,-2.8193,-2.8242,-2.8252,-2.8301,-2.8301,-2.8281,-2.8301,-2.8301,-2.8301,-2.8301,-2.8301,-2.8301,-2.8301,-2.8301,-2.8301,-2.8301,-2.8301,-2.8301,-2.8301,-2.8301,-2.8301,-2.831,-2.833,-2.8301,-2.8301,-2.8301,-2.8301,-2.834,-2.833,-2.8301,-2.8301,-2.8301,-2.831,-2.832,-2.831,-2.8301,-2.833,-2.8389,-2.8379,-2.8408,-2.8535,-2.5137,-2.4784,-2.4035,-2.3229,-2.2636,-2.2787,-2.3491,-2.4403,-2.5282,-2.5965,-2.6307,-2.581,-2.533,-2.4853,-2.4159,-2.3475,-2.2895,-2.2799,-2.2695,-2.2687,-2.3325,-2.3933,-2.4441,-2.5012,-2.5562,-2.6082,-2.6381,-2.6596,-2.6786,-2.6962,-2.7179,-2.7305,-2.7332,-2.7309,-2.6689,-2.6888,-2.7041,-2.7041,-2.7058,-2.6894,-2.6654,-2.6471,-2.6096,-2.5647,-2.5405,-2.5163,-2.4957,-2.4751,-2.4418,-2.4043,-2.3546,-2.2963,-2.2443,-2.1839,-2.142,-2.125,-2.1603,-2.2073,-2.2635,-2.3542,-2.4339,-2.4961,-2.5783,-2.6158,-2.6405,-2.6748,-2.7058,-2.7192,-2.7568,-2.7822,-2.8086,-2.8252,-2.8252,-2.8262,-2.8291,-2.8301,-2.8301,-2.8301,-2.8301,-2.8301,-2.8301,-2.8301,-2.8301,-2.8301,-2.8301,-2.8301,-2.8301,-2.8301,-2.8301,-2.8301,-2.8301,-2.8301,-2.8301,-2.8301,-2.8301,-2.835,-2.835,-2.832,-2.8428,-2.8584,-2.8584,-2.8623,-2.8555,-2.8408,-2.8516,-2.8711,-2.8535,-2.8359,-2.8525,-2.8701,-2.8535,-2.8525,-2.8506,-2.8594,-2.8809,-2.543,-2.5137,-2.4686,-2.4332,-2.4071,-2.3916,-2.4316,-2.5085,-2.626,-2.6985,-2.7045,-2.6959,-2.6519,-2.5892,-2.5411,-2.4769,-2.4022,-2.4111,-2.4064,-2.3888,-2.4667,-2.5174,-2.5615,-2.6163,-2.6708,-2.7034,-2.7422,-2.7574,-2.7546,-2.7799,-2.796,-2.8067,-2.8004,-2.7985,-2.7834,-2.7809,-2.7861,-2.7871,-2.7851,-2.7701,-2.7376,-2.7162,-2.6849,-2.6351,-2.6238,-2.6144,-2.6041,-2.5914,-2.5689,-2.5428,-2.4927,-2.4569,-2.4013,-2.3427,-2.3185,-2.2837,-2.2986,-2.3451,-2.4174,-2.4977,-2.5613,-2.6075,-2.6427,-2.6807,-2.6846,-2.7197,-2.749,-2.7695,-2.791,-2.8115,-2.8252,-2.8281,-2.8281,-2.8281,-2.8301,-2.8301,-2.8301,-2.8301,-2.8301,-2.8301,-2.8301,-2.8301,-2.8301,-2.8301,-2.8301,-2.8301,-2.8301,-2.8301,-2.8301,-2.8301,-2.8301,-2.8301,-2.8301,-2.8301,-2.833,-2.8574,-2.8701,-2.873,-2.8955,-2.9284,-2.918,-2.8994,-2.9033,-2.9023,-2.9082,-2.9141,-2.9014,-2.8945,-2.9101,-2.917,-2.9121,-2.9033,-2.9033,-2.9141,-2.9297,-2.5586,-2.544,-2.5137,-2.5125,-2.5178,-2.4831,-2.5131,-2.6068,-2.7298,-2.7766,-2.7656,-2.7791,-2.7403,-2.6708,-2.64,-2.5944,-2.4982,-2.5267,-2.5267,-2.5046,-2.5725,-2.6227,-2.6609,-2.7043,-2.7422,-2.7701,-2.7853,-2.8014,-2.8023,-2.8184,-2.8237,-2.8237,-2.8301,-2.8208,-2.8223,-2.8223,-2.8223,-2.8193,-2.8154,-2.8105,-2.7877,-2.7736,-2.7544,-2.7265,-2.7083,-2.6969,-2.6931,-2.6893,-2.6731,-2.6551,-2.6277,-2.6003,-2.5488,-2.505,-2.477,-2.4403,-2.4492,-2.5056,-2.5825,-2.6345,-2.6869,-2.7201,-2.7292,-2.7246,-2.7314,-2.7637,-2.7812,-2.7998,-2.8164,-2.8232,-2.8291,-2.8301,-2.8301,-2.8301,-2.8301,-2.8301,-2.8301,-2.8301,-2.8301,-2.8301,-2.8301,-2.8301,-2.8301,-2.8301,-2.8301,-2.8301,-2.8301,-2.832,-2.835,-2.835,-2.8437,-2.8525,-2.8584,-2.8672,-2.8809,-2.9023,-2.9121,-2.9141,-2.9385,-2.9734,-2.9587,-2.9326,-2.9482,-2.958,-2.9482,-2.9443,-2.9541,-2.96,-2.9678,-2.9824,-2.9941,-2.9814,-2.9648,-2.9678,-2.9785,-2.5684,-2.5684,-2.543,-2.5583,-2.587,-2.5541,-2.6096,-2.7352,-2.798,-2.8262,-2.8228,-2.7985,-2.7682,-2.7368,-2.7152,-2.6654,-2.62,-2.6427,-2.6318,-2.6318,-2.6708,-2.7043,-2.7368,-2.7691,-2.7916,-2.813,-2.8237,-2.8184,-2.8301,-2.8301,-2.8301,-2.8301,-2.8301,-2.8301,-2.8301,-2.8301,-2.8301,-2.8301,-2.8281,-2.8242,-2.8154,-2.8193,-2.8082,-2.795,-2.795,-2.7907,-2.7907,-2.7917,-2.7834,-2.7645,-2.7404,-2.7058,-2.6597,-2.6116,-2.5952,-2.5917,-2.6138,-2.6639,-2.7078,-2.7481,-2.7786,-2.7892,-2.7842,-2.7734,-2.7816,-2.7978,-2.8096,-2.8164,-2.8262,-2.8271,-2.8301,-2.8301,-2.8301,-2.8301,-2.8301,-2.8301,-2.8301,-2.8301,-2.8301,-2.8301,-2.8301,-2.8301,-2.8301,-2.8301,-2.8369,-2.8486,-2.8525,-2.8613,-2.8613,-2.8496,-2.8643,-2.8945,-2.9023,-2.9141,-2.9297,-2.9443,-2.9551,-2.958,-2.9736,-3.0008,-2.9832,-2.9766,-2.9932,-2.998,-2.9766,-2.9756,-2.999,-3.0117,-3.0195,-3.0342,-3.0439,-3.0351,-3.0107,-3.0156,-3.0254,-2.5684,-2.5684,-2.5635,-2.5849,-2.6295,-2.6775,-2.7398,-2.7989,-2.8252,-2.8301,-2.8291,-2.8237,-2.796,-2.7755,-2.7691,-2.7368,-2.7206,-2.7098,-2.7098,-2.7206,-2.7422,-2.7638,-2.7799,-2.8014,-2.8184,-2.8247,-2.831,-2.835,-2.832,-2.832,-2.835,-2.8301,-2.8418,-2.8379,-2.8369,-2.831,-2.832,-2.832,-2.833,-2.8301,-2.8301,-2.8301,-2.8301,-2.8301,-2.8301,-2.8301,-2.8301,-2.8301,-2.8164,-2.8072,-2.8043,-2.782,-2.7526,-2.7381,-2.7231,-2.6965,-2.7258,-2.7577,-2.778,-2.8023,-2.8184,-2.8291,-2.8144,-2.8154,-2.8154,-2.8193,-2.8301,-2.8301,-2.8301,-2.8301,-2.8301,-2.8301,-2.8301,-2.8301,-2.8301,-2.8301,-2.8301,-2.8301,-2.8301,-2.8301,-2.8301,-2.8359,-2.835,-2.8379,-2.8467,-2.8643,-2.8789,-2.8906,-2.8935,-2.8848,-2.8945,-2.9277,-2.9424,-2.9531,-2.9658,-2.9795,-2.9922,-3.0039,-3.0185,-3.0332,-3.0391,-3.041,-3.0478,-3.042,-3.0264,-3.0351,-3.0557,-3.0605,-3.0547,-3.0654,-3.0742,-3.0674,-3.0615,-3.0586,-3.0586,-2.5684,-2.5684,-2.5684,-2.6084,-2.6728,-2.7549,-2.8076,-2.8271,-2.8301,-2.8301,-2.8301,-2.8291,-2.8184,-2.8067,-2.8014,-2.7906,-2.7755,-2.7745,-2.7745,-2.7799,-2.7935,-2.8023,-2.813,-2.8213,-2.8237,-2.833,-2.8457,-2.8594,-2.8564,-2.874,-2.8828,-2.8848,-2.8789,-2.8789,-2.8799,-2.8711,-2.8564,-2.8496,-2.8418,-2.833,-2.8301,-2.8301,-2.8301,-2.8301,-2.8301,-2.8301,-2.8301,-2.8301,-2.8301,-2.8301,-2.8301,-2.8237,-2.8048,-2.8048,-2.7994,-2.7751,-2.7868,-2.7985,-2.8067,-2.8184,-2.8291,-2.8301,-2.8301,-2.8281,-2.8271,-2.8281,-2.8301,-2.8301,-2.8301,-2.8301,-2.8301,-2.8301,-2.8301,-2.8301,-2.8301,-2.8301,-2.8301,-2.8301,-2.8301,-2.8301,-2.834,-2.8418,-2.8457,-2.8506,-2.8672,-2.9004,-2.9258,-2.9394,-2.9414,-2.9346,-2.9473,-2.9736,-2.9834,-2.9912,-3.0049,-3.0185,-3.0312,-3.0449,-3.0566,-3.0723,-3.0889,-3.085,-3.0723,-3.0752,-3.081,-3.084,-3.0791,-3.083,-3.082,-3.0898,-3.0898,-3.082,-3.0771,-3.0781,-3.0801,-2.5684,-2.5693,-2.5762,-2.6309,-2.708,-2.7891,-2.8271,-2.8301,-2.8301,-2.8301,-2.8301,-2.8301,-2.8301,-2.8237,-2.8237,-2.8237,-2.813,-2.813,-2.8208,-2.834,-2.833,-2.8423,-2.8501,-2.8437,-2.8633,-2.8633,-2.8721,-2.8975,-2.9072,-2.9199,-2.9411,-2.9626,-2.9538,-2.9394,-2.9316,-2.9101,-2.8975,-2.8935,-2.8711,-2.8535,-2.834,-2.8301,-2.8301,-2.8301,-2.8301,-2.8301,-2.8301,-2.8301,-2.8301,-2.8301,-2.8301,-2.8301,-2.8291,-2.8291,-2.8237,-2.8237,-2.8237,-2.8237,-2.8237,-2.8291,-2.8291,-2.8301,-2.8301,-2.8301,-2.8301,-2.8301,-2.8301,-2.8301,-2.8301,-2.8301,-2.8301,-2.8301,-2.8301,-2.8301,-2.8301,-2.8301,-2.8301,-2.8408,-2.8594,-2.8633,-2.875,-2.8818,-2.8916,-2.8984,-2.9141,-2.9463,-2.9658,-2.9814,-2.9941,-2.9883,-2.9971,-3.0176,-3.0254,-3.0342,-3.0498,-3.0635,-3.0732,-3.085,-3.0879,-3.0879,-3.0889,-3.0898,-3.0898,-3.0898,-3.0898,-3.0898,-3.0879,-3.0898,-3.0898,-3.0898,-3.0898,-3.0898,-3.0898,-3.0898,-3.0898,-2.5684,-2.5752,-2.6435,-2.6846,-2.7119,-2.793,-2.8301,-2.8301,-2.8301,-2.8301,-2.8301,-2.8301,-2.8301,-2.8301,-2.8301,-2.8301,-2.8301,-2.8379,-2.8506,-2.8662,-2.875,-2.8906,-2.915,-2.9111,-2.9235,-2.9287,-2.9375,-2.9424,-2.9531,-2.96,-2.9665,-2.9665,-2.9714,-2.9773,-2.9763,-2.9473,-2.9404,-2.9394,-2.9209,-2.8828,-2.8476,-2.834,-2.8301,-2.8301,-2.831,-2.8301,-2.8301,-2.8301,-2.8301,-2.8301,-2.8301,-2.8301,-2.8291,-2.8301,-2.8301,-2.8301,-2.8301,-2.8301,-2.8301,-2.8301,-2.8301,-2.8301,-2.8301,-2.8301,-2.8301,-2.8301,-2.8301,-2.8301,-2.8301,-2.8301,-2.8301,-2.8301,-2.8301,-2.8301,-2.834,-2.834,-2.835,-2.8623,-2.8896,-2.9033,-2.917,-2.9277,-2.9365,-2.9502,-2.9668,-2.9834,-2.999,-3.0176,-3.0459,-3.0518,-3.0449,-3.0596,-3.0674,-3.0781,-3.0898,-3.0898,-3.0898,-3.0898,-3.0889,-3.0889,-3.0898,-3.0898,-3.0898,-3.0898,-3.0898,-3.0898,-3.0898,-3.0898,-3.0898,-3.0898,-3.0947,-3.1005,-3.0947,-3.0947,-3.0947,-2.5684,-2.5801,-2.665,-2.7129,-2.7412,-2.8018,-2.8301,-2.8301,-2.8301,-2.8301,-2.8301,-2.8301,-2.8301,-2.8301,-2.8301,-2.832,-2.835,-2.8506,-2.8672,-2.8887,-2.917,-2.9316,-2.9558,-2.9695,-2.9512,-2.958,-2.9805,-2.9912,-3.0049,-3.0176,-3.0205,-3.0127,-3.0184,-3.0174,-3.0098,-2.999,-2.9853,-2.9834,-2.9773,-2.9391,-2.8818,-2.8711,-2.8594,-2.8564,-2.8428,-2.8379,-2.8301,-2.8301,-2.8301,-2.8301,-2.8301,-2.8301,-2.8301,-2.8301,-2.8301,-2.8301,-2.8301,-2.8301,-2.8301,-2.8301,-2.8301,-2.8301,-2.8301,-2.8301,-2.8301,-2.8301,-2.8301,-2.8301,-2.8301,-2.8301,-2.8301,-2.8301,-2.8301,-2.8301,-2.8555,-2.8721,-2.8887,-2.9131,-2.9277,-2.9336,-2.9463,-2.958,-2.9687,-2.9853,-3.0049,-3.0371,-3.0498,-3.0469,-3.0752,-3.0898,-3.0898,-3.0898,-3.0898,-3.0898,-3.0898,-3.0898,-3.0898,-3.0898,-3.0898,-3.0898,-3.0898,-3.0898,-3.0898,-3.0898,-3.0898,-3.0898,-3.0898,-3.0898,-3.0898,-3.0898,-3.1005,-3.1054,-3.1005,-3.0947,-3.0947,-2.5723,-2.5888,-2.668,-2.7266,-2.7748,-2.8105,-2.8301,-2.8301,-2.8301,-2.8301,-2.8301,-2.8301,-2.8301,-2.8301,-2.8379,-2.8369,-2.8506,-2.8848,-2.9004,-2.9258,-2.9512,-2.9775,-2.9863,-2.989,-2.9902,-3.0,-3.0176,-3.0469,-3.0713,-3.0723,-3.0723,-3.0869,-3.0898,-3.0879,-3.0762,-3.0557,-3.0293,-3.0234,-3.0098,-2.991,-2.9551,-2.9268,-2.9082,-2.8867,-2.8682,-2.8476,-2.8467,-2.8476,-2.8476,-2.8457,-2.8496,-2.8369,-2.831,-2.8301,-2.8301,-2.8301,-2.8301,-2.8301,-2.8301,-2.8301,-2.8301,-2.8301,-2.8301,-2.8301,-2.8301,-2.8301,-2.8301,-2.8301,-2.8301,-2.8301,-2.8301,-2.831,-2.831,-2.8496,-2.8818,-2.917,-2.9414,-2.9695,-2.9678,-2.9717,-2.9863,-2.998,-3.0078,-3.0234,-3.0449,-3.0781,-3.0898,-3.0898,-3.0898,-3.0898,-3.0898,-3.0898,-3.0898,-3.0898,-3.0898,-3.0898,-3.0898,-3.0898,-3.0898,-3.0898,-3.0898,-3.0898,-3.0898,-3.0898,-3.0898,-3.0898,-3.0898,-3.0898,-3.0898,-3.0898,-3.0947,-3.1005,-3.1005,-3.0947,-3.1005,-2.5947,-2.6309,-2.6816,-2.7275,-2.7757,-2.8115,-2.8301,-2.8301,-2.8301,-2.8301,-2.8301,-2.8301,-2.8301,-2.832,-2.8682,-2.8799,-2.8877,-2.9238,-2.9658,-2.9971,-3.0019,-3.0283,-3.0439,-3.0381,-3.0586,-3.0625,-3.0615,-3.0781,-3.0898,-3.0898,-3.0898,-3.0898,-3.0898,-3.0898,-3.0879,-3.0723,-3.0674,-3.0615,-3.0625,-3.0478,-3.0322,-2.998,-2.9531,-2.9394,-2.944,-2.9336,-2.9336,-2.9381,-2.9336,-2.9238,-2.8994,-2.8691,-2.8506,-2.8408,-2.8379,-2.8359,-2.8359,-2.8301,-2.8301,-2.8301,-2.8301,-2.8301,-2.8301,-2.8301,-2.8301,-2.8301,-2.8301,-2.8301,-2.8301,-2.8301,-2.8301,-2.8359,-2.8408,-2.8857,-2.9238,-2.9629,-2.9951,-3.0088,-3.0176,-3.0332,-3.0527,-3.0566,-3.0586,-3.0664,-3.0674,-3.0898,-3.0898,-3.0898,-3.0898,-3.0898,-3.0898,-3.0898,-3.0898,-3.0898,-3.0898,-3.0898,-3.0898,-3.0898,-3.0898,-3.0898,-3.0898,-3.0898,-3.0898,-3.0898,-3.0898,-3.0898,-3.0898,-3.0898,-3.0898,-3.0898,-3.0898,-3.0947,-3.0947,-3.1005,-3.1054]},{"header":{"parameterUnit":"m.s-1","parameterCategory":1,"la1":31.0,"la2":29.5877,"lo1":-88.7671,"lo2":-86.6584,"dy":0.0162,"dx":0.0185,"nx":115,"ny":88,"refTime":"2026-03-05T00:00:00:Z","depth":0,"parameterNumber":3,"parameterNumberName":"V-component_of_WINDS"},"data":[0.0,0.0,0.0,0.0,0.0,0.0,0.0,0.0,0.0,0.0,0.0,0.0,0.0,0.0,0.0,0.0,0.0,0.0,0.0,0.0,0.0,0.0,0.0,0.0,0.0,0.0,0.0,0.0,0.0,0.0,0.0,0.0,0.0,0.0,0.0,0.0,0.0,0.0,0.0,0.0,0.0,0.0,0.0,0.0,0.0,0.0,0.0,0.0,0.0,0.0,0.0,0.0,0.0,0.0,0.0,0.0,0.0,0.0,0.0,0.0,0.0,0.0,0.0,0.0,0.0,0.0,0.0,0.0,0.0,0.0,0.0,0.0,0.0,0.0,0.0,0.0,0.0,0.0,0.0,0.0,0.0,0.0,0.0,0.0,0.0,0.0,0.0,0.0,0.0,0.0,0.0,0.0,0.0,0.0,0.0,0.0,0.0,0.0,0.0,0.0,0.0,0.0,0.0,0.0,0.0,0.0,0.0,0.0,0.0,0.0,0.0,0.0,0.0,0.0,0.0,0.0,0.0,0.0,0.0,0.0,0.0,0.0,0.0,0.0,0.0,0.0,0.0,0.0,0.0,0.0,0.0,0.0,0.0,0.0,0.0,0.0,0.0,0.0,0.0,0.0,0.0,0.0,0.0,0.0,0.0,0.0,0.0,0.0,0.0,0.0,0.0,0.0,0.0,0.0,0.0,0.0,0.0,0.0,0.0,0.0,0.0,0.0,0.0,0.0,0.0,0.0,0.0,0.0,0.0,0.0,0.0,0.0,0.0,0.0,0.0,0.0,0.0,0.0,0.0,0.0,0.0,0.0,0.0,0.0,0.0,0.0,0.0,0.0,0.0,0.0,0.0,0.0,0.0,0.0,0.0,0.0,0.0,0.0,0.0,0.0,0.0,0.0,0.0,0.0,0.0,0.0,0.0,0.0,0.0,0.0,0.0,0.0,0.0,0.0,0.0,0.0,0.0,0.0,0.0,0.0,0.0,0.0,0.0,0.0,0.0,0.0,0.0,0.0,0.0,0.0,0.0,0.0,0.0,0.0,0.0,0.0,0.0,0.0,0.0,0.0,0.0,0.0,0.0,0.0,0.0,0.0,0.0,0.0,0.0,0.0,0.0,0.0,0.0,0.0,0.0,0.0,0.0,0.0,0.0,0.0,0.0,0.0,0.0,0.0,0.0,0.0,0.0,0.0,0.0,0.0,0.0,0.0,0.0,0.0,0.0,0.0,0.0,0.0,0.0,0.0,0.0,0.0,0.0,0.0,0.0,0.0,0.0,0.0,0.0,0.0,0.0,0.0,0.0,0.0,0.0,0.0,0.0,0.0,0.0,0.0,0.0,0.0,0.0,0.0,0.0,0.0,0.0,0.0,0.0,0.0,0.0,0.0,0.0,0.0,0.0,0.0,0.0,0.0,0.0,0.0,0.0,0.0,0.0,0.0,0.0,0.0,0.0,0.0,0.0,0.0,0.0,0.0,0.0,0.0,0.0,0.0,0.0,0.0,0.0,0.0,0.0,0.0,0.0,0.0,0.0,0.0,0.0,0.0,0.0,0.0,0.0,0.0,0.0,0.0,0.0,0.0,0.0,0.0,0.0,0.0,0.0,0.0,0.0,0.0,0.0,0.0,0.0,0.0,0.0,0.0,0.0,0.0,0.0,0.0,0.0,0.0,0.0,0.0,0.0,0.0,0.0,0.0,0.0,0.0,0.0,0.0,0.0,0.0,0.0,0.0,0.0,0.0,0.0,0.0,0.0,0.0,0.0,0.0,0.0,0.0,0.0,0.0,0.0,0.0,0.0,0.0,0.0,0.0,0.0,0.0,0.0,0.0,0.0,0.0,0.0,0.0,0.0,0.0,0.0,0.0,0.0,0.0,0.0,0.0,0.0,0.0,0.0,0.0,0.0,0.0,0.0,0.0,0.0,0.0,0.0,0.0,0.0,0.0,0.0,0.0,0.0,0.0,0.0,0.0,0.0,0.0,0.0,0.0,0.0,0.0,0.0,0.0,0.0,0.0,0.0,0.0,0.0,0.0,0.0,0.0,0.0,0.0,0.0,0.0,0.0,0.0,0.0,0.0,0.0,0.0,0.0,0.0,0.0,0.0,0.0,0.0,0.0,0.0,0.0,0.0,0.0,0.0,0.0,0.0,0.0,0.0,0.0,0.0,0.0,0.0,0.0,0.0,0.0,0.0,0.0,0.0,0.0,0.0,0.0,0.0,0.0,0.0,0.0,0.0,0.0,0.0,0.0,0.0,0.0,0.0,0.0,0.0,0.0,0.0,0.0,0.0,0.0,0.0,0.0,0.0,0.0,0.0,0.0,0.0,0.0,0.0,0.0,0.0,0.0,0.0,0.0,0.0,0.0,0.0,0.0,0.0,0.0,0.0,0.0,0.0,0.0,0.0,0.0,0.0,0.0,0.0,0.0,0.0,0.0,0.0,0.0,0.0,0.0,0.0,0.0,0.0,0.0,0.0,0.0,0.0,0.0,0.0,0.0,0.0,0.0,0.0,0.0,0.0,0.0,0.0,0.0,0.0,0.0,0.0,0.0,0.0,0.0,0.0,0.0,0.0,0.0,0.0,0.0,0.0,0.0,0.0,0.0,0.0,0.0,0.0,0.0,0.0,0.0,0.0,0.0,0.0,0.0,0.0,0.0,0.0,0.0,0.0,0.0,0.0,0.0,0.0,0.0,0.0,0.0,0.0,0.0,0.0,0.0,0.0,0.0,0.0,0.0,0.0,0.0,0.0,0.0,0.0,0.0,0.0,0.0,0.0,0.0,0.0,0.0,0.0,0.0,0.0,0.0,0.0,0.0,0.0,0.0,0.0,0.0,0.0,0.0,0.0,0.0,0.0,0.0,0.0,0.0,0.0,0.0,0.0,0.0,0.0,0.0,0.0,0.0,0.0,0.0,0.0,0.0,0.0,0.0,0.0,0.0,0.0,0.0,0.0,0.0,0.0,0.0,0.0,0.0,0.0,0.0,0.0,0.0,0.0,0.0,0.0,0.0,0.0,0.0,0.0,0.0,0.0,0.0,0.0,0.0,0.0,0.0,0.0,0.0,0.0,0.0,0.0,0.0,0.0,0.0,0.0,0.0,0.0,0.0,0.0,0.0,0.0,0.0,0.0,0.0,0.0,0.0,0.0,0.0,0.0,0.0,0.0,0.0,0.0,0.0,0.0,0.0,0.0,0.0,0.0,0.0,0.0,0.0,0.0,0.0,0.0,0.0,0.0,0.0,0.0,0.0,0.0,0.0,0.0,0.0,0.0,0.0,0.0,0.0,0.0,0.0,0.0,0.0,0.0,0.0,0.0,0.0,0.0,0.0,0.0,0.0,0.0,0.0,0.0,0.0,0.0,0.0,0.0,0.0,0.0,0.0,0.0,0.0,0.0,0.0,0.0,0.0,0.0,0.0,0.0,0.0,0.0,0.0,0.0,0.0,0.0,0.0,0.0,0.0,0.0,0.0,0.0,0.0,0.0,0.0,0.0,0.0,0.0,0.0,0.0,0.0,0.0,0.0,0.0,0.0,0.0,0.0,0.0,0.0,0.0,0.0,0.0,0.0,0.0,0.0,0.0,0.0,0.0,0.0,0.0,0.0,0.0,0.0,0.0,0.0,0.0,0.0,0.0,0.0,0.0,0.0,0.0,0.0,0.0,0.0,0.0,0.0,0.0,0.0,0.0,0.0,0.0,0.0,0.0,0.0,0.0,0.0,0.0,0.0,0.0,0.0,0.0,0.0,0.0,0.0,0.0,0.0,0.0,0.0,0.0,0.0,0.0,0.0,0.0,0.0,0.0,0.0,0.0,0.0,0.0,0.0,0.0,0.0,0.0,0.0,0.0,0.0,0.0,0.0,0.0,0.0,0.0,0.0,0.0,0.0,0.0,0.0,0.0,0.0,0.0,0.0,0.0,0.0,0.0,0.0,0.0,0.0,0.0,0.0,0.0,0.0,0.0,0.0,0.0,0.0,0.0,0.0,0.0,0.0,0.0,0.0,0.0,0.0,0.0,0.0,0.0,0.0,0.0,0.0,0.0,0.0,0.0,0.0,0.0,0.0,0.0,0.0,0.0,0.0,0.0,0.0,0.0,0.0,0.0,0.0,0.0,0.0,0.0,0.0,0.0,0.0,0.0,0.0,0.0,0.0,0.0,0.0,0.0,0.0,0.0,0.0,0.0,0.0,0.0,0.0,0.0,0.0,0.0,0.0,0.0,0.0,0.0,0.0,0.0,0.0,0.0,0.0,0.0,0.0,0.0,0.0,0.0,0.0,0.0,1.706,0.0,0.0,0.0,0.0,0.0,0.0,0.0,0.0,0.0,0.0,0.0,0.0,0.0,0.0,0.0,0.0,0.0,0.0,0.0,0.0,0.0,0.0,0.0,0.0,0.0,0.0,0.0,0.0,0.0,0.0,0.0,0.0,0.0,0.0,0.0,0.0,0.0,0.0,0.0,0.0,0.0,0.0,0.0,0.0,0.0,0.0,0.0,0.0,0.0,0.0,0.0,0.0,0.0,0.0,0.0,0.0,0.0,0.0,0.0,0.0,0.0,0.0,0.0,0.0,0.0,0.0,0.0,0.0,0.0,0.0,0.0,0.0,0.0,0.0,0.0,0.0,0.0,0.0,0.0,0.0,0.0,0.0,0.0,0.0,0.0,0.0,0.0,0.0,0.0,0.0,0.0,0.0,0.0,0.0,0.0,0.0,0.0,0.0,0.0,0.0,0.0,0.0,0.0,0.0,0.0,0.0,0.0,0.0,0.0,0.0,1.6851,1.7273,1.7285,1.7417,1.7693,0.0,0.0,0.0,0.0,0.0,0.0,0.0,0.0,0.0,0.0,0.0,0.0,0.0,0.0,0.0,0.0,0.0,0.0,0.0,0.0,0.0,0.0,0.0,0.0,0.0,0.0,0.0,0.0,0.0,0.0,0.0,0.0,0.0,0.0,0.0,0.0,0.0,0.0,0.0,0.0,0.0,0.0,0.0,0.0,0.0,0.0,0.0,0.0,0.0,0.0,0.0,0.0,0.0,0.0,0.0,0.0,0.0,0.0,0.0,0.0,0.0,0.0,0.0,0.0,0.0,0.0,0.0,0.0,0.0,0.0,0.0,0.0,0.0,0.0,0.0,0.0,0.0,0.0,0.0,0.0,0.0,0.0,0.0,0.0,0.0,0.0,0.0,0.0,0.0,0.0,0.0,0.0,0.0,0.0,0.0,0.0,0.0,0.0,0.0,0.0,0.0,0.0,0.0,0.0,0.0,0.0,0.0,0.0,0.0,0.0,0.0,0.0,1.8018,1.8139,1.8154,0.0,0.0,0.0,0.0,0.0,0.0,0.0,0.0,0.0,0.0,0.0,0.0,0.0,0.0,0.0,0.0,0.0,0.0,0.0,0.0,0.0,0.0,0.0,0.0,0.0,0.0,0.0,0.0,0.0,0.0,0.0,0.0,0.0,0.0,0.0,0.0,0.0,0.0,0.0,0.0,0.0,0.0,0.0,0.0,0.0,0.0,0.0,0.0,0.0,0.0,0.0,0.0,0.0,0.0,0.0,0.0,0.0,0.0,0.0,0.0,0.0,0.0,0.0,0.0,0.0,0.0,0.0,0.0,0.0,0.0,0.0,0.0,0.0,0.0,0.0,0.0,0.0,0.0,0.0,0.0,0.0,0.0,0.0,0.0,0.0,0.0,0.0,0.0,0.0,0.0,0.0,0.0,0.0,0.0,0.0,0.0,0.0,0.0,0.0,0.0,0.0,0.0,0.0,0.0,0.0,0.0,0.0,0.0,0.0,0.0,1.8139,1.834,1.8583,0.0,1.8709,0.0,0.0,0.0,0.0,0.0,0.0,0.0,0.0,0.0,0.0,0.0,0.0,0.0,0.0,0.0,0.0,0.0,0.0,0.0,0.0,0.0,0.0,0.0,0.0,0.0,0.0,0.0,0.0,0.0,0.0,0.0,0.0,0.0,0.0,0.0,0.0,0.0,0.0,0.0,0.0,0.0,0.0,0.0,0.0,0.0,0.0,0.0,0.0,0.0,0.0,0.0,0.0,0.0,0.0,0.0,0.0,0.0,0.0,0.0,0.0,0.0,0.0,0.0,0.0,0.0,0.0,0.0,0.0,0.0,0.0,0.0,0.0,0.0,0.0,0.0,0.0,0.0,0.0,0.0,0.0,0.0,0.0,0.0,0.0,0.0,0.0,0.0,0.0,0.0,0.0,0.0,0.0,0.0,0.0,0.0,0.0,0.0,0.0,0.0,0.0,0.0,0.0,0.0,0.0,0.0,0.0,0.0,0.0,0.0,0.0,0.0,1.8881,1.9146,1.9098,0.0,0.0,0.0,0.0,0.0,0.0,0.0,0.0,0.0,0.0,0.0,0.0,0.0,0.0,0.0,0.0,0.0,0.0,0.0,0.0,0.0,0.0,0.0,0.0,0.0,0.0,0.0,0.0,0.0,0.0,0.0,0.0,0.0,0.0,0.0,0.0,0.0,0.0,0.0,0.0,0.0,0.0,0.0,0.0,0.0,0.0,0.0,0.0,0.0,0.0,0.0,0.0,0.0,0.0,0.0,0.0,0.0,0.0,0.0,0.0,0.0,0.0,0.0,0.0,0.0,0.0,0.0,0.0,0.0,0.0,0.0,0.0,0.0,0.0,0.0,0.0,0.0,0.0,0.0,0.0,0.0,0.0,0.0,0.0,0.0,0.0,0.0,0.0,0.0,0.0,0.0,0.0,0.0,0.0,0.0,0.0,0.0,0.0,0.0,0.0,0.0,0.0,0.0,0.0,0.0,0.0,0.0,0.0,0.0,0.0,1.9277,0.0,1.9317,1.9512,1.9443,1.9083,0.0,0.0,0.0,0.0,0.0,0.0,0.0,0.0,0.0,0.0,0.0,0.0,0.0,0.0,0.0,0.0,0.0,0.0,0.0,0.0,0.0,0.0,0.0,0.0,0.0,0.0,0.0,0.0,0.0,0.0,0.0,0.0,0.0,0.0,0.0,0.0,0.0,0.0,0.0,0.0,0.0,0.0,0.0,0.0,0.0,0.0,0.0,0.0,0.0,0.0,0.0,0.0,0.0,0.0,0.0,0.0,0.0,0.0,0.0,0.0,0.0,0.0,0.0,0.0,0.0,0.0,0.0,0.0,0.0,0.0,0.0,0.0,0.0,0.0,0.0,0.0,0.0,0.0,0.0,0.0,0.0,0.0,0.0,0.0,0.0,0.0,0.0,0.0,0.0,0.0,0.0,0.0,0.0,0.0,0.0,0.0,0.0,0.0,0.0,0.0,0.0,0.0,0.0,0.0,0.0,0.0,0.0,0.0,0.0,1.946,1.946,1.9591,1.9591,1.9643,0.0,0.0,0.0,0.0,0.0,0.0,0.0,0.0,0.0,0.0,0.0,0.0,0.0,0.0,0.0,0.0,0.0,0.0,0.0,0.0,0.0,0.0,0.0,0.0,0.0,0.0,0.0,0.0,0.0,0.0,0.0,0.0,0.0,0.0,0.0,0.0,0.0,0.0,0.0,0.0,0.0,0.0,0.0,0.0,0.0,0.0,0.0,0.0,0.0,0.0,0.0,0.0,0.0,0.0,0.0,0.0,0.0,0.0,0.0,0.0,0.0,0.0,0.0,0.0,0.0,0.0,0.0,0.0,0.0,0.0,0.0,0.0,0.0,0.0,0.0,0.0,0.0,0.0,0.0,0.0,0.0,0.0,0.0,0.0,0.0,0.0,0.0,0.0,0.0,0.0,0.0,0.0,0.0,0.0,0.0,0.0,0.0,0.0,0.0,0.0,0.0,0.0,0.0,0.0,0.0,0.0,0.0,0.0,0.0,1.9862,1.9875,1.9926,1.9978,1.9965,1.9991,0.0,0.0,0.0,0.0,0.0,0.0,0.0,0.0,0.0,0.0,0.0,0.0,0.0,0.0,0.0,0.0,0.0,0.0,0.0,0.0,0.0,0.0,0.0,0.0,0.0,0.0,0.0,0.0,0.0,0.0,0.0,0.0,0.0,0.0,0.0,0.0,0.0,0.0,0.0,0.0,0.0,0.0,0.0,0.0,0.0,0.0,0.0,0.0,0.0,0.0,0.0,0.0,0.0,0.0,0.0,0.0,0.0,0.0,0.0,0.0,0.0,0.0,0.0,0.0,0.0,0.0,0.0,0.0,0.0,0.0,0.0,0.0,0.0,0.0,0.0,0.0,0.0,0.0,0.0,0.0,0.0,0.0,0.0,0.0,0.0,0.0,0.0,0.0,0.0,0.0,0.0,0.0,0.0,0.0,0.0,0.0,0.0,0.0,0.0,0.0,0.0,0.0,0.0,0.0,0.0,0.0,0.0,0.0,0.0,1.9926,0.0,2.0181,0.0,2.0168,2.0283,0.0,0.0,0.0,0.0,0.0,0.0,0.0,0.0,0.0,0.0,0.0,0.0,0.0,0.0,0.0,0.0,0.0,0.0,0.0,0.0,0.0,0.0,0.0,0.0,0.0,0.0,0.0,0.0,0.0,0.0,0.0,0.0,0.0,0.0,0.0,0.0,0.0,0.0,0.0,0.0,0.0,0.0,0.0,0.0,0.0,0.0,0.0,0.0,0.0,0.0,0.0,0.0,0.0,0.0,0.0,0.0,0.0,0.0,0.0,0.0,0.0,0.0,0.0,0.0,0.0,0.0,0.0,0.0,0.0,0.0,0.0,0.0,0.0,0.0,0.0,0.0,0.0,0.0,0.0,0.0,0.0,0.0,0.0,0.0,0.0,0.0,0.0,0.0,0.0,0.0,0.0,0.0,0.0,0.0,0.0,0.0,0.0,0.0,0.0,0.0,0.0,0.0,0.0,0.0,0.0,0.0,0.0,0.0,2.02,1.9753,2.0161,2.0186,1.9751,2.0186,2.0472,0.0,0.0,0.0,0.0,0.0,0.0,0.0,0.0,0.0,0.0,0.0,0.0,0.0,0.0,0.0,0.0,0.0,0.0,0.0,0.0,0.0,0.0,0.0,0.0,0.0,0.0,0.0,0.0,0.0,0.0,0.0,0.0,0.0,0.0,0.0,0.0,0.0,0.0,0.0,0.0,0.0,0.0,0.0,0.0,0.0,0.0,0.0,0.0,0.0,0.0,0.0,0.0,0.0,0.0,0.0,0.0,0.0,0.0,0.0,0.0,0.0,0.0,0.0,0.0,0.0,0.0,0.0,0.0,0.0,0.0,0.0,0.0,0.0,0.0,0.0,0.0,0.0,0.0,0.0,0.0,0.0,0.0,0.0,0.0,0.0,0.0,0.0,0.0,0.0,0.0,0.0,0.0,0.0,0.0,0.0,0.0,0.0,0.0,0.0,0.0,0.0,0.0,0.0,0.0,0.0,0.0,0.0,0.0,0.0,2.0285,1.9987,1.9974,2.0234,2.0469,2.0788,0.0,0.0,0.0,0.0,0.0,0.0,0.0,0.0,0.0,0.0,0.0,0.0,0.0,0.0,0.0,0.0,0.0,0.0,0.0,0.0,0.0,0.0,0.0,0.0,0.0,0.0,0.0,0.0,0.0,0.0,0.0,0.0,0.0,0.0,0.0,0.0,0.0,0.0,0.0,0.0,0.0,0.0,0.0,0.0,0.0,0.0,0.0,0.0,0.0,0.0,0.0,0.0,0.0,0.0,0.0,0.0,0.0,0.0,0.0,0.0,0.0,0.0,0.0,0.0,0.0,0.0,0.0,0.0,0.0,0.0,0.0,0.0,0.0,0.0,0.0,0.0,0.0,0.0,0.0,0.0,0.0,0.0,0.0,0.0,0.0,0.0,0.0,0.0,0.0,0.0,0.0,0.0,0.0,0.0,0.0,0.0,0.0,0.0,0.0,0.0,0.0,0.0,0.0,0.0,0.0,0.0,0.0,0.0,0.0,2.1385,2.0977,2.0851,2.1049,2.1249,2.1486,2.1728,0.0,0.0,0.0,0.0,0.0,0.0,0.0,0.0,0.0,0.0,0.0,0.0,0.0,0.0,0.0,0.0,0.0,0.0,0.0,0.0,0.0,0.0,0.0,0.0,0.0,0.0,0.0,0.0,0.0,0.0,0.0,0.0,0.0,0.0,0.0,0.0,0.0,0.0,0.0,0.0,0.0,0.0,0.0,0.0,0.0,0.0,0.0,0.0,0.0,0.0,0.0,0.0,0.0,0.0,0.0,0.0,0.0,0.0,0.0,0.0,0.0,0.0,0.0,0.0,0.0,0.0,0.0,0.0,0.0,0.0,0.0,0.0,0.0,0.0,0.0,0.0,0.0,0.0,0.0,0.0,0.0,0.0,0.0,0.0,0.0,0.0,0.0,0.0,0.0,0.0,0.0,0.0,0.0,0.0,0.0,0.0,0.0,0.0,0.0,0.0,0.0,0.0,0.0,0.0,0.0,0.0,0.0,0.0,2.2925,2.2885,2.2578,2.204,2.232,2.246,0.0,0.0,0.0,0.0,0.0,0.0,0.0,0.0,0.0,0.0,0.0,0.0,0.0,0.0,0.0,0.0,0.0,0.0,0.0,0.0,0.0,0.0,0.0,0.0,0.0,0.0,0.0,0.0,0.0,0.0,0.0,0.0,0.0,0.0,0.0,0.0,0.0,0.0,0.0,0.0,0.0,0.0,0.0,0.0,0.0,0.0,0.0,0.0,0.0,0.0,0.0,0.0,0.0,0.0,0.0,0.0,0.0,0.0,0.0,0.0,0.0,0.0,0.0,0.0,0.0,0.0,0.0,0.0,0.0,0.0,0.0,0.0,0.0,0.0,0.0,0.0,0.0,0.0,0.0,0.0,0.0,0.0,0.0,0.0,0.0,0.0,0.0,0.0,0.0,0.0,0.0,0.0,0.0,0.0,0.0,0.0,0.0,0.0,0.0,0.0,0.0,0.0,0.0,0.0,0.0,0.0,0.0,0.0,0.0,2.4556,2.4554,2.3897,2.2569,2.2499,2.2607,0.0,0.0,0.0,0.0,0.0,0.0,0.0,0.0,0.0,0.0,0.0,0.0,0.0,0.0,0.0,0.0,0.0,0.0,0.0,0.0,0.0,0.0,0.0,0.0,0.0,0.0,0.0,0.0,0.0,0.0,0.0,0.0,0.0,0.0,0.0,0.0,0.0,0.0,0.0,0.0,0.0,0.0,0.0,0.0,0.0,0.0,0.0,0.0,0.0,0.0,0.0,0.0,0.0,0.0,0.0,0.0,0.0,0.0,0.0,0.0,0.0,0.0,0.0,0.0,0.0,0.0,0.0,0.0,0.0,0.0,0.0,0.0,0.0,0.0,0.0,0.0,0.0,0.0,0.0,0.0,0.0,0.0,0.0,0.0,0.0,0.0,0.0,0.0,0.0,0.0,0.0,0.0,0.0,0.0,0.0,0.0,0.0,0.0,0.0,0.0,0.0,0.0,0.0,0.0,0.0,0.0,0.0,0.0,2.512,2.5854,2.5928,2.563,2.493,2.3917,2.3375,0.0,0.0,0.0,0.0,0.0,0.0,0.0,0.0,0.0,0.0,0.0,0.0,0.0,0.0,0.0,0.0,0.0,0.0,0.0,0.0,0.0,0.0,0.0,0.0,0.0,0.0,0.0,0.0,0.0,0.0,0.0,0.0,0.0,0.0,0.0,0.0,0.0,0.0,0.0,0.0,0.0,0.0,0.0,0.0,0.0,0.0,0.0,0.0,0.0,0.0,0.0,0.0,0.0,0.0,0.0,0.0,0.0,0.0,0.0,0.0,0.0,0.0,0.0,0.0,0.0,0.0,0.0,0.0,0.0,0.0,0.0,0.0,0.0,0.0,0.0,0.0,0.0,0.0,0.0,0.0,0.0,0.0,0.0,0.0,0.0,0.0,0.0,0.0,0.0,0.0,0.0,0.0,0.0,0.0,0.0,0.0,0.0,0.0,0.0,0.0,0.0,0.0,0.0,0.0,0.0,0.0,0.0,0.0,2.5857,2.6817,2.7063,2.7429,2.7889,2.5886,2.4575,0.0,0.0,0.0,0.0,0.0,0.0,0.0,0.0,0.0,0.0,0.0,0.0,0.0,0.0,0.0,0.0,0.0,0.0,0.0,0.0,0.0,0.0,0.0,0.0,0.0,0.0,0.0,0.0,0.0,0.0,0.0,0.0,0.0,0.0,0.0,0.0,0.0,0.0,0.0,0.0,0.0,0.0,0.0,0.0,0.0,0.0,0.0,0.0,0.0,0.0,0.0,0.0,0.0,0.0,0.0,0.0,0.0,0.0,0.0,0.0,0.0,0.0,0.0,0.0,0.0,0.0,0.0,0.0,0.0,0.0,0.0,0.0,0.0,0.0,0.0,0.0,0.0,0.0,0.0,0.0,0.0,0.0,0.0,0.0,0.0,0.0,0.0,0.0,0.0,0.0,0.0,0.0,0.0,0.0,0.0,0.0,0.0,0.0,0.0,0.0,0.0,0.0,0.0,0.0,0.0,0.0,0.0,0.0,2.6645,2.7189,2.794,2.8398,2.8512,2.6691,2.5539,0.0,0.0,0.0,0.0,0.0,0.0,0.0,0.0,0.0,0.0,0.0,0.0,0.0,0.0,0.0,0.0,0.0,0.0,0.0,0.0,0.0,0.0,0.0,0.0,0.0,0.0,0.0,0.0,0.0,0.0,0.0,0.0,0.0,0.0,0.0,0.0,0.0,0.0,0.0,0.0,0.0,0.0,0.0,0.0,0.0,0.0,0.0,0.0,2.6093,0.0,0.0,0.0,0.0,0.0,0.0,0.0,0.0,0.0,0.0,0.0,0.0,0.0,0.0,0.0,0.0,0.0,0.0,0.0,0.0,0.0,0.0,0.0,0.0,0.0,0.0,0.0,0.0,0.0,0.0,0.0,0.0,0.0,0.0,0.0,0.0,0.0,0.0,0.0,0.0,0.0,0.0,0.0,0.0,0.0,0.0,0.0,0.0,0.0,0.0,0.0,0.0,0.0,0.0,0.0,0.0,0.0,0.0,0.0,2.7276,2.8353,2.8961,2.9425,2.9691,2.7958,2.6606,0.0,0.0,0.0,0.0,0.0,0.0,0.0,0.0,0.0,0.0,0.0,0.0,0.0,0.0,0.0,0.0,0.0,0.0,0.0,0.0,0.0,0.0,0.0,0.0,0.0,0.0,0.0,0.0,0.0,0.0,0.0,0.0,0.0,0.0,0.0,0.0,0.0,0.0,0.0,0.0,0.0,0.0,0.0,0.0,0.0,0.0,0.0,0.0,0.0,0.0,0.0,0.0,0.0,0.0,0.0,0.0,0.0,0.0,0.0,0.0,0.0,0.0,0.0,0.0,0.0,0.0,0.0,0.0,0.0,0.0,0.0,0.0,0.0,0.0,0.0,0.0,0.0,0.0,0.0,0.0,0.0,0.0,0.0,0.0,0.0,0.0,0.0,0.0,0.0,0.0,0.0,0.0,0.0,0.0,0.0,0.0,0.0,0.0,0.0,0.0,0.0,0.0,0.0,0.0,0.0,0.0,0.0,2.6701,2.7852,2.9509,2.9928,3.0395,3.0962,2.9141,2.7597,2.6442,0.0,0.0,0.0,0.0,0.0,0.0,0.0,0.0,0.0,0.0,0.0,0.0,0.0,0.0,0.0,0.0,0.0,0.0,0.0,0.0,0.0,0.0,0.0,0.0,0.0,0.0,0.0,0.0,0.0,0.0,0.0,0.0,0.0,0.0,0.0,0.0,0.0,0.0,2.6089,2.78,0.0,0.0,0.0,0.0,0.0,0.0,0.0,0.0,2.7449,0.0,0.0,0.0,0.0,0.0,0.0,0.0,0.0,0.0,0.0,0.0,0.0,0.0,0.0,0.0,0.0,0.0,0.0,0.0,0.0,0.0,0.0,0.0,0.0,0.0,0.0,0.0,0.0,0.0,0.0,0.0,0.0,0.0,0.0,0.0,0.0,0.0,0.0,0.0,0.0,0.0,0.0,0.0,0.0,0.0,0.0,0.0,0.0,0.0,0.0,0.0,0.0,0.0,0.0,0.0,0.0,2.6334,2.7401,2.8513,2.9596,3.051,3.0996,3.0962,2.9279,2.8043,2.734,0.0,0.0,0.0,0.0,0.0,0.0,0.0,0.0,0.0,0.0,0.0,0.0,0.0,0.0,0.0,0.0,0.0,0.0,0.0,0.0,0.0,0.0,0.0,0.0,0.0,0.0,0.0,0.0,0.0,0.0,0.0,0.0,0.0,0.0,0.0,0.0,0.0,0.0,0.0,2.8784,2.9523,0.0,0.0,0.0,0.0,0.0,0.0,0.0,0.0,2.8196,0.0,0.0,0.0,0.0,0.0,0.0,0.0,0.0,0.0,0.0,0.0,0.0,0.0,0.0,0.0,0.0,0.0,0.0,0.0,0.0,0.0,0.0,0.0,0.0,0.0,0.0,0.0,0.0,0.0,0.0,0.0,0.0,0.0,0.0,0.0,0.0,0.0,0.0,0.0,0.0,0.0,0.0,0.0,0.0,0.0,0.0,0.0,0.0,0.0,0.0,0.0,0.0,0.0,0.0,0.0,2.7118,2.7925,2.8968,3.0285,3.0906,3.1151,3.0962,2.9318,2.8165,0.0,0.0,0.0,0.0,0.0,0.0,0.0,0.0,0.0,0.0,0.0,0.0,0.0,0.0,0.0,0.0,0.0,0.0,0.0,0.0,0.0,0.0,0.0,0.0,0.0,0.0,0.0,0.0,0.0,0.0,0.0,0.0,0.0,0.0,0.0,0.0,0.0,0.0,0.0,0.0,3.0535,3.1143,3.1821,0.0,0.0,0.0,0.0,0.0,0.0,3.006,2.9509,0.0,0.0,0.0,0.0,0.0,0.0,0.0,0.0,0.0,0.0,0.0,0.0,0.0,0.0,0.0,0.0,0.0,0.0,0.0,0.0,0.0,0.0,0.0,0.0,0.0,0.0,0.0,0.0,0.0,0.0,0.0,0.0,0.0,0.0,0.0,0.0,0.0,0.0,0.0,0.0,0.0,0.0,0.0,0.0,0.0,0.0,0.0,0.0,0.0,0.0,0.0,0.0,0.0,0.0,0.0,2.7885,2.8285,2.9271,3.0911,3.1131,3.1064,3.074,2.9215,2.8082,0.0,0.0,0.0,0.0,0.0,0.0,0.0,0.0,0.0,0.0,0.0,0.0,0.0,0.0,0.0,0.0,0.0,0.0,0.0,0.0,0.0,0.0,0.0,0.0,0.0,0.0,0.0,0.0,0.0,0.0,0.0,0.0,0.0,0.0,0.0,0.0,0.0,0.0,0.0,0.0,0.0,3.2646,3.3383,3.2761,0.0,0.0,0.0,0.0,3.2282,3.157,0.0,0.0,0.0,0.0,0.0,0.0,0.0,0.0,0.0,0.0,0.0,0.0,0.0,0.0,0.0,0.0,0.0,0.0,0.0,0.0,0.0,0.0,0.0,0.0,0.0,0.0,0.0,0.0,0.0,0.0,0.0,0.0,0.0,0.0,0.0,0.0,0.0,0.0,0.0,0.0,0.0,0.0,0.0,0.0,0.0,0.0,0.0,0.0,0.0,0.0,0.0,0.0,0.0,0.0,0.0,0.0,2.8001,2.8453,2.9437,3.0911,3.1131,3.0808,2.9953,2.8926,2.7836,0.0,0.0,0.0,0.0,0.0,0.0,0.0,0.0,0.0,0.0,0.0,0.0,0.0,0.0,0.0,0.0,0.0,0.0,0.0,0.0,0.0,0.0,0.0,0.0,0.0,0.0,0.0,0.0,0.0,0.0,0.0,0.0,0.0,0.0,0.0,0.0,0.0,0.0,0.0,0.0,0.0,3.2872,3.3725,3.3676,3.3594,0.0,0.0,3.309,3.2867,3.2463,0.0,0.0,0.0,0.0,0.0,0.0,0.0,0.0,0.0,0.0,0.0,0.0,0.0,0.0,0.0,0.0,0.0,0.0,0.0,0.0,0.0,0.0,0.0,0.0,0.0,0.0,0.0,0.0,0.0,0.0,0.0,0.0,0.0,0.0,0.0,0.0,0.0,0.0,0.0,0.0,0.0,0.0,0.0,0.0,0.0,0.0,0.0,0.0,0.0,0.0,0.0,0.0,0.0,0.0,0.0,2.6417,2.8196,2.8586,2.9532,3.1027,3.1171,3.0777,2.988,2.8953,2.7863,0.0,0.0,0.0,0.0,0.0,0.0,0.0,0.0,0.0,0.0,0.0,0.0,0.0,0.0,0.0,0.0,0.0,0.0,0.0,0.0,0.0,0.0,0.0,0.0,0.0,0.0,0.0,0.0,0.0,0.0,0.0,0.0,0.0,0.0,0.0,0.0,0.0,0.0,0.0,0.0,0.0,0.0,3.6158,3.5555,0.0,0.0,0.0,3.5326,3.5835,0.0,0.0,0.0,0.0,0.0,0.0,0.0,0.0,0.0,0.0,0.0,0.0,0.0,0.0,0.0,0.0,0.0,0.0,0.0,0.0,0.0,0.0,0.0,0.0,0.0,0.0,0.0,0.0,0.0,0.0,0.0,0.0,0.0,0.0,0.0,0.0,0.0,0.0,0.0,0.0,0.0,0.0,0.0,0.0,0.0,0.0,0.0,0.0,0.0,0.0,0.0,0.0,0.0,0.0,0.0,0.0,0.0,2.8367,2.8701,2.9627,3.1123,3.119,3.0712,2.9652,2.891,0.0,0.0,0.0,0.0,0.0,0.0,0.0,0.0,0.0,0.0,0.0,0.0,0.0,0.0,0.0,0.0,0.0,0.0,0.0,0.0,0.0,0.0,0.0,0.0,0.0,0.0,0.0,2.4312,0.0,0.0,0.0,0.0,0.0,0.0,0.0,0.0,0.0,0.0,0.0,0.0,0.0,0.0,3.5821,3.8148,3.7562,3.7524,0.0,0.0,3.753,3.8264,3.6979,3.5492,0.0,0.0,0.0,0.0,0.0,0.0,0.0,0.0,0.0,0.0,0.0,0.0,0.0,0.0,0.0,0.0,0.0,0.0,0.0,0.0,0.0,0.0,0.0,0.0,0.0,0.0,0.0,0.0,0.0,0.0,0.0,0.0,0.0,0.0,0.0,0.0,0.0,0.0,0.0,0.0,0.0,0.0,0.0,0.0,0.0,0.0,0.0,0.0,0.0,0.0,0.0,0.0,0.0,0.0,0.0,2.8429,2.8811,2.9719,3.1123,3.119,3.0439,2.8927,2.8624,2.7699,0.0,0.0,0.0,0.0,0.0,0.0,0.0,0.0,0.0,0.0,0.0,0.0,0.0,0.0,0.0,0.0,0.0,0.0,0.0,0.0,0.0,0.0,0.0,0.0,0.0,0.0,0.0,0.0,0.0,0.0,0.0,0.0,0.0,0.0,0.0,0.0,0.0,0.0,0.0,0.0,0.0,3.6899,3.8634,3.9443,3.9929,0.0,0.0,3.9276,3.8907,3.7809,3.6588,3.5406,0.0,0.0,0.0,0.0,0.0,0.0,0.0,0.0,0.0,0.0,0.0,0.0,0.0,0.0,0.0,0.0,0.0,0.0,0.0,0.0,0.0,0.0,0.0,0.0,0.0,0.0,0.0,0.0,0.0,0.0,0.0,0.0,0.0,0.0,0.0,0.0,0.0,0.0,0.0,0.0,0.0,0.0,0.0,0.0,0.0,0.0,0.0,0.0,0.0,0.0,0.0,0.0,0.0,2.7257,2.8479,2.9284,3.0159,3.114,3.119,3.068,2.9627,2.9009,2.8083,0.0,0.0,0.0,0.0,0.0,0.0,0.0,0.0,0.0,0.0,0.0,0.0,0.0,0.0,0.0,0.0,0.0,0.0,0.0,0.0,0.0,0.0,0.0,0.0,0.0,0.0,0.0,0.0,2.6874,2.7117,2.7384,0.0,0.0,0.0,0.0,0.0,0.0,0.0,0.0,0.0,0.0,3.811,3.9787,4.0293,0.0,0.0,4.1165,4.0646,4.0633,3.9329,3.794,3.6717,3.5389,0.0,0.0,0.0,0.0,0.0,0.0,0.0,0.0,0.0,0.0,0.0,0.0,0.0,0.0,0.0,0.0,0.0,0.0,0.0,0.0,0.0,0.0,0.0,0.0,0.0,0.0,0.0,0.0,0.0,0.0,0.0,0.0,0.0,0.0,0.0,0.0,0.0,0.0,0.0,0.0,0.0,0.0,0.0,0.0,0.0,0.0,0.0,0.0,0.0,0.0,0.0,0.0,2.7632,2.859,2.9589,3.0427,3.119,3.119,3.0852,3.0125,2.9252,2.8364,0.0,0.0,0.0,0.0,0.0,0.0,0.0,0.0,0.0,0.0,0.0,0.0,0.0,0.0,0.0,0.0,0.0,0.0,0.0,0.0,0.0,0.0,0.0,0.0,0.0,0.0,0.0,0.0,2.7243,2.755,2.7818,0.0,0.0,0.0,0.0,0.0,0.0,0.0,0.0,0.0,0.0,3.9332,4.0935,4.1408,4.1902,4.2849,4.2297,4.1805,4.1892,4.0574,3.9223,3.8347,0.0,0.0,0.0,0.0,0.0,0.0,0.0,0.0,0.0,0.0,0.0,0.0,0.0,0.0,0.0,0.0,0.0,0.0,0.0,0.0,0.0,0.0,0.0,0.0,0.0,0.0,0.0,2.3427,0.0,0.0,2.3434,0.0,0.0,0.0,0.0,0.0,0.0,0.0,0.0,0.0,0.0,0.0,0.0,0.0,0.0,0.0,0.0,0.0,0.0,0.0,0.0,0.0,0.0,2.7796,2.8774,2.9679,3.048,3.1173,3.119,3.0852,3.0142,2.9269,2.8437,2.7591,0.0,0.0,0.0,0.0,0.0,0.0,0.0,0.0,0.0,0.0,0.0,0.0,0.0,0.0,0.0,0.0,0.0,0.0,0.0,0.0,0.0,0.0,0.0,0.0,0.0,0.0,2.7373,2.776,2.8027,0.0,0.0,0.0,0.0,0.0,0.0,0.0,0.0,0.0,0.0,3.883,4.0525,4.2026,4.2978,4.3387,4.3214,4.2995,4.2731,4.2331,4.1307,4.05,0.0,0.0,0.0,0.0,0.0,0.0,0.0,0.0,0.0,0.0,0.0,0.0,0.0,0.0,0.0,0.0,0.0,0.0,0.0,0.0,0.0,0.0,0.0,0.0,0.0,0.0,0.0,2.7001,2.6598,0.0,0.0,0.0,0.0,0.0,0.0,0.0,0.0,0.0,0.0,0.0,2.9175,2.8834,0.0,0.0,0.0,0.0,0.0,0.0,0.0,0.0,0.0,0.0,0.0,0.0,2.8427,2.8843,3.0135,3.0954,3.1173,3.119,3.1089,3.0818,3.007,2.9035,2.7698,0.0,0.0,0.0,0.0,0.0,0.0,0.0,0.0,0.0,0.0,0.0,0.0,0.0,0.0,0.0,0.0,0.0,0.0,0.0,0.0,0.0,0.0,0.0,0.0,0.0,2.7463,0.0,0.0,0.0,0.0,0.0,0.0,0.0,0.0,0.0,0.0,0.0,3.6181,3.8111,3.9829,4.1212,4.2237,4.3085,4.3513,0.0,0.0,0.0,0.0,0.0,0.0,0.0,0.0,0.0,0.0,0.0,0.0,0.0,0.0,3.8933,3.7141,3.6384,3.6002,3.5981,0.0,0.0,0.0,0.0,0.0,0.0,0.0,0.0,0.0,0.0,0.0,0.0,0.0,0.0,2.9502,0.0,2.8592,0.0,0.0,0.0,0.0,0.0,0.0,0.0,0.0,3.0706,3.0896,3.1276,3.0866,3.03,0.0,2.9423,2.8449,0.0,0.0,0.0,0.0,0.0,0.0,0.0,0.0,2.8772,2.8932,3.0408,3.119,3.119,3.119,3.119,3.119,3.0497,2.9225,2.7416,2.699,2.6551,0.0,0.0,0.0,0.0,0.0,0.0,0.0,0.0,0.0,0.0,0.0,0.0,0.0,0.0,0.0,0.0,0.0,0.0,0.0,0.0,0.0,0.0,0.0,2.7879,0.0,0.0,0.0,0.0,0.0,0.0,0.0,0.0,0.0,3.4951,3.6392,3.8035,3.968,4.1037,4.2106,4.2828,0.0,0.0,0.0,0.0,0.0,0.0,0.0,4.2289,4.2111,4.19,4.1779,4.1719,4.2248,4.2941,4.3754,0.0,0.0,4.0591,3.9666,3.9294,3.9258,3.9888,4.0612,4.1165,4.1912,4.248,0.0,0.0,0.0,0.0,0.0,0.0,0.0,0.0,3.2504,3.2065,0.0,3.0624,0.0,0.0,0.0,0.0,0.0,2.9999,0.0,0.0,3.2268,3.2697,3.3986,3.2978,3.1933,3.0942,3.0658,3.0027,2.9042,2.797,0.0,0.0,0.0,0.0,0.0,0.0,2.89,2.9076,3.0463,3.119,3.119,3.119,3.119,3.1173,3.0497,2.9093,2.6996,2.7399,2.7044,2.5664,2.6168,0.0,0.0,0.0,0.0,0.0,0.0,0.0,0.0,0.0,0.0,0.0,0.0,0.0,0.0,0.0,0.0,0.0,0.0,0.0,0.0,2.8088,0.0,0.0,0.0,0.0,0.0,0.0,0.0,0.0,0.0,0.0,3.6895,3.8313,3.9935,4.1609,0.0,0.0,0.0,0.0,4.4902,4.4638,4.462,4.4565,4.436,4.4323,4.4267,4.4152,0.0,0.0,4.5332,4.535,4.5586,4.6384,4.6475,4.5761,4.3343,4.2737,4.2552,4.2534,4.3104,4.3717,4.3827,4.4381,4.4979,3.588,0.0,0.0,0.0,0.0,3.4163,3.4264,3.3851,3.4166,3.3989,3.3399,3.2765,0.0,0.0,0.0,0.0,0.0,0.0,3.4115,3.4738,3.4641,3.4767,3.5081,3.4615,3.4058,3.3436,3.3154,3.2248,3.0732,3.0287,2.9108,2.7236,0.0,0.0,0.0,0.0,2.9227,2.982,3.0717,3.119,3.119,3.119,3.119,3.119,3.0497,2.9803,2.9161,2.8262,2.7569,2.7164,2.6809,0.0,0.0,0.0,0.0,0.0,0.0,0.0,0.0,0.0,0.0,0.0,0.0,0.0,0.0,0.0,0.0,0.0,0.0,0.0,2.887,2.9719,3.0292,0.0,0.0,0.0,0.0,0.0,0.0,0.0,0.0,0.0,3.9878,3.9705,4.0326,0.0,0.0,4.3193,4.3818,4.4537,4.4902,4.4656,4.5077,0.0,4.5238,4.5237,4.5219,4.518,4.5438,4.5861,4.6466,4.6595,4.6851,4.7619,4.7765,4.7528,4.6866,4.5938,4.5194,4.4722,4.5138,4.568,4.5735,4.6269,4.6726,3.8923,3.6825,3.6146,3.5732,3.5636,3.6366,3.6445,3.6093,3.6395,3.6163,3.5574,3.4987,3.4613,3.4498,3.4498,0.0,0.0,0.0,3.562,3.6022,3.6058,3.622,3.6474,3.627,3.5812,3.513,3.4863,3.3926,3.2369,3.1924,3.1009,2.9526,0.0,0.0,2.8243,2.9311,3.0093,3.0565,3.1585,3.2167,3.213,3.1899,3.1613,3.1325,3.0883,3.0508,3.0148,2.9266,2.8451,2.7841,2.7367,2.7013,0.0,0.0,0.0,0.0,0.0,0.0,0.0,0.0,0.0,0.0,0.0,2.7353,2.7539,0.0,0.0,0.0,2.833,2.902,3.0076,3.077,0.0,0.0,0.0,0.0,0.0,0.0,0.0,3.7545,3.9057,4.061,4.2089,4.1688,4.1858,4.356,4.3615,4.3562,4.3855,0.0,4.5364,4.5168,4.5792,4.6286,4.6211,4.6192,4.6283,4.6612,4.6743,4.6946,4.7461,4.7571,4.7755,4.8177,4.8324,4.8324,4.8324,4.7691,4.7095,4.6603,4.6877,4.7185,4.7181,4.7461,4.7642,4.1505,4.0619,3.9364,3.8681,3.8453,3.8629,3.8767,3.8838,3.8728,3.8352,3.7739,3.7205,3.6665,3.6137,3.5776,0.0,3.5701,3.5799,3.6313,3.703,3.6999,3.7323,3.8057,3.7882,3.722,3.62,3.5937,3.5188,3.4008,3.314,3.2681,3.2542,3.044,2.9368,2.9368,3.0656,3.1348,3.1436,3.2876,3.3652,3.3652,3.2983,3.2305,3.1639,3.157,3.1156,3.0362,3.026,2.9525,2.8095,2.7943,2.764,2.7045,0.0,0.0,0.0,0.0,0.0,0.0,0.0,0.0,0.0,0.0,0.0,0.0,0.0,0.0,0.0,2.9413,0.0,3.1347,3.1646,0.0,0.0,0.0,3.4705,3.4921,3.6534,3.8297,4.0023,0.0,0.0,4.362,4.3836,4.4013,4.4599,4.4398,4.4121,4.391,4.5061,4.5936,4.5718,4.6452,4.6984,4.6819,4.6837,4.7094,4.7828,4.8214,4.8103,4.8233,4.8269,4.8306,4.8306,4.8324,4.8324,4.8324,4.8268,4.8324,4.8232,4.825,4.823,4.8132,4.8032,4.785,4.2903,4.2667,4.2045,4.087,3.9465,3.9711,3.9582,3.9217,3.9634,3.9613,3.9279,3.9167,3.9162,3.9244,3.9175,3.9103,3.9049,3.9085,3.9102,3.9169,3.9149,3.8936,3.8617,3.8617,3.8114,3.7236,3.6921,3.6151,3.5059,3.4566,3.4025,3.3495,3.2929,3.2405,3.1918,3.2263,3.2745,3.3409,3.379,3.4002,3.4029,3.3339,3.2891,3.272,3.2114,3.1625,3.1268,3.0738,3.0167,2.9627,2.9189,2.8595,2.7862,2.801,0.0,0.0,0.0,0.0,0.0,0.0,0.0,0.0,0.0,2.8724,2.8282,0.0,2.998,0.0,3.1492,3.2916,3.3243,3.4465,0.0,0.0,3.6131,3.6814,3.7704,3.8841,3.9977,4.1122,4.2374,4.3368,4.392,4.4334,4.4594,4.4552,4.4336,4.4121,4.3966,4.4564,4.509,4.5094,4.57,4.6177,4.6214,4.6177,4.6489,4.7241,4.7369,4.759,4.8214,4.8324,4.8324,4.8324,4.8324,4.8324,4.8324,4.8324,4.8324,4.8324,4.8324,4.8267,4.8207,4.8012,4.771,4.3376,4.3287,4.2975,4.2183,4.1139,4.1064,4.0863,4.0594,4.1025,4.0925,4.0511,4.0325,4.0311,4.0402,4.051,4.042,4.0199,4.0105,3.9971,3.9773,3.9713,3.9544,3.9275,3.9047,3.8707,3.8258,3.7664,3.6936,3.6085,3.5762,3.5408,3.4991,3.5012,3.491,3.4699,3.4231,3.4226,3.4703,3.5131,3.5248,3.5033,3.4666,3.4123,3.344,3.2949,3.2439,3.1893,3.1459,3.0971,3.0427,3.0105,2.9609,2.8903,2.9083,2.9115,0.0,0.0,0.0,0.0,0.0,0.0,0.0,0.0,0.0,0.0,0.0,3.1148,3.1563,3.3268,3.4559,3.5066,3.6366,3.7317,3.7587,3.8426,3.9237,3.9938,4.0797,4.1715,4.2623,4.3473,4.4119,4.4416,4.4592,4.4635,4.4407,4.4166,4.3989,4.3923,4.4366,4.4743,4.4727,4.5388,4.5902,4.5902,4.5902,4.6049,4.6452,4.6544,4.6819,4.7608,4.7755,4.7865,4.8233,4.8324,4.8324,4.8324,4.8324,4.8324,4.8287,4.8267,4.8228,4.813,4.787,4.7539,4.3304,4.3196,4.2994,4.2843,4.2764,4.2371,4.2207,4.2207,4.2356,4.2139,4.1627,4.1234,4.096,4.0835,4.0961,4.0818,4.0505,4.0276,4.006,3.9876,3.9773,3.9825,4.0,3.955,3.9247,3.9104,3.8295,3.7593,3.7015,3.6713,3.6568,3.6568,3.6568,3.6751,3.7073,3.6169,3.5739,3.5801,3.6587,3.6795,3.6362,3.6238,3.551,3.409,3.3862,3.33,3.2336,3.2214,3.1777,3.0958,3.0923,3.0647,3.0032,3.0194,3.0393,0.0,3.0729,0.0,0.0,0.0,0.0,0.0,0.0,0.0,0.0,3.1521,3.2341,3.3913,3.5023,3.6002,3.684,3.7914,3.8689,3.8992,4.0455,4.1556,4.181,4.2489,4.3283,4.4134,4.4118,4.4273,4.4811,4.4653,4.4374,4.4181,4.3942,4.3786,4.3808,4.4189,4.4488,4.4544,4.5112,4.5388,4.5424,4.5498,4.5535,4.5681,4.5755,4.603,4.6801,4.7058,4.7333,4.7938,4.8233,4.8306,4.8324,4.8324,4.8324,4.8324,4.8247,4.8168,4.7992,4.7705,4.7356,4.3304,4.3196,4.2976,4.2862,4.2783,4.2767,4.2727,4.2686,4.2634,4.2773,4.3014,4.2991,4.2864,4.2686,4.265,4.2465,4.2122,4.1823,4.1576,4.1382,4.136,4.1114,4.0737,4.0874,4.0364,3.9299,3.903,3.8438,3.7523,3.7167,3.6992,3.6974,3.693,3.7048,3.7337,0.0,0.0,0.0,3.7524,3.7631,3.7629,3.7016,3.6191,3.5208,3.453,0.0,3.2673,3.2587,3.2401,3.2039,3.2159,0.0,0.0,0.0,0.0,0.0,0.0,0.0,0.0,0.0,0.0,0.0,3.5122,3.4319,3.2464,3.3488,3.4701,3.5738,3.722,3.8239,3.8526,4.01,4.1228,4.1565,4.1999,4.2601,4.3483,4.3703,4.4083,4.4881,4.4813,4.4669,4.4589,4.4345,4.4124,4.3955,4.3783,4.3632,4.3651,4.3713,4.3718,4.3736,4.3975,4.3993,4.3956,4.4011,4.4323,4.4709,4.4929,4.5241,4.5975,4.6672,4.7076,4.7369,4.7865,4.8324,4.8324,4.8324,4.8324,4.8324,4.8228,4.8128,4.7893,4.7582,4.7326,4.3376,0.0,4.3123,4.3013,0.0,4.3031,4.3068,4.3086,4.305,4.3196,4.3464,4.348,4.3428,4.3287,4.316,4.2918,4.2632,4.2331,4.2121,4.1934,4.198,4.1911,4.1725,4.1642,4.1289,4.0633,4.0199,3.9478,3.8509,3.8149,3.7803,3.7394,3.7318,3.7429,3.7703,3.7966,3.8086,3.8053,3.8053,3.8086,3.8168,3.7804,3.7007,3.5781,3.5318,0.0,0.0,0.0,0.0,0.0,0.0,0.0,0.0,0.0,0.0,3.2863,3.329,3.3958,3.4851,3.4942,3.5483,3.6685,3.7524,3.7121,3.5105,3.6109,3.7184,3.801,3.9271,4.0074,4.023,4.1595,4.2607,4.2893,4.3437,4.4051,4.4551,4.4616,4.4682,4.4943,4.4846,4.4613,4.435,4.4097,4.3894,4.3765,4.3651,4.3548,4.3566,4.3532,4.3479,4.3479,4.3479,4.3479,4.3479,4.3479,4.3589,4.403,4.4103,4.4433,4.5168,4.5975,4.6617,4.7039,4.7755,4.8287,4.8324,4.8324,4.8287,4.8247,4.8111,4.7893,4.7606,4.7306,4.714,4.3412,4.3376,4.3269,4.3214,4.3214,4.3214,4.3286,4.3411,0.0,0.0,0.0,4.3479,4.3463,4.3394,4.3196,4.2994,4.2768,4.2492,4.231,4.2228,4.2257,4.2416,4.2632,4.2249,4.2049,4.201,4.137,4.0536,3.96,3.9337,3.8888,3.8241,3.8008,3.7953,3.8086,3.8366,3.8465,3.8372,3.8372,3.8387,3.8449,3.8449,3.7755,3.6279,3.62,3.5433,3.3927,3.3743,3.3668,3.3592,3.3607,3.3638,3.3701,3.4419,3.4906,3.5057,3.5733,3.6304,3.6688,3.6707,3.7129,3.8062,3.935,3.9551,3.8227,3.8744,3.9405,4.0065,4.0943,4.1511,4.1607,4.2659,4.3434,4.3643,4.4471,4.5061,4.5151,4.5084,4.4948,4.4821,4.46,4.4331,4.4109,4.3878,4.3701,4.3617,4.3531,4.3479,4.3479,4.3496,4.3479,4.3479,4.3479,4.3479,4.3479,4.3479,4.3479,4.3534,4.3534,4.3736,4.4397,4.5259,4.6104,4.6709,4.7645,4.8214,4.8324,4.8324,4.8286,4.8207,4.7992,4.7689,4.7345,4.6994,4.6927,4.3464,4.3394,4.3394,4.3286,4.3214,4.3323,4.3429,4.348,4.348,4.3497,4.3479,4.3479,4.3463,4.3394,4.3269,4.3123,4.303,4.2767,4.2634,4.2614,4.2616,4.2711,4.2863,4.2959,4.2704,4.2189,4.2059,4.1566,4.0802,4.0559,4.0399,4.0182,3.9478,3.8841,3.8389,3.8462,3.8544,3.8645,3.8627,3.8643,3.8643,3.8661,3.8187,3.7262,3.7192,3.6693,3.5672,3.5602,3.559,3.5514,3.5575,3.5557,3.5529,3.5724,3.5919,3.5915,3.6153,3.6876,3.8248,3.8358,3.9019,4.0416,4.0802,4.082,4.0618,4.0691,4.0802,4.0965,4.1742,4.2281,4.2414,4.333,4.3986,4.414,4.4495,4.4757,4.4783,4.4757,4.4693,4.4565,4.4317,4.4094,4.3942,4.3732,4.3599,4.3549,4.3515,4.3479,4.3479,4.3479,4.3479,4.3479,4.3479,4.3479,4.3479,4.3479,4.3479,4.3479,4.3479,4.3534,4.3718,4.4892,4.5828,4.6067,4.7278,4.8141,4.8306,4.8324,4.8267,4.8189,4.7953,4.7648,4.7214,4.6749,4.6737,4.348,4.3445,4.3445,4.341,4.3375,4.3428,4.3481,4.3479,4.3479,4.3479,4.3479,4.3479,4.348,4.3446,4.334,4.3287,4.3251,4.305,4.2976,4.2976,4.3032,4.3105,4.3178,4.3304,4.321,4.2896,4.2914,4.2492,4.176,4.1568,4.1298,4.0861,4.0408,4.0095,3.9833,3.9877,3.9722,3.935,3.8927,3.8707,3.8707,3.8707,3.8307,3.7484,3.7466,3.7051,3.6201,3.6164,3.615,3.6138,3.615,3.615,3.6138,3.6582,3.7048,3.7491,3.7976,3.8762,3.9937,4.0414,4.0965,4.1699,4.2158,4.2396,4.2396,4.2011,4.1937,4.2359,4.2829,4.3045,4.3094,4.364,4.4017,4.4121,4.4269,4.4388,4.4412,4.4383,4.4331,4.4218,4.407,4.3897,4.3749,4.3634,4.3549,4.3496,4.3479,4.3479,4.3479,4.3479,4.3479,4.3479,4.3479,4.3479,4.3479,4.3479,4.3479,4.3479,4.3479,4.3479,4.3534,4.4544,4.5314,4.5865,4.6911,4.7737,4.8196,4.8324,4.8229,4.8092,4.785,4.7475,4.7043,4.6857,4.7053,4.3479,4.3479,4.3479,4.3479,4.3479,4.3479,4.3479,4.3479,4.3479,4.3479,4.3479,4.3479,4.3479,4.3479,4.3446,4.3429,4.3411,4.3322,4.325,4.3268,4.3376,4.3411,4.3429,4.3498,4.3479,4.3479,4.3479,4.3167,4.2635,4.2529,4.2092,4.1361,4.1304,4.1196,4.1013,4.1062,4.0799,4.0157,3.957,3.9059,3.8707,3.8707,3.8377,3.7841,3.7786,3.7474,3.6872,3.6853,3.6835,3.6835,3.6835,3.6909,3.711,3.7694,3.841,3.9184,3.9827,4.0524,4.1315,4.2121,4.258,4.258,4.313,4.3479,4.3442,4.2928,4.2818,4.3386,4.3494,4.3546,4.3562,4.3697,4.3846,4.391,4.4002,4.4097,4.4091,4.406,4.4036,4.3942,4.3816,4.3719,4.3634,4.3549,4.3515,4.3496,4.3479,4.3479,4.3479,4.3479,4.3479,4.3479,4.3479,4.3479,4.3479,4.3479,4.3479,4.3479,4.3479,4.3479,4.3662,4.4287,4.5112,4.5883,4.6746,4.759,4.8196,4.8286,4.819,4.7992,4.7705,4.7276,4.6625,4.6952,4.7238,4.3479,4.3479,4.3479,4.3479,4.3479,4.3479,4.3479,4.3479,4.3479,4.3479,4.3479,4.3479,4.3479,4.3479,4.3497,4.3497,4.348,4.3462,4.3462,4.3444,4.3479,4.3497,4.3497,4.3479,4.3479,4.3479,4.3479,4.3442,4.3314,4.3332,4.2965,4.2269,4.2196,4.1829,4.1224,4.115,4.1077,4.0985,4.0912,4.0157,3.8799,3.8707,3.867,3.8597,3.8579,3.8579,3.8432,3.8487,3.8487,3.8487,3.8487,3.8799,3.9457,3.9643,4.001,4.0799,4.0948,4.135,4.2139,4.2947,4.3332,4.3404,4.3441,4.3479,4.3479,4.3406,4.3387,4.3515,4.3515,4.3515,4.3515,4.3582,4.3632,4.3684,4.3816,4.3915,4.3867,4.3881,4.3899,4.3818,4.3719,4.3599,4.3582,4.3549,4.3496,4.3479,4.3479,4.3479,4.3479,4.3479,4.3479,4.3479,4.3479,4.3479,4.3479,4.3479,4.3479,4.3479,4.3479,4.3479,4.3736,4.4635,4.5828,4.592,4.7058,4.7957,4.8195,4.8247,4.813,4.7872,4.7478,4.6989,4.617,4.6542,4.7051,4.3479,4.3479,4.3479,4.3479,4.3479,4.3479,4.3479,4.3479,4.3479,4.3479,4.3479,4.3479,4.3479,4.3479,4.3479,4.3479,4.3479,4.3479,4.3479,4.3479,4.3479,4.3479,4.3479,4.3479,4.3479,4.3479,4.3479,4.3479,4.3479,4.3479,4.3314,4.3039,4.3002,4.2837,4.2525,4.2525,4.2286,4.1829,4.1827,4.1277,4.0215,3.9662,3.9184,3.8744,3.8707,3.8946,3.935,3.9405,3.9625,4.0049,4.0139,4.0251,4.0598,4.0616,4.0965,4.1754,4.2268,4.2653,4.3001,4.3314,4.3479,4.3479,4.3479,4.3479,4.3479,4.3479,4.3479,4.3479,4.3479,4.3479,4.3496,4.3513,4.3549,4.3548,4.3634,4.3651,4.3617,4.3651,4.3651,4.3617,4.3583,4.3531,4.3531,4.3513,4.3496,4.3479,4.3479,4.3479,4.3479,4.3479,4.3479,4.3479,4.3479,4.3479,4.3479,4.3479,4.3479,4.3479,4.3479,4.3479,4.3681,4.436,4.5296,4.5828,4.6966,4.7846,4.8233,4.8209,4.811,4.777,4.7066,4.6387,4.5529,4.6285,4.6873,4.3479,4.3479,4.3479,4.3479,4.3479,4.3479,4.3479,4.3479,4.3479,4.3479,4.3479,4.3479,4.3479,4.3479,4.3479,4.3479,4.3479,4.3479,4.3479,4.3479,4.3479,4.3479,4.3479,4.3479,4.3479,4.3479,4.3479,4.3479,4.3479,4.3479,4.3479,4.3479,4.3479,4.3479,4.3479,4.3479,4.3222,4.269,4.2616,4.2249,4.1444,4.0873,4.0175,3.946,3.9368,3.9643,4.0194,4.023,4.0487,4.1058,4.1113,4.1205,4.1407,4.1425,4.1774,4.2561,4.3149,4.3479,4.3479,4.3479,4.3479,4.3479,4.3479,4.3479,4.3479,4.3479,4.3479,4.3479,4.3479,4.3479,4.3479,4.3479,4.3479,4.3479,4.3479,4.3479,4.3496,4.3479,4.3496,4.3479,4.3515,4.3479,4.3479,4.3479,4.3479,4.3479,4.3479,4.3479,4.3479,4.3479,4.3479,4.3479,4.3479,4.3479,4.3479,4.3479,4.3479,4.3479,4.3497,4.3571,4.3791,4.4544,4.5315,4.6342,4.6947,4.7479,4.8046,4.8151,4.787,4.7436,4.6747,4.592,4.5345,4.6242,4.6787,4.3479,4.3479,4.3479,4.3479,4.3479,4.3479,4.3479,4.3479,4.3479,4.3479,4.3479,4.3479,4.3479,4.3479,4.3479,4.3479,4.3479,4.3479,4.3479,4.3479,4.3479,4.3479,4.3479,4.3479,4.3479,4.3479,4.3479,4.3479,4.3479,4.3479,4.3479,4.3479,4.3479,4.3479,4.3479,4.3479,4.3461,4.3351,4.3351,4.302,4.2359,4.2213,4.1772,4.1077,4.0948,4.093,4.104,4.104,4.1111,4.1132,4.1205,4.148,4.2139,4.2268,4.2598,4.3313,4.3442,4.3479,4.3479,4.3479,4.3479,4.3479,4.3479,4.3479,4.3479,4.3479,4.3479,4.3479,4.3479,4.3479,4.3479,4.3479,4.3479,4.3479,4.3479,4.3479,4.3479,4.3479,4.3479,4.3479,4.3479,4.3479,4.3479,4.3479,4.3479,4.3479,4.3479,4.3479,4.3479,4.3479,4.3479,4.3479,4.3479,4.3479,4.3479,4.3479,4.3479,4.3479,4.3534,4.3753,4.4544,4.5314,4.6067,4.6837,4.7534,4.7954,4.8078,4.7872,4.7414,4.6931,4.6346,4.5658,4.5177,4.6214,4.6787,4.3479,4.3479,4.3479,4.3479,4.3479,4.3479,4.3479,4.3479,4.3479,4.3479,4.3479,4.3479,4.3479,4.3479,4.3479,4.3479,4.3479,4.3479,4.3479,4.3479,4.3479,4.3479,4.3479,4.3479,4.3479,4.3479,4.3479,4.3479,4.3479,4.3479,4.3479,4.3479,4.3479,4.3479,4.3479,4.3479,4.3479,4.3479,4.3479,4.3349,4.3075,4.3075,4.291,4.2598,4.1625,4.1334,4.1846,4.1864,4.2084,4.2616,4.2635,4.2745,4.3037,4.3057,4.3167,4.3442,4.3479,4.3479,4.3479,4.3479,4.3479,4.3479,4.3479,4.3479,4.3479,4.3479,4.3479,4.3479,4.3479,4.3479,4.3479,4.3479,4.3479,4.3479,4.3479,4.3479,4.3479,4.3479,4.3479,4.3479,4.3479,4.3479,4.3479,4.3479,4.3479,4.3479,4.3479,4.3479,4.3479,4.3479,4.3479,4.3479,4.3479,4.3479,4.3479,4.3479,4.3479,4.3479,4.3571,4.3956,4.4599,4.5351,4.6067,4.6907,4.7769,4.8018,4.7951,4.7457,4.6976,4.6418,4.5837,4.5441,4.5032,4.609,4.6615,4.3479,4.3479,4.3479,4.3479,4.3479,4.3479,4.3479,4.3479,4.3479,4.3479,4.3479,4.3479,4.3479,4.3479,4.3479,4.3479,4.3479,4.3479,4.3479,4.3479,4.3479,4.3479,4.3479,4.3479,4.3479,4.3479,4.3479,4.3479,4.3479,4.3479,4.3479,4.3479,4.3479,4.3479,4.3479,4.3479,4.3479,4.3479,4.3479,4.3479,4.3479,4.3479,4.3479,4.3332,4.2433,4.2121,4.2671,4.269,4.291,4.3423,4.3479,4.3479,4.3479,4.3479,4.3479,4.3479,4.3479,4.3479,4.3479,4.3479,4.3479,4.3479,4.3479,4.3479,4.3479,4.3479,4.3479,4.3479,4.3479,4.3479,4.3479,4.3479,4.3479,4.3479,4.3479,4.3479,4.3479,4.3479,4.3479,4.3479,4.3479,4.3479,4.3479,4.3479,4.3479,4.3479,4.3479,4.3479,4.3479,4.3479,4.3479,4.3479,4.3479,4.348,4.3463,4.3445,4.3498,4.3498,4.3556,4.3995,4.4711,4.5444,4.6157,4.6994,4.7461,4.7686,4.7521,4.7044,4.6513,4.597,4.5555,4.5177,4.5391,4.5931,4.6472,4.3479,4.3497,4.3533,4.3571,4.3625,4.3699,4.3589,4.3698,4.368,4.3754,4.3809,4.3608,4.3626,4.3552,4.3534,4.3479,4.3479,4.3479,4.3479,4.3479,4.3479,4.3479,4.3497,4.3479,4.3479,4.3479,4.3479,4.3479,4.3479,4.3479,4.3479,4.3479,4.3479,4.3479,4.3479,4.3479,4.3479,4.3479,4.3479,4.3479,4.3479,4.3479,4.3479,4.3479,4.3351,4.3314,4.3441,4.3424,4.3441,4.3461,4.3479,4.3479,4.3479,4.3479,4.3479,4.3479,4.3479,4.3479,4.3479,4.3479,4.3479,4.3479,4.3479,4.3479,4.3479,4.3479,4.3479,4.3479,4.3479,4.3479,4.3479,4.3479,4.3479,4.3479,4.3479,4.3479,4.3479,4.3479,4.3479,4.3479,4.3479,4.3479,4.3479,4.3479,4.3479,4.3479,4.3479,4.3479,4.3479,4.3479,4.3479,4.3479,4.3479,4.348,4.3446,4.3412,4.3447,4.3519,4.3595,4.3907,4.4948,4.577,4.6362,4.7118,4.7256,4.7414,4.6976,4.6489,4.6126,4.5632,4.5257,4.5012,4.5262,4.5704,4.6426,4.3479,4.3552,4.4103,4.4323,4.4415,4.4911,4.5149,4.5149,4.5149,4.5131,4.5057,4.4562,4.4323,4.4176,4.3754,4.3497,4.3479,4.3479,4.3479,4.3516,4.3497,4.348,4.3464,4.348,4.3479,4.3479,4.3479,4.3479,4.3479,4.3479,4.3479,4.3479,4.3479,4.3479,4.3479,4.3479,4.3479,4.3479,4.3479,4.3479,4.3479,4.3479,4.3479,4.3479,4.3479,4.3479,4.3479,4.3479,4.3479,4.3479,4.3479,4.3479,4.3479,4.3479,4.3479,4.3479,4.3479,4.3479,4.3479,4.3479,4.3479,4.3479,4.3479,4.3479,4.3479,4.3479,4.3479,4.3479,4.3479,4.3479,4.3479,4.3479,4.3479,4.3479,4.3479,4.3479,4.3479,4.3479,4.3479,4.3479,4.3479,4.3479,4.3479,4.3479,4.3479,4.3479,4.3479,4.3479,4.3479,4.3479,4.3479,4.3479,4.3479,4.3555,4.3541,4.3634,4.3761,4.3761,4.3796,4.4122,4.5138,4.5822,4.646,4.6866,4.7012,4.684,4.6411,4.602,4.5658,4.5345,4.5032,4.4899,4.4879,4.5473,4.6443,4.3938,4.403,4.4819,4.5149,4.5204,4.57,4.5902,4.5902,4.5902,4.5902,4.5773,4.5369,4.5149,4.5057,4.4599,4.4414,4.4414,4.4378,4.4213,4.392,4.3588,4.3498,4.3465,4.348,4.348,4.348,4.3497,4.3462,4.3463,4.3497,4.3479,4.3479,4.3479,4.3479,4.3479,4.3479,4.3479,4.3479,4.3479,4.3479,4.3479,4.3479,4.3479,4.3479,4.3479,4.3479,4.3479,4.3479,4.3479,4.3479,4.3479,4.3479,4.3479,4.3479,4.3479,4.3479,4.3479,4.3479,4.3479,4.3479,4.3479,4.3479,4.3479,4.3479,4.3479,4.3479,4.3479,4.3479,4.3479,4.3479,4.3479,4.3479,4.3479,4.3479,4.3479,4.3479,4.3479,4.3479,4.3479,4.3479,4.3479,4.3479,4.3479,4.3479,4.3479,4.3479,4.3479,4.348,4.348,4.3463,4.3482,4.3575,4.376,4.3761,4.3725,4.3849,4.4059,4.4053,4.403,4.4529,4.532,4.5662,4.6161,4.6384,4.6578,4.6297,4.587,4.5606,4.5274,4.5005,4.4865,4.4975,4.5134,4.5952,4.6819,4.4728,4.4856,4.5627,4.5938,4.5975,4.6104,4.6195,4.6122,4.614,4.6195,4.6159,4.6049,4.5975,4.5957,4.5736,4.5626,4.5847,4.5681,4.5333,4.4709,4.4158,4.3791,4.3534,4.3444,4.3428,4.3411,4.3464,4.3445,4.3411,4.3445,4.3479,4.3479,4.3479,4.3479,4.3479,4.3479,4.3479,4.3479,4.3479,4.3479,4.3479,4.3479,4.3479,4.3479,4.3479,4.3479,4.3479,4.3479,4.3479,4.3479,4.3479,4.3479,4.3479,4.3479,4.3479,4.3479,4.3479,4.3479,4.3479,4.3479,4.3479,4.3479,4.3479,4.3479,4.3479,4.3479,4.3479,4.3479,4.3479,4.3479,4.3479,4.3479,4.3516,4.3588,4.3588,4.3497,4.3479,4.3479,4.357,4.3608,4.3571,4.3626,4.3809,4.3828,4.3828,4.381,4.3865,4.3904,4.3797,4.3852,4.356,4.3762,4.4217,4.4232,4.4243,4.4211,4.4389,4.4418,4.4375,4.4706,4.5236,4.5534,4.5699,4.5936,4.6013,4.5709,4.5441,4.522,4.5022,4.4831,4.4862,4.5066,4.5602,4.638,4.7124,4.5022,4.5572,4.6377,4.6707,4.6817,4.7311,4.7587,4.7664,4.7645,4.7553,4.7535,4.7021,4.6764,4.6746,4.6177,4.5902,4.5993,4.5975,4.5847,4.5608,4.5406,4.4525,4.3664,4.3376,4.3377,4.3467,4.3432,4.3322,4.3376,4.3429,4.3464,4.3479,4.3479,4.3479,4.3479,4.3479,4.3479,4.3479,4.3479,4.3479,4.3479,4.3479,4.3479,4.3479,4.3479,4.3479,4.3479,4.3479,4.3479,4.3479,4.3479,4.3479,4.3479,4.3479,4.3479,4.3479,4.3479,4.3479,4.3479,4.3479,4.3479,4.3479,4.3552,4.3479,4.3479,4.3497,4.3497,4.3479,4.3479,4.3552,4.3516,4.3552,4.3791,4.4195,4.3957,4.3626,4.3589,4.3497,4.3699,4.425,4.4397,4.4635,4.4966,4.5112,4.5095,4.5059,4.5004,4.4931,4.4617,4.4559,4.4394,4.4663,4.4966,4.4865,4.4795,4.4698,4.4706,4.4776,4.4718,4.4641,4.5098,4.5376,4.5436,4.5503,4.5529,4.531,4.5113,4.4913,4.4748,4.4766,4.51,4.5449,4.5957,4.6633,4.7394,4.5883,4.6282,4.7028,4.7319,4.7392,4.7907,4.8169,4.8247,4.8287,4.8324,4.8196,4.7828,4.7608,4.7553,4.7131,4.6911,4.6911,4.6911,4.6728,4.6361,4.6012,4.5351,4.4636,4.4346,4.4309,4.4254,4.3889,4.3798,4.3743,4.3559,4.3465,4.3497,4.3479,4.3479,4.3479,4.3479,4.3479,4.3479,4.3479,4.3479,4.3479,4.3479,4.3479,4.3479,4.3479,4.3479,4.3479,4.3479,4.3479,4.3479,4.3479,4.3479,4.3479,4.3479,4.3479,4.3479,4.3479,4.3479,4.3479,4.3479,4.3479,4.3571,4.3736,4.3975,4.4103,4.425,4.4488,4.4562,4.4507,4.4507,4.4507,4.4489,4.4674,4.5004,4.4693,4.4418,4.4471,4.4562,4.4727,4.5076,4.5241,4.5333,4.5847,4.5883,4.5791,4.5624,4.5457,4.5321,4.5144,4.5249,4.5219,4.5222,4.5333,4.5258,4.5205,4.5141,4.5017,4.5061,4.4981,4.4897,4.5043,4.5286,4.5225,4.5174,4.5103,4.5046,4.5001,4.4975,4.4936,4.51,4.5466,4.6041,4.6616,4.7043,4.78,4.6958,4.6931,4.7541,4.7772,4.7736,4.7911,4.803,4.8187,4.8267,4.8305,4.8306,4.8306,4.8196,4.8324,4.8049,4.8195,4.8213,4.803,4.7774,4.7223,4.6691,4.6214,4.6159,4.5608,4.546,4.5294,4.4782,4.4582,4.4455,4.398,4.3759,4.3867,4.3793,4.3627,4.3664,4.3572,4.3479,4.3479,4.3479,4.3479,4.3479,4.3479,4.3479,4.3479,4.3479,4.3479,4.3479,4.3479,4.3479,4.3479,4.3479,4.3479,4.3479,4.3479,4.3479,4.3479,4.3479,4.3479,4.3479,4.3479,4.3571,4.3754,4.4323,4.4764,4.4892,4.5314,4.5608,4.559,4.5865,4.5681,4.5682,4.5773,4.579,4.5824,4.573,4.5896,4.5974,4.5957,4.5883,4.5993,4.5993,4.5975,4.6029,4.5972,4.5969,4.6221,4.6069,4.5864,4.5692,4.562,4.5392,4.5085,4.5278,4.5528,4.5546,4.5569,4.5418,4.533,4.5201,4.5108,4.5147,4.5257,4.507,4.5012,4.5222,4.5337,4.5371,4.5303,4.5343,4.5652,4.6227,4.6853,4.7462,4.78,4.8376,4.7229,4.7595,4.7569,4.7557,4.7557,4.76,4.7785,4.805,4.8169,4.8247,4.8287,4.8306,4.8324,4.8324,4.8305,4.8286,4.8246,4.8267,4.8158,4.8086,4.7921,4.7792,4.7461,4.6561,4.5826,4.5678,4.5475,4.5348,4.5276,4.5148,4.5168,4.5132,4.4492,4.4254,4.429,4.3833,4.3464,4.3497,4.3516,4.3516,4.3479,4.3479,4.3479,4.3479,4.3479,4.3479,4.3479,4.3479,4.3479,4.3479,4.3479,4.3479,4.3479,4.3479,4.3479,4.3479,4.3479,4.3479,4.3497,4.3552,4.3773,4.4323,4.4709,4.4966,4.5608,4.5847,4.5957,4.5902,4.5902,4.603,4.6048,4.6261,4.6342,4.6388,4.6646,4.6925,4.6876,4.6212,4.6096,4.6426,4.6628,4.6771,4.7237,4.7118,4.7011,4.6891,4.6621,4.6458,4.6206,4.5957,4.5582,4.5168,4.5313,4.5537,4.5478,4.5545,4.5571,4.5633,4.555,4.5563,4.5592,4.5473,4.5399,4.5445,4.554,4.5664,4.5833,4.6104,4.621,4.6599,4.6955,4.7462,4.7922,4.8392,4.8646,4.7508,4.7542,4.7425,4.7272,4.7205,4.7276,4.7493,4.7767,4.801,4.8169,4.8229,4.8267,4.8324,4.8324,4.8324,4.8286,4.8248,4.8267,4.8306,4.8288,4.8288,4.8306,4.8213,4.7515,4.6907,4.6758,4.6334,4.6187,4.6095,4.5822,4.553,4.5621,4.5089,4.4926,4.4964,4.4527,4.4254,4.3998,4.3978,4.3849,4.3519,4.348,4.3479,4.3479,4.3479,4.3479,4.3479,4.3479,4.3479,4.3479,4.3497,4.3497,4.3479,4.3479,4.3479,4.3479,4.3479,4.3479,4.3516,4.3864,4.4268,4.4709,4.5333,4.5957,4.6489,4.6764,4.7021,4.7021,4.7039,4.7002,4.6849,4.6846,4.6951,4.6794,4.6966,4.7102,4.6937,4.6654,4.6622,4.7041,4.7171,4.7254,4.7476,4.7414,4.7218,4.6704,4.6411,4.6236,4.6038,4.5814,4.5668,4.5431,4.5484,4.5503,4.5406,4.5434,4.5631,4.5778,4.5982,4.6133,4.6264,4.6094,4.5884,4.6024,4.6227,4.6295,4.6481,4.6769,4.7073,4.7327,4.7601,4.7973,4.8311,4.868,4.8849,4.7705,4.7298,4.716,4.6957,4.6778,4.6921,4.7147,4.7432,4.7788,4.7972,4.8148,4.8247,4.8286,4.8267,4.8305,4.8324,4.8287,4.8267,4.8286,4.8324,4.8324,4.8324,4.8232,4.814,4.801,4.8097,4.7435,4.7066,4.6788,4.6312,4.6161,4.5807,4.5528,4.5452,4.5454,4.5294,4.4936,4.4542,4.46,4.4474,4.4017,4.3978,4.4049,4.4066,4.3828,4.3809,4.3754,4.3626,4.3479,4.3533,4.3589,4.368,4.3662,4.3533,4.3479,4.3479,4.3479,4.3608,4.3883,4.4305,4.4745,4.4984,4.6177,4.7039,4.7332,4.7699,4.7918,4.8026,4.7952,4.7853,4.7913,4.7452,4.7168,4.6936,4.6742,4.659,4.6548,4.688,4.6995,4.7252,4.7144,4.7132,4.7035,4.6949,4.676,4.6525,4.6235,4.6005,4.5803,4.5615,4.5476,4.531,4.5257,4.5476,4.5467,4.5924,4.6005,4.622,4.6481,4.6769,4.7022,4.7175,4.709,4.6887,4.6989,4.7073,4.7242,4.7564,4.7834,4.799,4.8159,4.846,4.8714,4.8968,4.9018,4.7557,4.7276,4.687,4.6613,4.6495,4.6518,4.6695,4.7039,4.741,4.7705,4.7893,4.811,4.8207,4.8226,4.8267,4.8287,4.8267,4.8267,4.8267,4.8305,4.8324,4.8324,4.8324,4.8324,4.8287,4.8268,4.7991,4.7858,4.772,4.7547,4.7057,4.6922,4.628,4.5907,4.567,4.5321,4.5135,4.5005,4.5111,4.5046,4.4924,4.5039,4.5187,4.5186,4.4746,4.4544,4.4342,4.3883,4.3479,4.3552,4.4158,4.4452,4.4397,4.3938,4.3699,4.3699,4.3736,4.3993,4.447,4.4673,4.548,4.6342,4.6984,4.7423,4.7824,4.8097,4.8111,4.8012,4.7891,4.7744,4.7578,4.7187,4.676,4.6411,4.6144,4.593,4.576,4.5895,4.6242,4.6572,4.6708,4.6754,4.6578,4.6394,4.6217,4.5988,4.5709,4.5546,4.5389,4.5272,4.5179,4.5019,4.4869,4.5218,4.5546,4.6242,4.6692,4.6861,4.7158,4.7581,4.7902,4.8376,4.8409,4.7936,4.78,4.7919,4.8139,4.8342,4.846,4.8545,4.8714,4.8832,4.8917,4.9018,4.9018,4.7298,4.7012,4.6731,4.6447,4.6246,4.6204,4.6357,4.6672,4.7017,4.7367,4.7645,4.7891,4.8032,4.8072,4.8111,4.817,4.8228,4.8267,4.8267,4.8324,4.8324,4.8324,4.8324,4.8324,4.8324,4.8306,4.8287,4.819,4.7974,4.7811,4.7578,4.7142,4.6574,4.6272,4.6133,4.5871,4.5508,4.5448,4.5476,4.5425,4.5242,4.5465,4.5678,4.57,4.5553,4.5315,4.5259,4.5039,4.4764,4.4856,4.5131,4.5296,4.5204,4.5039,4.4745,4.4727,4.469,4.4837,4.5351,4.5627,4.6304,4.6872,4.7272,4.7576,4.7882,4.7949,4.7907,4.7806,4.7621,4.7407,4.7196,4.676,4.6332,4.5963,4.5693,4.545,4.5291,4.5291,4.5624,4.5976,4.6135,4.6192,4.5995,4.5819,4.5658,4.5441,4.5228,4.5172,4.5176,4.5271,4.5382,4.5444,4.5501,4.5886,4.6278,4.6853,4.7361,4.753,4.7767,4.8189,4.8443,4.8781,4.8832,4.8578,4.8612,4.8562,4.8663,4.8731,4.89,4.9018,4.8968,4.8934,4.8968,4.9018,4.9018,4.7053,4.6778,4.6637,4.635,4.6055,4.598,4.6087,4.6339,4.6654,4.6972,4.7341,4.7582,4.777,4.7891,4.7972,4.8072,4.8225,4.8247,4.8286,4.8324,4.8324,4.8324,4.8324,4.8306,4.8287,4.8267,4.8267,4.817,4.7992,4.7806,4.7443,4.6989,4.6666,4.6405,4.6178,4.6007,4.5905,4.5817,4.5732,4.5557,4.5491,4.5639,4.5921,4.6117,4.6063,4.5991,4.6048,4.5773,4.57,4.5773,4.5975,4.614,4.6159,4.6287,4.6379,4.6342,4.6085,4.5975,4.6232,4.643,4.6773,4.7227,4.7506,4.7658,4.7627,4.7578,4.7529,4.7468,4.7298,4.7012,4.6695,4.6339,4.6035,4.5823,4.5566,4.5384,4.5531,4.5623,4.5691,4.5863,4.582,4.5891,4.5951,4.5855,4.5814,4.611,4.593,4.5812,4.5813,4.5909,4.6026,4.6184,4.6392,4.6781,4.7208,4.7648,4.802,4.8189,4.8376,4.868,4.8815,4.8968,4.8934,4.8866,4.89,4.8849,4.8984,4.9018,4.9018,4.9018,4.9018,4.9018,4.9018,4.9018,4.9018,4.6824,4.6795,4.6542,4.6326,4.6137,4.593,4.5905,4.6087,4.6357,4.6548,4.6783,4.7151,4.741,4.7582,4.787,4.805,4.8168,4.8207,4.8247,4.8305,4.8378,4.8434,4.836,4.8324,4.8393,4.839,4.8279,4.813,4.7931,4.7762,4.7377,4.6865,4.6429,4.607,4.5786,4.5735,4.5726,4.578,4.5968,4.6307,4.6641,4.6809,4.7084,4.715,4.6868,4.6544,4.6607,4.6319,4.6047,4.6047,4.6617,4.6929,4.7058,4.7681,4.7957,4.7589,4.6873,4.612,4.6705,4.6842,4.6971,4.7324,4.7524,4.741,4.7236,4.708,4.7002,4.6893,4.6754,4.6571,4.6291,4.5932,4.5857,4.5959,4.5958,4.613,4.6259,4.6062,4.6129,4.6214,4.6327,4.6315,4.6315,4.6152,4.6056,4.6425,4.6656,4.653,4.6489,4.6532,4.687,4.709,4.7276,4.7665,4.7817,4.8308,4.8477,4.8697,4.8832,4.9018,4.9018,4.9018,4.9001,4.8984,4.9018,4.9018,4.9018,4.9018,4.9018,4.9018,4.9018,4.9018,4.9018,4.9018,4.9018,4.6357,4.6548,4.6447,4.6357,4.6259,4.5938,4.5879,4.5988,4.6038,4.6211,4.6501,4.676,4.7075,4.7421,4.7702,4.7927,4.8088,4.8222,4.8246,4.8486,4.8687,4.8905,4.905,4.9228,4.9295,4.8703,4.8571,4.8213,4.7922,4.7569,4.7205,4.6708,4.6228,4.5786,4.5398,4.531,4.5363,4.5511,4.5794,4.6168,4.6531,4.6788,4.7062,4.7374,4.7096,4.7054,4.7052,4.7108,4.6933,4.7027,4.7508,4.7696,4.7789,4.8084,4.8288,4.8213,4.7584,4.7286,4.7484,4.7261,4.7232,4.7158,4.7125,4.6875,4.6643,4.6501,4.6447,4.6357,4.6161,4.6104,4.6213,4.6027,4.6248,4.638,4.6498,4.6632,4.6815,4.6747,4.6663,4.6735,4.6836,4.692,4.6922,4.6809,4.6729,4.6852,4.7009,4.6895,4.6984,4.7158,4.7597,4.8139,4.8308,4.8511,4.8562,4.8765,4.8748,4.8883,4.8883,4.9018,4.9018,4.9018,4.9018,4.9018,4.9018,4.9018,4.9018,4.9018,4.9018,4.9018,4.9018,4.9018,4.9018,4.9018,4.9018,4.5912,4.6277,4.6381,4.6471,4.6471,4.6038,4.5912,4.5963,4.5768,4.5887,4.6186,4.6471,4.689,4.7452,4.7847,4.8227,4.8603,4.8632,4.8753,4.9011,4.9281,4.9531,4.9651,4.9989,4.9767,4.9133,4.9021,4.8658,4.8178,4.7747,4.7399,4.6578,4.6038,4.558,4.5203,4.5005,4.4978,4.5123,4.5468,4.5803,4.6062,4.6284,4.6602,4.688,4.708,4.7209,4.7363,4.7506,4.7596,4.7638,4.7824,4.7942,4.8017,4.8114,4.819,4.8132,4.7793,4.765,4.7599,4.7406,4.7232,4.6898,4.6513,4.6193,4.6062,4.5912,4.5985,4.6116,4.604,4.6184,4.6416,4.6452,4.6721,4.6956,4.7162,4.7204,4.7293,4.7428,4.7581,4.775,4.7851,4.7834,4.7793,4.7594,4.7462,4.7394,4.7344,4.7293,4.7513,4.78,4.8139,4.8646,4.8714,4.8849,4.89,4.8968,4.9001,4.9018,4.9018,4.9018,4.9018,4.9018,4.9018,4.9018,4.9018,4.9018,4.9018,4.9018,4.9018,4.9018,4.9018,4.9018,4.9018,4.9018,4.9018,4.558,4.587,4.6357,4.6637,4.6708,4.6211,4.5988,4.592,4.558,4.5581,4.5874,4.6302,4.715,4.7832,4.8352,4.8928,4.9858,5.0021,4.995,5.0007,5.0198,5.0134,5.0134,5.0055,4.9874,4.9516,4.934,4.9133,4.885,4.8275,4.7558,4.6537,4.6212,4.5571,4.5257,4.5222,4.5122,4.5227,4.5466,4.5579,4.5762,4.5941,4.6182,4.6501,4.6643,4.6778,4.7025,4.7191,4.7302,4.7323,4.7585,4.7811,4.7811,4.7931,4.7992,4.7992,4.7847,4.7642,4.745,4.7187,4.6778,4.6308,4.5887,4.558,4.5529,4.5511,4.5699,4.6161,4.6148,4.6508,4.6772,4.7003,4.725,4.7636,4.7898,4.802,4.8189,4.8426,4.8595,4.8781,4.8748,4.8545,4.8511,4.8274,4.8223,4.8156,4.8206,4.8156,4.8308,4.8562,4.8663,4.8917,4.8934,4.8984,4.8984,4.9018,4.9018,4.9018,4.9018,4.9018,4.9018,4.9018,4.9018,4.9018,4.9018,4.9018,4.9018,4.9018,4.9018,4.9018,4.9018,4.9018,4.9018,4.9018,4.9018,4.5363,4.5692,4.6087,4.6423,4.6637,4.6301,4.6038,4.5837,4.5468,4.5629,4.6176,4.7039,4.7834,4.8438,4.88,4.9318,5.0001,5.0023,5.0192,5.0337,5.0429,5.052,5.0502,5.051,5.047,4.9838,4.9495,4.9043,4.8494,4.8452,4.7945,4.7212,4.6903,4.6704,4.6362,4.5943,4.5908,4.597,4.609,4.6212,4.5915,4.6098,4.617,4.5955,4.6186,4.6259,4.6405,4.6619,4.6742,4.6921,4.7147,4.7323,4.7457,4.7582,4.7726,4.7827,4.7675,4.7479,4.7183,4.6911,4.6453,4.5811,4.5389,4.5184,4.526,4.5497,4.574,4.6084,4.6442,4.6872,4.7458,4.7602,4.781,4.8325,4.8629,4.8731,4.8832,4.8968,4.9001,4.8934,4.8951,4.8883,4.89,4.8917,4.8917,4.8917,4.8984,4.9018,4.9018,4.9018,4.9018,4.9018,4.9018,4.9018,4.9018,4.9018,4.9018,4.9018,4.9018,4.9018,4.9018,4.9018,4.9018,4.9018,4.9018,4.9018,4.9018,4.9018,4.9018,4.9018,4.9018,4.9018,4.9018,4.9035,4.9137,4.514,4.5441,4.5778,4.6112,4.6429,4.6235,4.6127,4.6013,4.5644,4.5905,4.6708,4.7613,4.8381,4.8862,4.928,4.9882,5.0455,5.0602,5.0641,5.0752,5.0874,5.0854,5.087,5.0783,5.0515,4.996,4.9684,4.9231,4.8826,4.8467,4.8372,4.826,4.806,4.7752,4.7073,4.6932,4.6802,4.6815,4.6835,4.6816,4.6425,4.6525,4.6625,4.628,4.6491,4.6595,4.6733,4.693,4.6828,4.6843,4.6878,4.6996,4.7056,4.7169,4.7363,4.7479,4.7561,4.7487,4.7178,4.6524,4.598,4.5389,4.5402,4.5254,4.5341,4.5813,4.6294,4.6656,4.698,4.7411,4.8122,4.8274,4.8325,4.8781,4.8832,4.8917,4.8934,4.9018,4.9018,4.8984,4.9018,4.9018,4.9018,4.9018,4.9018,4.9018,4.9018,4.9018,4.9018,4.9018,4.9018,4.9018,4.9018,4.9018,4.9018,4.9035,4.9069,4.9018,4.9018,4.9018,4.9018,4.9086,4.9069,4.9018,4.9018,4.9018,4.9035,4.9052,4.9035,4.9018,4.9069,4.9171,4.9154,4.9204,4.9424,4.4886,4.5059,4.5441,4.5837,4.6154,4.608,4.6229,4.6506,4.6323,4.6482,4.7096,4.7659,4.8401,4.9174,4.9671,5.0342,5.1123,5.1358,5.1426,5.1408,5.1035,5.1034,5.0814,5.0579,5.0304,5.0102,4.9746,4.9498,4.9463,4.9145,4.9159,4.9133,4.8805,4.8392,4.7172,4.6925,4.6836,4.6836,4.6984,4.7056,4.699,4.7026,4.7079,4.6992,4.7034,4.7076,4.7185,4.7294,4.7158,4.6934,4.7098,4.7081,4.679,4.6968,4.7139,4.7173,4.7678,4.7742,4.7456,4.6203,4.5656,4.5497,4.5688,4.5767,4.585,4.6329,4.6984,4.7336,4.775,4.8189,4.8646,4.8934,4.8934,4.8951,4.9001,4.9018,4.9018,4.9018,4.9018,4.9018,4.9018,4.9018,4.9018,4.9018,4.9018,4.9018,4.9018,4.9018,4.9018,4.9018,4.9018,4.9018,4.9018,4.9018,4.9018,4.9103,4.9103,4.9052,4.9238,4.9509,4.9509,4.9576,4.9458,4.9204,4.939,4.9729,4.9424,4.912,4.9407,4.9712,4.9424,4.9407,4.9373,4.9526,4.9898,4.472,4.4886,4.5113,4.5283,4.5511,4.6187,4.6463,4.6563,4.701,4.7454,4.7801,4.8387,4.9097,4.9738,5.0008,5.0503,5.1078,5.1123,5.1167,5.1228,5.0857,5.063,5.0408,5.0126,4.9837,4.9661,4.9471,4.9364,4.9312,4.926,4.9168,4.9107,4.9121,4.8839,4.8453,4.8287,4.8257,4.8274,4.824,4.8101,4.7657,4.7645,4.7576,4.7295,4.7335,4.741,4.7466,4.7603,4.7436,4.72,4.7378,4.7322,4.7256,4.7506,4.7668,4.7879,4.8327,4.8082,4.7701,4.6975,4.6565,4.6442,4.6355,4.643,4.6498,4.7107,4.7614,4.797,4.8342,4.8697,4.8934,4.8984,4.8984,4.8984,4.9018,4.9018,4.9018,4.9018,4.9018,4.9018,4.9018,4.9018,4.9018,4.9018,4.9018,4.9018,4.9018,4.9018,4.9018,4.9018,4.9018,4.9018,4.9018,4.9018,4.9069,4.9492,4.9712,4.9763,5.0152,5.0593,5.0541,5.0219,5.0287,5.027,5.0371,5.0473,5.0253,5.0135,5.0405,5.0524,5.0439,5.0287,5.0287,5.0473,5.0744,4.4654,4.4737,4.4886,4.5094,4.5422,4.6212,4.6649,4.7028,4.7882,4.8335,4.851,4.8995,4.9436,4.9837,5.0046,5.0239,5.0659,5.054,5.054,5.0649,5.0352,5.0114,4.9913,4.9679,4.9471,4.9337,4.9229,4.9138,4.9155,4.9063,4.9032,4.9032,4.9018,4.8981,4.8883,4.8883,4.8883,4.8832,4.8765,4.868,4.8406,4.8284,4.8192,4.7946,4.7869,4.7911,4.7843,4.7775,4.7732,4.7653,4.7649,4.7643,4.781,4.7865,4.7966,4.8154,4.8459,4.839,4.8316,4.8146,4.7856,4.7713,4.739,4.7192,4.731,4.7868,4.8173,4.8494,4.8781,4.89,4.9001,4.9018,4.9018,4.9018,4.9018,4.9018,4.9018,4.9018,4.9018,4.9018,4.9018,4.9018,4.9018,4.9018,4.9018,4.9018,4.9018,4.9052,4.9103,4.9103,4.9255,4.9407,4.9509,4.9661,4.9898,5.027,5.0439,5.0473,5.0896,5.1371,5.1117,5.0794,5.1065,5.1234,5.1065,5.0997,5.1166,5.1268,5.1403,5.1657,5.186,5.164,5.1352,5.1403,5.1589,4.4598,4.4598,4.472,4.5218,4.5841,4.6315,4.7079,4.8099,4.8707,4.8951,4.9015,4.9087,4.9303,4.95,4.9619,4.9866,5.0062,4.9965,5.0022,5.0022,4.9837,4.9679,4.95,4.932,4.9216,4.9094,4.9032,4.9063,4.9018,4.9018,4.9018,4.9018,4.9018,4.9018,4.9018,4.9018,4.9018,4.9018,4.8984,4.8917,4.8765,4.8832,4.8761,4.8657,4.8657,4.8704,4.8704,4.8721,4.8453,4.8246,4.8069,4.7704,4.7493,4.7358,4.7426,4.7734,4.8392,4.8809,4.9103,4.8946,4.8863,4.8555,4.8223,4.8037,4.8058,4.846,4.8663,4.8781,4.8951,4.8968,4.9018,4.9018,4.9018,4.9018,4.9018,4.9018,4.9018,4.9018,4.9018,4.9018,4.9018,4.9018,4.9018,4.9018,4.9137,4.934,4.9407,4.956,4.956,4.9357,4.961,5.0135,5.027,5.0473,5.0744,5.0997,5.1183,5.1234,5.1505,5.1844,5.154,5.1555,5.1843,5.1928,5.1555,5.1539,5.1944,5.2164,5.23,5.2553,5.2723,5.257,5.2147,5.2232,5.2401,4.4598,4.4598,4.4626,4.5111,4.5891,4.6966,4.7937,4.8724,4.8934,4.9018,4.9001,4.9032,4.9168,4.9307,4.932,4.95,4.959,4.9649,4.9649,4.959,4.9471,4.935,4.926,4.9138,4.9063,4.9049,4.9035,4.9103,4.9052,4.9052,4.9103,4.9018,4.9221,4.9154,4.9137,4.9035,4.9052,4.9052,4.9069,4.9018,4.9018,4.9018,4.9018,4.9018,4.9018,4.9018,4.9018,4.9018,4.8781,4.8744,4.8694,4.8551,4.8651,4.8643,4.875,4.8897,4.9048,4.9116,4.9226,4.9155,4.9063,4.9001,4.8748,4.8765,4.8765,4.8832,4.9018,4.9018,4.9018,4.9018,4.9018,4.9018,4.9018,4.9018,4.9018,4.9018,4.9018,4.9018,4.9018,4.9018,4.9018,4.912,4.9103,4.9154,4.9306,4.961,4.9864,5.0067,5.0118,4.9965,5.0135,5.071,5.0963,5.115,5.1369,5.1606,5.1826,5.2029,5.2283,5.2536,5.2638,5.2672,5.279,5.2689,5.2418,5.257,5.2926,5.301,5.2909,5.3095,5.3247,5.3129,5.3027,5.2976,5.2976,4.4598,4.4598,4.4598,4.5179,4.6295,4.7716,4.8629,4.8968,4.9018,4.9018,4.9018,4.9001,4.9063,4.9107,4.9138,4.9199,4.9307,4.929,4.929,4.926,4.925,4.9155,4.9094,4.9114,4.9032,4.9069,4.9289,4.9526,4.9475,4.9779,4.9932,4.9965,4.9864,4.9864,4.9881,4.9729,4.9475,4.9357,4.9221,4.9069,4.9018,4.9018,4.9018,4.9018,4.9018,4.9018,4.9018,4.9018,4.9018,4.9018,4.9018,4.9032,4.9073,4.9073,4.9104,4.9175,4.9131,4.9087,4.9107,4.9063,4.9001,4.9018,4.9018,4.8984,4.8968,4.8984,4.9018,4.9018,4.9018,4.9018,4.9018,4.9018,4.9018,4.9018,4.9018,4.9018,4.9018,4.9018,4.9018,4.9018,4.9086,4.9221,4.9289,4.9373,4.9661,5.0236,5.0676,5.0913,5.0947,5.0828,5.1048,5.1505,5.1674,5.1809,5.2046,5.2283,5.2503,5.2739,5.2942,5.3213,5.3501,5.3433,5.3213,5.3264,5.3365,5.3416,5.3331,5.3399,5.3382,5.3518,5.3518,5.3382,5.3298,5.3315,5.3348,4.4598,4.4615,4.4733,4.5568,4.6904,4.8308,4.8968,4.9018,4.9018,4.9018,4.9018,4.9018,4.9018,4.9032,4.9032,4.9032,4.9094,4.9094,4.9229,4.9086,4.9317,4.9354,4.9489,4.9255,4.9593,4.9593,4.9746,5.0185,5.0355,5.0574,5.0813,5.1185,5.1033,5.0913,5.0777,5.0405,5.0185,5.0118,4.9729,4.9424,4.9086,4.9018,4.9018,4.9018,4.9018,4.9018,4.9018,4.9018,4.9018,4.9018,4.9018,4.9018,4.9001,4.9001,4.9032,4.9032,4.9032,4.9032,4.9032,4.9001,4.9001,4.9018,4.9018,4.9018,4.9018,4.9018,4.9018,4.9018,4.9018,4.9018,4.9018,4.9018,4.9018,4.9018,4.9018,4.9018,4.9018,4.9204,4.9526,4.9593,4.9796,4.9915,5.0084,5.0202,5.0473,5.1031,5.1369,5.164,5.186,5.1758,5.1911,5.2266,5.2401,5.2553,5.2824,5.3061,5.323,5.3433,5.3484,5.3484,5.3501,5.3518,5.3518,5.3518,5.3518,5.3518,5.3484,5.3518,5.3518,5.3518,5.3518,5.3518,5.3518,5.3518,5.3518,4.4598,4.4716,4.5788,4.6498,4.6972,4.8376,4.9018,4.9018,4.9018,4.9018,4.9018,4.9018,4.9018,4.9018,4.9018,4.9018,4.9018,4.9154,4.9373,4.9644,4.9796,5.0067,5.049,5.0422,5.0509,5.0727,5.0879,5.0963,5.115,5.1268,5.1252,5.1252,5.1337,5.1438,5.1422,5.1048,5.093,5.0913,5.0591,4.9932,4.9323,4.9086,4.9018,4.9018,4.9035,4.9018,4.9018,4.9018,4.9018,4.9018,4.9018,4.9018,4.9001,4.9018,4.9018,4.9018,4.9018,4.9018,4.9018,4.9018,4.9018,4.9018,4.9018,4.9018,4.9018,4.9018,4.9018,4.9018,4.9018,4.9018,4.9018,4.9018,4.9018,4.9018,4.9086,4.9086,4.9103,4.9576,5.005,5.0287,5.0524,5.071,5.0862,5.1099,5.1386,5.1674,5.1944,5.2266,5.2756,5.2858,5.2739,5.2993,5.3129,5.3315,5.3518,5.3518,5.3518,5.3518,5.3501,5.3501,5.3518,5.3518,5.3518,5.3518,5.3518,5.3518,5.3518,5.3518,5.3518,5.3518,5.3467,5.3433,5.3467,5.3467,5.3467,4.4598,4.4801,4.616,4.6989,4.7479,4.8528,4.9018,4.9018,4.9018,4.9018,4.9018,4.9018,4.9018,4.9018,4.9018,4.9052,4.9103,4.9373,4.9661,5.0033,5.0524,5.0777,5.1067,5.1303,5.1116,5.1234,5.1623,5.1809,5.2046,5.2266,5.2317,5.2181,5.2148,5.2131,5.2131,5.1944,5.1708,5.1674,5.1438,5.0779,4.9915,4.9729,4.9526,4.9475,4.9238,4.9154,4.9018,4.9018,4.9018,4.9018,4.9018,4.9018,4.9018,4.9018,4.9018,4.9018,4.9018,4.9018,4.9018,4.9018,4.9018,4.9018,4.9018,4.9018,4.9018,4.9018,4.9018,4.9018,4.9018,4.9018,4.9018,4.9018,4.9018,4.9018,4.9458,4.9746,5.0033,5.0456,5.071,5.0811,5.1031,5.1234,5.142,5.1708,5.2046,5.2604,5.2824,5.2773,5.3264,5.3518,5.3518,5.3518,5.3518,5.3518,5.3518,5.3518,5.3518,5.3518,5.3518,5.3518,5.3518,5.3518,5.3518,5.3518,5.3518,5.3518,5.3518,5.3518,5.3518,5.3518,5.3433,5.3382,5.3433,5.3467,5.3467,4.4666,4.4953,4.621,4.7225,4.7939,4.868,4.9018,4.9018,4.9018,4.9018,4.9018,4.9018,4.9018,4.9018,4.9154,4.9137,4.9373,4.9965,5.0236,5.0676,5.1116,5.1572,5.1725,5.1641,5.1792,5.1961,5.2266,5.2773,5.3196,5.3213,5.3213,5.3467,5.3518,5.3484,5.3281,5.2926,5.2469,5.2367,5.2131,5.1675,5.1183,5.0693,5.0371,4.9999,4.9678,4.9323,4.9306,4.9323,4.9323,4.9289,4.9357,4.9137,4.9035,4.9018,4.9018,4.9018,4.9018,4.9018,4.9018,4.9018,4.9018,4.9018,4.9018,4.9018,4.9018,4.9018,4.9018,4.9018,4.9018,4.9018,4.9018,4.9035,4.9035,4.9357,4.9915,5.0524,5.0947,5.1303,5.1403,5.1471,5.1725,5.1928,5.2097,5.2367,5.2739,5.3315,5.3518,5.3518,5.3518,5.3518,5.3518,5.3518,5.3518,5.3518,5.3518,5.3518,5.3518,5.3518,5.3518,5.3518,5.3518,5.3518,5.3518,5.3518,5.3518,5.3518,5.3518,5.3518,5.3518,5.3518,5.3467,5.3433,5.3433,5.3467,5.3433,4.4942,4.5568,4.6447,4.7242,4.7956,4.8697,4.9018,4.9018,4.9018,4.9018,4.9018,4.9018,4.9018,4.9052,4.9678,4.9881,5.0016,5.0642,5.1369,5.1911,5.1995,5.2452,5.2723,5.2621,5.2976,5.3044,5.3027,5.3315,5.3518,5.3518,5.3518,5.3518,5.3518,5.3518,5.3484,5.3213,5.3129,5.3027,5.3044,5.279,5.252,5.1928,5.115,5.0913,5.0864,5.0811,5.0811,5.0762,5.0811,5.0642,5.0219,4.9695,4.9373,4.9204,4.9154,4.912,4.912,4.9018,4.9018,4.9018,4.9018,4.9018,4.9018,4.9018,4.9018,4.9018,4.9018,4.9018,4.9018,4.9018,4.9018,4.912,4.9204,4.9982,5.0642,5.1319,5.1877,5.2114,5.2266,5.2536,5.2875,5.2942,5.2976,5.3112,5.3129,5.3518,5.3518,5.3518,5.3518,5.3518,5.3518,5.3518,5.3518,5.3518,5.3518,5.3518,5.3518,5.3518,5.3518,5.3518,5.3518,5.3518,5.3518,5.3518,5.3518,5.3518,5.3518,5.3518,5.3518,5.3518,5.3518,5.3467,5.3467,5.3433,5.3382]}]]